[[{"header":{"parameterUnit":"m.s-1","parameterCategory":1,"la1":31.0,"la2":29.5877,"lo1":-88.7671,"lo2":-86.6584,"dy":0.0162,"dx":0.0185,"nx":115,"ny":88,"refTime":"2023-08-06T12:00:00:Z","depth":0,"parameterNumber":2,"parameterNumberName":"U-component_of_WINDS"},"data":[0.0,0.0,0.0,0.0,0.0,0.0,0.0,0.0,0.0,0.0,0.0,0.0,0.0,0.0,0.0,0.0,0.0,0.0,0.0,0.0,0.0,0.0,0.0,0.0,0.0,0.0,0.0,0.0,0.0,0.0,0.0,0.0,0.0,0.0,0.0,0.0,0.0,0.0,0.0,0.0,0.0,0.0,0.0,0.0,0.0,0.0,0.0,0.0,0.0,0.0,0.0,0.0,0.0,0.0,0.0,0.0,0.0,0.0,0.0,0.0,0.0,0.0,0.0,0.0,0.0,0.0,0.0,0.0,0.0,0.0,0.0,0.0,0.0,0.0,0.0,0.0,0.0,0.0,0.0,0.0,0.0,0.0,0.0,0.0,0.0,0.0,0.0,0.0,0.0,0.0,0.0,0.0,0.0,0.0,0.0,0.0,0.0,0.0,0.0,0.0,0.0,0.0,0.0,0.0,0.0,0.0,0.0,0.0,0.0,0.0,0.0,0.0,0.0,0.0,0.0,0.0,0.0,0.0,0.0,0.0,0.0,0.0,0.0,0.0,0.0,0.0,0.0,0.0,0.0,0.0,0.0,0.0,0.0,0.0,0.0,0.0,0.0,0.0,0.0,0.0,0.0,0.0,0.0,0.0,0.0,0.0,0.0,0.0,0.0,0.0,0.0,0.0,0.0,0.0,0.0,0.0,0.0,0.0,0.0,0.0,0.0,0.0,0.0,0.0,0.0,0.0,0.0,0.0,0.0,0.0,0.0,0.0,0.0,0.0,0.0,0.0,0.0,0.0,0.0,0.0,0.0,0.0,0.0,0.0,0.0,0.0,0.0,0.0,0.0,0.0,0.0,0.0,0.0,0.0,0.0,0.0,0.0,0.0,0.0,0.0,0.0,0.0,0.0,0.0,0.0,0.0,0.0,0.0,0.0,0.0,0.0,0.0,0.0,0.0,0.0,0.0,0.0,0.0,0.0,0.0,0.0,0.0,0.0,0.0,0.0,0.0,0.0,0.0,0.0,0.0,0.0,0.0,0.0,0.0,0.0,0.0,0.0,0.0,0.0,0.0,0.0,0.0,0.0,0.0,0.0,0.0,0.0,0.0,0.0,0.0,0.0,0.0,0.0,0.0,0.0,0.0,0.0,0.0,0.0,0.0,0.0,0.0,0.0,0.0,0.0,0.0,0.0,0.0,0.0,0.0,0.0,0.0,0.0,0.0,0.0,0.0,0.0,0.0,0.0,0.0,0.0,0.0,0.0,0.0,0.0,0.0,0.0,0.0,0.0,0.0,0.0,0.0,0.0,0.0,0.0,0.0,0.0,0.0,0.0,0.0,0.0,0.0,0.0,0.0,0.0,0.0,0.0,0.0,0.0,0.0,0.0,0.0,0.0,0.0,0.0,0.0,0.0,0.0,0.0,0.0,0.0,0.0,0.0,0.0,0.0,0.0,0.0,0.0,0.0,0.0,0.0,0.0,0.0,0.0,0.0,0.0,0.0,0.0,0.0,0.0,0.0,0.0,0.0,0.0,0.0,0.0,0.0,0.0,0.0,0.0,0.0,0.0,0.0,0.0,0.0,0.0,0.0,0.0,0.0,0.0,0.0,0.0,0.0,0.0,0.0,0.0,0.0,0.0,0.0,0.0,0.0,0.0,0.0,0.0,0.0,0.0,0.0,0.0,0.0,0.0,0.0,0.0,0.0,0.0,0.0,0.0,0.0,0.0,0.0,0.0,0.0,0.0,0.0,0.0,0.0,0.0,0.0,0.0,0.0,0.0,0.0,0.0,0.0,0.0,0.0,0.0,0.0,0.0,0.0,0.0,0.0,0.0,0.0,0.0,0.0,0.0,0.0,0.0,0.0,0.0,0.0,0.0,0.0,0.0,0.0,0.0,0.0,0.0,0.0,0.0,0.0,0.0,0.0,0.0,0.0,0.0,0.0,0.0,0.0,0.0,0.0,0.0,0.0,0.0,0.0,0.0,0.0,0.0,0.0,0.0,0.0,0.0,0.0,0.0,0.0,0.0,0.0,0.0,0.0,0.0,0.0,0.0,0.0,0.0,0.0,0.0,0.0,0.0,0.0,0.0,0.0,0.0,0.0,0.0,0.0,0.0,0.0,0.0,0.0,0.0,0.0,0.0,0.0,0.0,0.0,0.0,0.0,0.0,0.0,0.0,0.0,0.0,0.0,0.0,0.0,0.0,0.0,0.0,0.0,0.0,0.0,0.0,0.0,0.0,0.0,0.0,0.0,0.0,0.0,0.0,0.0,0.0,0.0,0.0,0.0,0.0,0.0,0.0,0.0,0.0,0.0,0.0,0.0,0.0,0.0,0.0,0.0,0.0,0.0,0.0,0.0,0.0,0.0,0.0,0.0,0.0,0.0,0.0,0.0,0.0,0.0,0.0,0.0,0.0,0.0,0.0,0.0,0.0,0.0,0.0,0.0,0.0,0.0,0.0,0.0,0.0,0.0,0.0,0.0,0.0,0.0,0.0,0.0,0.0,0.0,0.0,0.0,0.0,0.0,0.0,0.0,0.0,0.0,0.0,0.0,0.0,0.0,0.0,0.0,0.0,0.0,0.0,0.0,0.0,0.0,0.0,0.0,0.0,0.0,0.0,0.0,0.0,0.0,0.0,0.0,0.0,0.0,0.0,0.0,0.0,0.0,0.0,0.0,0.0,0.0,0.0,0.0,0.0,0.0,0.0,0.0,0.0,0.0,0.0,0.0,0.0,0.0,0.0,0.0,0.0,0.0,0.0,0.0,0.0,0.0,0.0,0.0,0.0,0.0,0.0,0.0,0.0,0.0,0.0,0.0,0.0,0.0,0.0,0.0,0.0,0.0,0.0,0.0,0.0,0.0,0.0,0.0,0.0,0.0,0.0,0.0,0.0,0.0,0.0,0.0,0.0,0.0,0.0,0.0,0.0,0.0,0.0,0.0,0.0,0.0,0.0,0.0,0.0,0.0,0.0,0.0,0.0,0.0,0.0,0.0,0.0,0.0,0.0,0.0,0.0,0.0,0.0,0.0,0.0,0.0,0.0,0.0,0.0,0.0,0.0,0.0,0.0,0.0,0.0,0.0,0.0,0.0,0.0,0.0,0.0,0.0,0.0,0.0,0.0,0.0,0.0,0.0,0.0,0.0,0.0,0.0,0.0,0.0,0.0,0.0,0.0,0.0,0.0,0.0,0.0,0.0,0.0,0.0,0.0,0.0,0.0,0.0,0.0,0.0,0.0,0.0,0.0,0.0,0.0,0.0,0.0,0.0,0.0,0.0,0.0,0.0,0.0,0.0,0.0,0.0,0.0,0.0,0.0,0.0,0.0,0.0,0.0,0.0,0.0,0.0,0.0,0.0,0.0,0.0,0.0,0.0,0.0,0.0,0.0,0.0,0.0,0.0,0.0,0.0,0.0,0.0,0.0,0.0,0.0,0.0,0.0,0.0,0.0,0.0,0.0,0.0,0.0,0.0,0.0,0.0,0.0,0.0,0.0,0.0,0.0,0.0,0.0,0.0,0.0,0.0,0.0,0.0,0.0,0.0,0.0,0.0,0.0,0.0,0.0,0.0,0.0,0.0,0.0,0.0,0.0,0.0,0.0,0.0,0.0,0.0,0.0,0.0,0.0,0.0,0.0,0.0,0.0,0.0,0.0,0.0,0.0,0.0,0.0,0.0,0.0,0.0,0.0,0.0,0.0,0.0,0.0,0.0,0.0,0.0,0.0,0.0,0.0,0.0,0.0,0.0,0.0,0.0,0.0,0.0,0.0,0.0,0.0,0.0,0.0,0.0,0.0,0.0,0.0,0.0,0.0,0.0,0.0,0.0,0.0,0.0,0.0,0.0,0.0,0.0,0.0,0.0,0.0,0.0,0.0,0.0,0.0,0.0,0.0,0.0,0.0,0.0,0.0,0.0,0.0,0.0,0.0,0.0,0.0,0.0,0.0,0.0,0.0,0.0,0.0,0.0,0.0,0.0,0.0,0.0,0.0,0.0,0.0,0.0,0.0,0.0,0.0,0.0,0.0,0.0,0.0,0.0,0.0,0.0,0.0,0.0,0.0,0.0,0.0,0.0,0.0,0.0,0.0,0.0,0.0,0.0,0.0,0.0,0.0,0.0,0.0,0.0,0.0,0.0,0.0,0.0,0.0,0.0,0.0,0.0,0.0,0.0,0.0,0.0,0.0,0.0,0.0,0.0,0.0,0.0,0.0,0.0,0.0,0.0,0.0,0.0,0.0,0.0,0.0,0.0,0.0,0.0,0.0,0.0,0.0,0.0,0.0,-2.5416,0.0,0.0,0.0,0.0,0.0,0.0,0.0,0.0,0.0,0.0,0.0,0.0,0.0,0.0,0.0,0.0,0.0,0.0,0.0,0.0,0.0,0.0,0.0,0.0,0.0,0.0,0.0,0.0,0.0,0.0,0.0,0.0,0.0,0.0,0.0,0.0,0.0,0.0,0.0,0.0,0.0,0.0,0.0,0.0,0.0,0.0,0.0,0.0,0.0,0.0,0.0,0.0,0.0,0.0,0.0,0.0,0.0,0.0,0.0,0.0,0.0,0.0,0.0,0.0,0.0,0.0,0.0,0.0,0.0,0.0,0.0,0.0,0.0,0.0,0.0,0.0,0.0,0.0,0.0,0.0,0.0,0.0,0.0,0.0,0.0,0.0,0.0,0.0,0.0,0.0,0.0,0.0,0.0,0.0,0.0,0.0,0.0,0.0,0.0,0.0,0.0,0.0,0.0,0.0,0.0,0.0,0.0,0.0,0.0,0.0,-2.4861,-2.52,-2.5322,-2.5711,-2.6192,0.0,0.0,0.0,0.0,0.0,0.0,0.0,0.0,0.0,0.0,0.0,0.0,0.0,0.0,0.0,0.0,0.0,0.0,0.0,0.0,0.0,0.0,0.0,0.0,0.0,0.0,0.0,0.0,0.0,0.0,0.0,0.0,0.0,0.0,0.0,0.0,0.0,0.0,0.0,0.0,0.0,0.0,0.0,0.0,0.0,0.0,0.0,0.0,0.0,0.0,0.0,0.0,0.0,0.0,0.0,0.0,0.0,0.0,0.0,0.0,0.0,0.0,0.0,0.0,0.0,0.0,0.0,0.0,0.0,0.0,0.0,0.0,0.0,0.0,0.0,0.0,0.0,0.0,0.0,0.0,0.0,0.0,0.0,0.0,0.0,0.0,0.0,0.0,0.0,0.0,0.0,0.0,0.0,0.0,0.0,0.0,0.0,0.0,0.0,0.0,0.0,0.0,0.0,0.0,0.0,0.0,0.0,0.0,0.0,0.0,0.0,0.0,-2.619,-2.6763,-2.7044,0.0,0.0,0.0,0.0,0.0,0.0,0.0,0.0,0.0,0.0,0.0,0.0,0.0,0.0,0.0,0.0,0.0,0.0,0.0,0.0,0.0,0.0,0.0,0.0,0.0,0.0,0.0,0.0,0.0,0.0,0.0,0.0,0.0,0.0,0.0,0.0,0.0,0.0,0.0,0.0,0.0,0.0,0.0,0.0,0.0,0.0,0.0,0.0,0.0,0.0,0.0,0.0,0.0,0.0,0.0,0.0,0.0,0.0,0.0,0.0,0.0,0.0,0.0,0.0,0.0,0.0,0.0,0.0,0.0,0.0,0.0,0.0,0.0,0.0,0.0,0.0,0.0,0.0,0.0,0.0,0.0,0.0,0.0,0.0,0.0,0.0,0.0,0.0,0.0,0.0,0.0,0.0,0.0,0.0,0.0,0.0,0.0,0.0,0.0,0.0,0.0,0.0,0.0,0.0,0.0,0.0,0.0,0.0,0.0,0.0,-2.5518,-2.6799,-2.736,0.0,-2.8595,0.0,0.0,0.0,0.0,0.0,0.0,0.0,0.0,0.0,0.0,0.0,0.0,0.0,0.0,0.0,0.0,0.0,0.0,0.0,0.0,0.0,0.0,0.0,0.0,0.0,0.0,0.0,0.0,0.0,0.0,0.0,0.0,0.0,0.0,0.0,0.0,0.0,0.0,0.0,0.0,0.0,0.0,0.0,0.0,0.0,0.0,0.0,0.0,0.0,0.0,0.0,0.0,0.0,0.0,0.0,0.0,0.0,0.0,0.0,0.0,0.0,0.0,0.0,0.0,0.0,0.0,0.0,0.0,0.0,0.0,0.0,0.0,0.0,0.0,0.0,0.0,0.0,0.0,0.0,0.0,0.0,0.0,0.0,0.0,0.0,0.0,0.0,0.0,0.0,0.0,0.0,0.0,0.0,0.0,0.0,0.0,0.0,0.0,0.0,0.0,0.0,0.0,0.0,0.0,0.0,0.0,0.0,0.0,0.0,0.0,-2.6649,-2.8124,-3.0236,-3.1104,0.0,0.0,0.0,0.0,0.0,0.0,0.0,0.0,0.0,0.0,0.0,0.0,0.0,0.0,0.0,0.0,0.0,0.0,0.0,0.0,0.0,0.0,0.0,0.0,0.0,0.0,0.0,0.0,0.0,0.0,0.0,0.0,0.0,0.0,0.0,0.0,0.0,0.0,0.0,0.0,0.0,0.0,0.0,0.0,0.0,0.0,0.0,0.0,0.0,0.0,0.0,0.0,0.0,0.0,0.0,0.0,0.0,0.0,0.0,0.0,0.0,0.0,0.0,0.0,0.0,0.0,0.0,0.0,0.0,0.0,0.0,0.0,0.0,0.0,0.0,0.0,0.0,0.0,0.0,0.0,0.0,0.0,0.0,0.0,0.0,0.0,0.0,0.0,0.0,0.0,0.0,0.0,0.0,0.0,0.0,0.0,0.0,0.0,0.0,0.0,0.0,0.0,0.0,0.0,0.0,0.0,0.0,0.0,0.0,0.0,-2.6833,-2.8403,-3.064,-3.3411,-3.4139,-3.2608,0.0,0.0,0.0,0.0,0.0,0.0,0.0,0.0,0.0,0.0,0.0,0.0,0.0,0.0,0.0,0.0,0.0,0.0,0.0,0.0,0.0,0.0,0.0,0.0,0.0,0.0,0.0,0.0,0.0,0.0,0.0,0.0,0.0,0.0,0.0,0.0,0.0,0.0,0.0,0.0,0.0,0.0,0.0,0.0,0.0,0.0,0.0,0.0,0.0,0.0,0.0,0.0,0.0,0.0,0.0,0.0,0.0,0.0,0.0,0.0,0.0,0.0,0.0,0.0,0.0,0.0,0.0,0.0,0.0,0.0,0.0,0.0,0.0,0.0,0.0,0.0,0.0,0.0,0.0,0.0,0.0,0.0,0.0,0.0,0.0,0.0,0.0,0.0,0.0,0.0,0.0,0.0,0.0,0.0,0.0,0.0,0.0,0.0,0.0,0.0,0.0,0.0,0.0,0.0,0.0,0.0,0.0,0.0,-2.8114,-2.8598,-3.0883,-3.4958,-3.6652,-3.6319,0.0,0.0,0.0,0.0,0.0,0.0,0.0,0.0,0.0,0.0,0.0,0.0,0.0,0.0,0.0,0.0,0.0,0.0,0.0,0.0,0.0,0.0,0.0,0.0,0.0,0.0,0.0,0.0,0.0,0.0,0.0,0.0,0.0,0.0,0.0,0.0,0.0,0.0,0.0,0.0,0.0,0.0,0.0,0.0,0.0,0.0,0.0,0.0,0.0,0.0,0.0,0.0,0.0,0.0,0.0,0.0,0.0,0.0,0.0,0.0,0.0,0.0,0.0,0.0,0.0,0.0,0.0,0.0,0.0,0.0,0.0,0.0,0.0,0.0,0.0,0.0,0.0,0.0,0.0,0.0,0.0,0.0,0.0,0.0,0.0,0.0,0.0,0.0,0.0,0.0,0.0,0.0,0.0,0.0,0.0,0.0,0.0,0.0,0.0,0.0,0.0,0.0,0.0,0.0,0.0,0.0,0.0,0.0,0.0,-2.8466,-3.1404,-3.4719,-3.8185,-3.8572,-3.7974,0.0,0.0,0.0,0.0,0.0,0.0,0.0,0.0,0.0,0.0,0.0,0.0,0.0,0.0,0.0,0.0,0.0,0.0,0.0,0.0,0.0,0.0,0.0,0.0,0.0,0.0,0.0,0.0,0.0,0.0,0.0,0.0,0.0,0.0,0.0,0.0,0.0,0.0,0.0,0.0,0.0,0.0,0.0,0.0,0.0,0.0,0.0,0.0,0.0,0.0,0.0,0.0,0.0,0.0,0.0,0.0,0.0,0.0,0.0,0.0,0.0,0.0,0.0,0.0,0.0,0.0,0.0,0.0,0.0,0.0,0.0,0.0,0.0,0.0,0.0,0.0,0.0,0.0,0.0,0.0,0.0,0.0,0.0,0.0,0.0,0.0,0.0,0.0,0.0,0.0,0.0,0.0,0.0,0.0,0.0,0.0,0.0,0.0,0.0,0.0,0.0,0.0,0.0,0.0,0.0,0.0,0.0,0.0,0.0,-3.0919,0.0,-3.7952,-4.072,-4.0731,-3.978,0.0,0.0,0.0,0.0,0.0,0.0,0.0,0.0,0.0,0.0,0.0,0.0,0.0,0.0,0.0,0.0,0.0,0.0,0.0,0.0,0.0,0.0,0.0,0.0,0.0,0.0,0.0,0.0,0.0,0.0,0.0,0.0,0.0,0.0,0.0,0.0,0.0,0.0,0.0,0.0,0.0,0.0,0.0,0.0,0.0,0.0,0.0,0.0,0.0,0.0,0.0,0.0,0.0,0.0,0.0,0.0,0.0,0.0,0.0,0.0,0.0,0.0,0.0,0.0,0.0,0.0,0.0,0.0,0.0,0.0,0.0,0.0,0.0,0.0,0.0,0.0,0.0,0.0,0.0,0.0,0.0,0.0,0.0,0.0,0.0,0.0,0.0,0.0,0.0,0.0,0.0,0.0,0.0,0.0,0.0,0.0,0.0,0.0,0.0,0.0,0.0,0.0,0.0,0.0,0.0,0.0,0.0,0.0,-3.115,-3.5881,-3.8229,-4.044,-4.2652,-4.3107,-4.1564,0.0,0.0,0.0,0.0,0.0,0.0,0.0,0.0,0.0,0.0,0.0,0.0,0.0,0.0,0.0,0.0,0.0,0.0,0.0,0.0,0.0,0.0,0.0,0.0,0.0,0.0,0.0,0.0,0.0,0.0,0.0,0.0,0.0,0.0,0.0,0.0,0.0,0.0,0.0,0.0,0.0,0.0,0.0,0.0,0.0,0.0,0.0,0.0,0.0,0.0,0.0,0.0,0.0,0.0,0.0,0.0,0.0,0.0,0.0,0.0,0.0,0.0,0.0,0.0,0.0,0.0,0.0,0.0,0.0,0.0,0.0,0.0,0.0,0.0,0.0,0.0,0.0,0.0,0.0,0.0,0.0,0.0,0.0,0.0,0.0,0.0,0.0,0.0,0.0,0.0,0.0,0.0,0.0,0.0,0.0,0.0,0.0,0.0,0.0,0.0,0.0,0.0,0.0,0.0,0.0,0.0,0.0,0.0,0.0,-3.6971,-3.9412,-4.219,-4.5266,-4.3831,-4.2492,0.0,0.0,0.0,0.0,0.0,0.0,0.0,0.0,0.0,0.0,0.0,0.0,0.0,0.0,0.0,0.0,0.0,0.0,0.0,0.0,0.0,0.0,0.0,0.0,0.0,0.0,0.0,0.0,0.0,0.0,0.0,0.0,0.0,0.0,0.0,0.0,0.0,0.0,0.0,0.0,0.0,0.0,0.0,0.0,0.0,0.0,0.0,0.0,0.0,0.0,0.0,0.0,0.0,0.0,0.0,0.0,0.0,0.0,0.0,0.0,0.0,0.0,0.0,0.0,0.0,0.0,0.0,0.0,0.0,0.0,0.0,0.0,0.0,0.0,0.0,0.0,0.0,0.0,0.0,0.0,0.0,0.0,0.0,0.0,0.0,0.0,0.0,0.0,0.0,0.0,0.0,0.0,0.0,0.0,0.0,0.0,0.0,0.0,0.0,0.0,0.0,0.0,0.0,0.0,0.0,0.0,0.0,0.0,0.0,-3.8663,-4.1458,-4.4231,-4.6848,-4.5667,-4.4335,-4.2826,0.0,0.0,0.0,0.0,0.0,0.0,0.0,0.0,0.0,0.0,0.0,0.0,0.0,0.0,0.0,0.0,0.0,0.0,0.0,0.0,0.0,0.0,0.0,0.0,0.0,0.0,0.0,0.0,0.0,0.0,0.0,0.0,0.0,0.0,0.0,0.0,0.0,0.0,0.0,0.0,0.0,0.0,0.0,0.0,0.0,0.0,0.0,0.0,0.0,0.0,0.0,0.0,0.0,0.0,0.0,0.0,0.0,0.0,0.0,0.0,0.0,0.0,0.0,0.0,0.0,0.0,0.0,0.0,0.0,0.0,0.0,0.0,0.0,0.0,0.0,0.0,0.0,0.0,0.0,0.0,0.0,0.0,0.0,0.0,0.0,0.0,0.0,0.0,0.0,0.0,0.0,0.0,0.0,0.0,0.0,0.0,0.0,0.0,0.0,0.0,0.0,0.0,0.0,0.0,0.0,0.0,0.0,0.0,-4.0813,-4.4159,-4.6301,-4.74,-4.8289,-4.6831,0.0,0.0,0.0,0.0,0.0,0.0,0.0,0.0,0.0,0.0,0.0,0.0,0.0,0.0,0.0,0.0,0.0,0.0,0.0,0.0,0.0,0.0,0.0,0.0,0.0,0.0,0.0,0.0,0.0,0.0,0.0,0.0,0.0,0.0,0.0,0.0,0.0,0.0,0.0,0.0,0.0,0.0,0.0,0.0,0.0,0.0,0.0,0.0,0.0,0.0,0.0,0.0,0.0,0.0,0.0,0.0,0.0,0.0,0.0,0.0,0.0,0.0,0.0,0.0,0.0,0.0,0.0,0.0,0.0,0.0,0.0,0.0,0.0,0.0,0.0,0.0,0.0,0.0,0.0,0.0,0.0,0.0,0.0,0.0,0.0,0.0,0.0,0.0,0.0,0.0,0.0,0.0,0.0,0.0,0.0,0.0,0.0,0.0,0.0,0.0,0.0,0.0,0.0,0.0,0.0,0.0,0.0,0.0,0.0,-4.1877,-4.4899,-4.7556,-4.9805,-4.831,-4.6766,0.0,0.0,0.0,0.0,0.0,0.0,0.0,0.0,0.0,0.0,0.0,0.0,0.0,0.0,0.0,0.0,0.0,0.0,0.0,0.0,0.0,0.0,0.0,0.0,0.0,0.0,0.0,0.0,0.0,0.0,0.0,0.0,0.0,0.0,0.0,0.0,0.0,0.0,0.0,0.0,0.0,0.0,0.0,0.0,0.0,0.0,0.0,0.0,0.0,0.0,0.0,0.0,0.0,0.0,0.0,0.0,0.0,0.0,0.0,0.0,0.0,0.0,0.0,0.0,0.0,0.0,0.0,0.0,0.0,0.0,0.0,0.0,0.0,0.0,0.0,0.0,0.0,0.0,0.0,0.0,0.0,0.0,0.0,0.0,0.0,0.0,0.0,0.0,0.0,0.0,0.0,0.0,0.0,0.0,0.0,0.0,0.0,0.0,0.0,0.0,0.0,0.0,0.0,0.0,0.0,0.0,0.0,0.0,-3.7665,-4.2324,-4.4792,-4.7465,-5.0464,-4.9235,-4.7854,0.0,0.0,0.0,0.0,0.0,0.0,0.0,0.0,0.0,0.0,0.0,0.0,0.0,0.0,0.0,0.0,0.0,0.0,0.0,0.0,0.0,0.0,0.0,0.0,0.0,0.0,0.0,0.0,0.0,0.0,0.0,0.0,0.0,0.0,0.0,0.0,0.0,0.0,0.0,0.0,0.0,0.0,0.0,0.0,0.0,0.0,0.0,0.0,0.0,0.0,0.0,0.0,0.0,0.0,0.0,0.0,0.0,0.0,0.0,0.0,0.0,0.0,0.0,0.0,0.0,0.0,0.0,0.0,0.0,0.0,0.0,0.0,0.0,0.0,0.0,0.0,0.0,0.0,0.0,0.0,0.0,0.0,0.0,0.0,0.0,0.0,0.0,0.0,0.0,0.0,0.0,0.0,0.0,0.0,0.0,0.0,0.0,0.0,0.0,0.0,0.0,0.0,0.0,0.0,0.0,0.0,0.0,0.0,-3.7048,-4.241,-4.4312,-4.6786,-4.9852,-5.0293,-4.9115,0.0,0.0,0.0,0.0,0.0,0.0,0.0,0.0,0.0,0.0,0.0,0.0,0.0,0.0,0.0,0.0,0.0,0.0,0.0,0.0,0.0,0.0,0.0,0.0,0.0,0.0,0.0,0.0,0.0,0.0,0.0,0.0,0.0,0.0,0.0,0.0,0.0,0.0,0.0,0.0,0.0,0.0,0.0,0.0,0.0,0.0,0.0,0.0,0.0,0.0,0.0,0.0,0.0,0.0,0.0,0.0,0.0,0.0,0.0,0.0,0.0,0.0,0.0,0.0,0.0,0.0,0.0,0.0,0.0,0.0,0.0,0.0,0.0,0.0,0.0,0.0,0.0,0.0,0.0,0.0,0.0,0.0,0.0,0.0,0.0,0.0,0.0,0.0,0.0,0.0,0.0,0.0,0.0,0.0,0.0,0.0,0.0,0.0,0.0,0.0,0.0,0.0,0.0,0.0,0.0,0.0,0.0,0.0,-3.8331,-4.2983,-4.4967,-4.6924,-4.9194,-4.8373,-4.7426,0.0,0.0,0.0,0.0,0.0,0.0,0.0,0.0,0.0,0.0,0.0,0.0,0.0,0.0,0.0,0.0,0.0,0.0,0.0,0.0,0.0,0.0,0.0,0.0,0.0,0.0,0.0,0.0,0.0,0.0,0.0,0.0,0.0,0.0,0.0,0.0,0.0,0.0,0.0,0.0,0.0,0.0,0.0,0.0,0.0,0.0,0.0,0.0,-3.4968,0.0,0.0,0.0,0.0,0.0,0.0,0.0,0.0,0.0,0.0,0.0,0.0,0.0,0.0,0.0,0.0,0.0,0.0,0.0,0.0,0.0,0.0,0.0,0.0,0.0,0.0,0.0,0.0,0.0,0.0,0.0,0.0,0.0,0.0,0.0,0.0,0.0,0.0,0.0,0.0,0.0,0.0,0.0,0.0,0.0,0.0,0.0,0.0,0.0,0.0,0.0,0.0,0.0,0.0,0.0,0.0,0.0,0.0,0.0,-3.8799,-4.3524,-4.5153,-4.6827,-4.8687,-4.7862,-4.6967,0.0,0.0,0.0,0.0,0.0,0.0,0.0,0.0,0.0,0.0,0.0,0.0,0.0,0.0,0.0,0.0,0.0,0.0,0.0,0.0,0.0,0.0,0.0,0.0,0.0,0.0,0.0,0.0,0.0,0.0,0.0,0.0,0.0,0.0,0.0,0.0,0.0,0.0,0.0,0.0,0.0,0.0,0.0,0.0,0.0,0.0,0.0,0.0,0.0,0.0,0.0,0.0,0.0,0.0,0.0,0.0,0.0,0.0,0.0,0.0,0.0,0.0,0.0,0.0,0.0,0.0,0.0,0.0,0.0,0.0,0.0,0.0,0.0,0.0,0.0,0.0,0.0,0.0,0.0,0.0,0.0,0.0,0.0,0.0,0.0,0.0,0.0,0.0,0.0,0.0,0.0,0.0,0.0,0.0,0.0,0.0,0.0,0.0,0.0,0.0,0.0,0.0,0.0,0.0,0.0,0.0,0.0,-3.5803,-3.9053,-4.3892,-4.5237,-4.6682,-4.8521,-4.805,-4.7145,-4.5773,0.0,0.0,0.0,0.0,0.0,0.0,0.0,0.0,0.0,0.0,0.0,0.0,0.0,0.0,0.0,0.0,0.0,0.0,0.0,0.0,0.0,0.0,0.0,0.0,0.0,0.0,0.0,0.0,0.0,0.0,0.0,0.0,0.0,0.0,0.0,0.0,0.0,0.0,-2.0435,-2.3503,0.0,0.0,0.0,0.0,0.0,0.0,0.0,0.0,-4.0091,0.0,0.0,0.0,0.0,0.0,0.0,0.0,0.0,0.0,0.0,0.0,0.0,0.0,0.0,0.0,0.0,0.0,0.0,0.0,0.0,0.0,0.0,0.0,0.0,0.0,0.0,0.0,0.0,0.0,0.0,0.0,0.0,0.0,0.0,0.0,0.0,0.0,0.0,0.0,0.0,0.0,0.0,0.0,0.0,0.0,0.0,0.0,0.0,0.0,0.0,0.0,0.0,0.0,0.0,0.0,0.0,-3.4788,-3.6213,-3.9269,-4.3995,-4.5237,-4.6667,-4.8506,-4.8512,-4.7461,-4.5415,0.0,0.0,0.0,0.0,0.0,0.0,0.0,0.0,0.0,0.0,0.0,0.0,0.0,0.0,0.0,0.0,0.0,0.0,0.0,0.0,0.0,0.0,0.0,0.0,0.0,0.0,0.0,0.0,0.0,0.0,0.0,0.0,0.0,0.0,0.0,0.0,0.0,0.0,0.0,-2.3221,-2.5694,0.0,0.0,0.0,0.0,0.0,0.0,0.0,0.0,-4.331,0.0,0.0,0.0,0.0,0.0,0.0,0.0,0.0,0.0,0.0,0.0,0.0,0.0,0.0,0.0,0.0,0.0,0.0,0.0,0.0,0.0,0.0,0.0,0.0,0.0,0.0,0.0,0.0,0.0,0.0,0.0,0.0,0.0,0.0,0.0,0.0,0.0,0.0,0.0,0.0,0.0,0.0,0.0,0.0,0.0,0.0,0.0,0.0,0.0,0.0,0.0,0.0,0.0,0.0,0.0,-3.4556,-3.6874,-4.0121,-4.4362,-4.5411,-4.6667,-4.8506,-4.7588,-4.6339,0.0,0.0,0.0,0.0,0.0,0.0,0.0,0.0,0.0,0.0,0.0,0.0,0.0,0.0,0.0,0.0,0.0,0.0,0.0,0.0,0.0,0.0,0.0,0.0,0.0,0.0,0.0,0.0,0.0,0.0,0.0,0.0,0.0,0.0,0.0,0.0,0.0,0.0,0.0,0.0,-2.5362,-2.8286,-3.0622,0.0,0.0,0.0,0.0,0.0,0.0,-4.4461,-4.4772,0.0,0.0,0.0,0.0,0.0,0.0,0.0,0.0,0.0,0.0,0.0,0.0,0.0,0.0,0.0,0.0,0.0,0.0,0.0,0.0,0.0,0.0,0.0,0.0,0.0,0.0,0.0,0.0,0.0,0.0,0.0,0.0,0.0,0.0,0.0,0.0,0.0,0.0,0.0,0.0,0.0,0.0,0.0,0.0,0.0,0.0,0.0,0.0,0.0,0.0,0.0,0.0,0.0,0.0,0.0,-3.4335,-3.7229,-4.0615,-4.4514,-4.5298,-4.6491,-4.8157,-4.6889,-4.5461,0.0,0.0,0.0,0.0,0.0,0.0,0.0,0.0,0.0,0.0,0.0,0.0,0.0,0.0,0.0,0.0,0.0,0.0,0.0,0.0,0.0,0.0,0.0,0.0,0.0,0.0,0.0,0.0,0.0,0.0,0.0,0.0,0.0,0.0,0.0,0.0,0.0,0.0,0.0,0.0,0.0,-3.165,-3.3503,-3.7577,0.0,0.0,0.0,0.0,-4.5902,-4.6181,0.0,0.0,0.0,0.0,0.0,0.0,0.0,0.0,0.0,0.0,0.0,0.0,0.0,0.0,0.0,0.0,0.0,0.0,0.0,0.0,0.0,0.0,0.0,0.0,0.0,0.0,0.0,0.0,0.0,0.0,0.0,0.0,0.0,0.0,0.0,0.0,0.0,0.0,0.0,0.0,0.0,0.0,0.0,0.0,0.0,0.0,0.0,0.0,0.0,0.0,0.0,0.0,0.0,0.0,0.0,0.0,-3.4275,-3.6996,-4.0079,-4.3554,-4.4627,-4.5764,-4.7046,-4.7537,-4.6199,0.0,0.0,0.0,0.0,0.0,0.0,0.0,0.0,0.0,0.0,0.0,0.0,0.0,0.0,0.0,0.0,0.0,0.0,0.0,0.0,0.0,0.0,0.0,0.0,0.0,0.0,0.0,0.0,0.0,0.0,0.0,0.0,0.0,0.0,0.0,0.0,0.0,0.0,0.0,0.0,0.0,-3.514,-3.6717,-4.0365,-4.3337,0.0,0.0,-4.7218,-4.6409,-4.7344,0.0,0.0,0.0,0.0,0.0,0.0,0.0,0.0,0.0,0.0,0.0,0.0,0.0,0.0,0.0,0.0,0.0,0.0,0.0,0.0,0.0,0.0,0.0,0.0,0.0,0.0,0.0,0.0,0.0,0.0,0.0,0.0,0.0,0.0,0.0,0.0,0.0,0.0,0.0,0.0,0.0,0.0,0.0,0.0,0.0,0.0,0.0,0.0,0.0,0.0,0.0,0.0,0.0,0.0,0.0,-3.258,-3.3978,-3.7449,-4.0549,-4.3136,-4.3868,-4.472,-4.581,-4.4689,-4.3157,0.0,0.0,0.0,0.0,0.0,0.0,0.0,0.0,0.0,0.0,0.0,0.0,0.0,0.0,0.0,0.0,0.0,0.0,0.0,0.0,0.0,0.0,0.0,0.0,0.0,0.0,0.0,0.0,0.0,0.0,0.0,0.0,0.0,0.0,0.0,0.0,0.0,0.0,0.0,0.0,0.0,0.0,-4.0771,-4.4133,0.0,0.0,0.0,-4.8269,-4.6813,0.0,0.0,0.0,0.0,0.0,0.0,0.0,0.0,0.0,0.0,0.0,0.0,0.0,0.0,0.0,0.0,0.0,0.0,0.0,0.0,0.0,0.0,0.0,0.0,0.0,0.0,0.0,0.0,0.0,0.0,0.0,0.0,0.0,0.0,0.0,0.0,0.0,0.0,0.0,0.0,0.0,0.0,0.0,0.0,0.0,0.0,0.0,0.0,0.0,0.0,0.0,0.0,0.0,0.0,0.0,0.0,0.0,-3.3844,-3.7577,-4.0579,-4.2627,-4.3136,-4.3693,-4.4493,-4.2658,0.0,0.0,0.0,0.0,0.0,0.0,0.0,0.0,0.0,0.0,0.0,0.0,0.0,0.0,0.0,0.0,0.0,0.0,0.0,0.0,0.0,0.0,0.0,0.0,0.0,0.0,0.0,-1.8585,0.0,0.0,0.0,0.0,0.0,0.0,0.0,0.0,0.0,0.0,0.0,0.0,0.0,0.0,-4.0857,-4.4184,-4.7348,-4.9524,0.0,0.0,-4.8838,-4.711,-4.6596,-4.5364,0.0,0.0,0.0,0.0,0.0,0.0,0.0,0.0,0.0,0.0,0.0,0.0,0.0,0.0,0.0,0.0,0.0,0.0,0.0,0.0,0.0,0.0,0.0,0.0,0.0,0.0,0.0,0.0,0.0,0.0,0.0,0.0,0.0,0.0,0.0,0.0,0.0,0.0,0.0,0.0,0.0,0.0,0.0,0.0,0.0,0.0,0.0,0.0,0.0,0.0,0.0,0.0,0.0,0.0,0.0,-3.4229,-3.6796,-3.9312,-4.173,-4.2514,-4.2999,-4.33,-4.3291,-4.1784,0.0,0.0,0.0,0.0,0.0,0.0,0.0,0.0,0.0,0.0,0.0,0.0,0.0,0.0,0.0,0.0,0.0,0.0,0.0,0.0,0.0,0.0,0.0,0.0,0.0,0.0,0.0,0.0,0.0,0.0,0.0,0.0,0.0,0.0,0.0,0.0,0.0,0.0,0.0,0.0,0.0,-4.4908,-4.607,-4.9151,-5.1323,0.0,0.0,-4.8627,-4.7015,-4.7068,-4.5658,-4.1004,0.0,0.0,0.0,0.0,0.0,0.0,0.0,0.0,0.0,0.0,0.0,0.0,0.0,0.0,0.0,0.0,0.0,0.0,0.0,0.0,0.0,0.0,0.0,0.0,0.0,0.0,0.0,0.0,0.0,0.0,0.0,0.0,0.0,0.0,0.0,0.0,0.0,0.0,0.0,0.0,0.0,0.0,0.0,0.0,0.0,0.0,0.0,0.0,0.0,0.0,0.0,0.0,0.0,-3.2617,-3.4253,-3.7047,-3.9459,-4.1372,-4.1769,-4.1967,-4.198,-4.1743,-4.036,0.0,0.0,0.0,0.0,0.0,0.0,0.0,0.0,0.0,0.0,0.0,0.0,0.0,0.0,0.0,0.0,0.0,0.0,0.0,0.0,0.0,0.0,0.0,0.0,0.0,0.0,0.0,0.0,-2.1562,-2.2515,-2.3314,0.0,0.0,0.0,0.0,0.0,0.0,0.0,0.0,0.0,0.0,-4.5076,-4.696,-4.9211,0.0,0.0,-4.9077,-4.8034,-4.6769,-4.5688,-4.4126,-4.1546,-3.9457,0.0,0.0,0.0,0.0,0.0,0.0,0.0,0.0,0.0,0.0,0.0,0.0,0.0,0.0,0.0,0.0,0.0,0.0,0.0,0.0,0.0,0.0,0.0,0.0,0.0,0.0,0.0,0.0,0.0,0.0,0.0,0.0,0.0,0.0,0.0,0.0,0.0,0.0,0.0,0.0,0.0,0.0,0.0,0.0,0.0,0.0,0.0,0.0,0.0,0.0,0.0,0.0,-3.236,-3.4007,-3.6694,-3.8798,-4.0249,-4.0415,-4.0415,-4.0236,-3.951,-3.8386,0.0,0.0,0.0,0.0,0.0,0.0,0.0,0.0,0.0,0.0,0.0,0.0,0.0,0.0,0.0,0.0,0.0,0.0,0.0,0.0,0.0,0.0,0.0,0.0,0.0,0.0,0.0,0.0,-2.3409,-2.4377,-2.5152,0.0,0.0,0.0,0.0,0.0,0.0,0.0,0.0,0.0,0.0,-4.5595,-4.732,-4.8722,-4.9363,-4.8886,-4.7938,-4.7077,-4.6167,-4.4954,-4.3462,-4.1563,0.0,0.0,0.0,0.0,0.0,0.0,0.0,0.0,0.0,0.0,0.0,0.0,0.0,0.0,0.0,0.0,0.0,0.0,0.0,0.0,0.0,0.0,0.0,0.0,0.0,0.0,0.0,0.0,0.0,0.0,-3.1141,0.0,0.0,0.0,0.0,0.0,0.0,0.0,0.0,0.0,0.0,0.0,0.0,0.0,0.0,0.0,0.0,0.0,0.0,0.0,0.0,0.0,0.0,-3.1684,-3.3277,-3.5246,-3.6834,-3.8019,-3.8395,-3.8514,-3.8007,-3.6994,-3.6098,-3.5445,0.0,0.0,0.0,0.0,0.0,0.0,0.0,0.0,0.0,0.0,0.0,0.0,0.0,0.0,0.0,0.0,0.0,0.0,0.0,0.0,0.0,0.0,0.0,0.0,0.0,0.0,-2.3862,-2.4366,-2.4859,0.0,0.0,0.0,0.0,0.0,0.0,0.0,0.0,0.0,0.0,-4.4087,-4.6888,-4.7247,-4.7878,-4.8179,-4.8206,-4.6952,-4.574,-4.513,-4.5187,-4.419,0.0,0.0,0.0,0.0,0.0,0.0,0.0,0.0,0.0,0.0,0.0,0.0,0.0,0.0,0.0,0.0,0.0,0.0,0.0,0.0,0.0,0.0,0.0,0.0,0.0,0.0,0.0,-3.4293,-3.3073,0.0,0.0,0.0,0.0,0.0,0.0,0.0,0.0,0.0,0.0,0.0,-3.3777,-3.4,0.0,0.0,0.0,0.0,0.0,0.0,0.0,0.0,0.0,0.0,0.0,0.0,-3.1717,-3.3247,-3.4865,-3.6412,-3.789,-3.8082,-3.807,-3.7902,-3.7228,-3.5365,-3.2295,0.0,0.0,0.0,0.0,0.0,0.0,0.0,0.0,0.0,0.0,0.0,0.0,0.0,0.0,0.0,0.0,0.0,0.0,0.0,0.0,0.0,0.0,0.0,0.0,0.0,-2.4893,0.0,0.0,0.0,0.0,0.0,0.0,0.0,0.0,0.0,0.0,0.0,-3.9904,-4.2161,-4.466,-4.6296,-4.6411,-4.6914,-4.6923,0.0,0.0,0.0,0.0,0.0,0.0,0.0,0.0,0.0,0.0,0.0,0.0,0.0,0.0,-3.6033,-3.5211,-3.4001,-3.3275,-3.372,0.0,0.0,0.0,0.0,0.0,0.0,0.0,0.0,0.0,0.0,0.0,0.0,0.0,0.0,0.0,0.0,-3.4576,0.0,0.0,0.0,0.0,0.0,0.0,0.0,0.0,-3.3289,-3.413,-3.4769,-3.5297,-3.5323,0.0,-3.3989,-3.2377,0.0,0.0,0.0,0.0,0.0,0.0,0.0,0.0,-3.1444,-3.2719,-3.4319,-3.5591,-3.6459,-3.647,-3.6351,-3.5995,-3.5062,-3.2922,-2.9518,-2.7843,-2.6417,0.0,0.0,0.0,0.0,0.0,0.0,0.0,0.0,0.0,0.0,0.0,0.0,0.0,0.0,0.0,0.0,0.0,0.0,0.0,0.0,0.0,0.0,0.0,-2.6802,0.0,0.0,0.0,0.0,0.0,0.0,0.0,0.0,0.0,-3.6939,-3.9427,-4.1834,-4.3246,-4.4394,-4.4948,-4.4433,0.0,0.0,0.0,0.0,0.0,0.0,0.0,-4.0566,-4.0095,-3.8858,-3.7859,-3.7518,-3.7047,-3.6718,-3.6577,0.0,0.0,-3.5374,-3.4235,-3.3669,-3.4236,-3.4107,-3.3912,-3.4445,-3.4306,-3.3842,0.0,0.0,0.0,0.0,0.0,0.0,0.0,0.0,-3.7283,-3.728,0.0,-3.5645,0.0,0.0,0.0,0.0,0.0,-3.2028,0.0,0.0,-3.439,-3.5076,-3.5087,-3.5657,-3.5194,-3.3791,-3.2509,-3.1278,-3.0369,-3.0724,0.0,0.0,0.0,0.0,0.0,0.0,-3.0821,-3.1692,-3.3394,-3.4129,-3.3672,-3.3661,-3.32,-3.2274,-3.0489,-2.8814,-2.7401,-2.7253,-2.6451,-2.4804,-2.477,0.0,0.0,0.0,0.0,0.0,0.0,0.0,0.0,0.0,0.0,0.0,0.0,0.0,0.0,0.0,0.0,0.0,0.0,0.0,0.0,-2.7558,0.0,0.0,0.0,0.0,0.0,0.0,0.0,0.0,0.0,0.0,-3.9236,-4.094,-4.2457,-4.3192,0.0,0.0,0.0,0.0,-4.0927,-4.1307,-4.1376,-4.1399,-4.1251,-4.1628,-4.1245,-3.9141,0.0,0.0,-3.675,-3.6499,-3.638,-3.6023,-3.6022,-3.6142,-3.6324,-3.5756,-3.5303,-3.5342,-3.5283,-3.5205,-3.4834,-3.4668,-3.4521,-3.8533,0.0,0.0,0.0,0.0,-3.6916,-3.7489,-3.8161,-3.861,-3.801,-3.6543,-3.5776,0.0,0.0,0.0,0.0,0.0,0.0,-3.1439,-3.3067,-3.2903,-3.3087,-3.3834,-3.4091,-3.3796,-3.2881,-3.1649,-3.1196,-3.1345,-3.1115,-3.0007,-2.8127,0.0,0.0,0.0,0.0,-2.9713,-3.0282,-3.1172,-3.1519,-3.1406,-3.1044,-3.0459,-2.9648,-2.7912,-2.6646,-2.6202,-2.5204,-2.4375,-2.3845,-2.3594,0.0,0.0,0.0,0.0,0.0,0.0,0.0,0.0,0.0,0.0,0.0,0.0,0.0,0.0,0.0,0.0,0.0,0.0,0.0,-2.6967,-2.9471,-3.1052,0.0,0.0,0.0,0.0,0.0,0.0,0.0,0.0,0.0,-3.9126,-4.0967,-4.2168,0.0,0.0,-4.2369,-4.1501,-4.1627,-4.1318,-4.0316,0.0,0.0,0.0,-3.8392,-3.8301,-3.7678,-3.777,-3.7678,-3.7042,-3.6719,-3.6479,-3.636,-3.6189,-3.6016,-3.6122,-3.5808,-3.5517,-3.5742,-3.5615,-3.5371,-3.5234,-3.5195,-3.4961,-3.9237,-3.8729,-3.7786,-3.7673,-3.8178,-3.8491,-3.8936,-3.9489,-3.964,-3.8642,-3.6861,-3.6103,-3.4076,-3.1162,-3.036,0.0,0.0,0.0,-3.1035,-3.255,-3.2092,-3.2145,-3.266,-3.2532,-3.2183,-3.1414,-3.0325,-2.9882,-3.0188,-2.9821,-2.8978,-2.7592,0.0,0.0,-2.7563,-2.8368,-2.9055,-2.947,-2.9659,-2.9799,-2.9809,-2.9027,-2.8153,-2.7308,-2.6021,-2.5213,-2.488,-2.412,-2.3745,-2.3745,-2.3192,-2.2863,0.0,0.0,0.0,0.0,0.0,0.0,0.0,0.0,0.0,0.0,0.0,-2.1926,0.0,0.0,0.0,0.0,-2.4632,-2.7008,-2.929,-3.1309,0.0,0.0,0.0,0.0,0.0,0.0,0.0,-3.5503,-3.7053,-3.8115,-3.8051,-3.9259,-4.0309,-4.0512,-4.0568,-4.0473,-3.9744,0.0,-3.9563,-3.8729,-3.886,-3.8553,-3.7243,-3.7069,-3.7008,-3.6703,-3.639,-3.6236,-3.6405,-3.6147,-3.6071,-3.6219,-3.6142,-3.6025,-3.6025,-3.5684,-3.5527,-3.5918,-3.582,-3.5596,-3.5439,-3.5244,-3.4912,-3.9352,-3.9268,-3.8716,-3.8921,-3.9486,-3.9534,-3.971,-4.0075,-3.9837,-3.8946,-3.7571,-3.6362,-3.4209,-3.1446,-3.0127,0.0,-3.0328,-3.0727,-3.1127,-3.1632,-3.1632,-3.1632,-3.1506,-3.0905,-3.0334,-2.9747,-2.8698,-2.8035,-2.7765,-2.7765,-2.7581,-2.7233,-2.7965,-2.7946,-2.7178,-2.7936,-2.8569,-2.8933,-2.8732,-2.86,-2.8452,-2.716,-2.5998,-2.5093,-2.4524,-2.4016,-2.3352,-2.3692,-2.3866,-2.3693,-2.3032,-2.2625,-2.2628,0.0,0.0,0.0,0.0,0.0,0.0,0.0,0.0,0.0,0.0,0.0,0.0,0.0,0.0,0.0,-2.7732,0.0,-3.1082,-3.2977,0.0,0.0,0.0,-3.4298,-3.4689,-3.5431,-3.5868,-3.544,0.0,0.0,-3.63,0.0,-3.7317,-3.8708,-3.8492,-3.8005,-3.7153,-3.687,-3.6606,-3.7153,-3.7119,-3.7119,-3.6874,-3.6814,-3.6479,-3.5795,-3.5195,-3.4902,-3.5244,-3.5342,-3.5498,-3.5791,-3.5908,-3.5898,-3.5898,-3.5547,-3.5459,-3.5801,-3.5908,-3.582,-3.5391,-3.501,-3.458,-3.7393,-3.6274,-3.6521,-3.7269,-3.8234,-3.8605,-3.8263,-3.7551,-3.6697,-3.6144,-3.5731,-3.4118,-3.2361,-3.0587,-2.959,-2.9631,-3.0316,-2.9713,-2.9935,-3.0606,-3.003,-2.9677,-2.9677,-2.9521,-2.9353,-2.9188,-2.8584,-2.8086,-2.7482,-2.7737,-2.7719,-2.7627,-2.7391,-2.701,-2.6489,-2.6704,-2.6637,-2.6284,-2.6291,-2.5872,-2.5138,-2.4701,-2.4211,-2.356,-2.3158,-2.2617,-2.1834,-2.2175,-2.2019,-2.1079,-2.1147,-2.101,-2.0368,-1.9512,0.0,0.0,0.0,0.0,0.0,0.0,0.0,0.0,0.0,-2.3189,-2.2053,0.0,-2.5235,0.0,-2.8314,-3.0968,-3.2673,-3.3343,0.0,0.0,-3.3517,-3.3084,-3.3,-3.2965,-3.2784,-3.2449,-3.2945,-3.3659,-3.4331,-3.4533,-3.5148,-3.6519,-3.7102,-3.7339,-3.7059,-3.7008,-3.6814,-3.6664,-3.6933,-3.6816,-3.6048,-3.549,-3.5136,-3.4573,-3.4541,-3.4736,-3.4844,-3.4863,-3.4892,-3.499,-3.501,-3.501,-3.5039,-3.4922,-3.4902,-3.501,-3.5293,-3.54,-3.4961,-3.4766,-3.4385,-3.5758,-3.4862,-3.5124,-3.5358,-3.5652,-3.6786,-3.6844,-3.6132,-3.5306,-3.4591,-3.394,-3.1978,-3.0658,-2.9813,-2.9213,-2.9238,-2.9442,-2.9139,-2.934,-2.9677,-2.9037,-2.8718,-2.8718,-2.8526,-2.8376,-2.8159,-2.7989,-2.7627,-2.7103,-2.7224,-2.7212,-2.7142,-2.6162,-2.5455,-2.5107,-2.5656,-2.57,-2.536,-2.4972,-2.4419,-2.3707,-2.3191,-2.278,-2.2441,-2.1805,-2.1227,-2.0494,-2.1118,-2.101,-2.0076,-2.0019,-1.9924,-1.9878,-1.8786,-1.822,0.0,0.0,0.0,0.0,0.0,0.0,0.0,0.0,0.0,0.0,0.0,-2.5788,0.0,-2.8783,-3.0765,-3.2344,-3.2641,-3.2869,-3.3348,-3.2838,-3.244,-3.2245,-3.2123,-3.1914,-3.1487,-3.1789,-3.2245,-3.2666,-3.2779,-3.2986,-3.3661,-3.4171,-3.4919,-3.6334,-3.64,-3.6321,-3.6238,-3.6327,-3.615,-3.5176,-3.4707,-3.4086,-3.3465,-3.3705,-3.406,-3.3583,-3.4023,-3.4482,-3.4658,-3.4697,-3.4435,-3.3888,-3.3595,-3.3538,-3.3586,-3.3254,-3.334,-3.4212,-3.4424,-3.4082,-3.4112,-3.4,-3.3899,-3.3335,-3.2643,-3.4433,-3.5113,-3.4912,-3.4358,-3.3391,-3.1995,-3.0176,-2.9232,-2.8911,-2.8856,-2.8673,-2.8425,-2.8746,-2.8911,-2.8893,-2.8553,-2.837,-2.8297,-2.7939,-2.7591,-2.7381,-2.7085,-2.6764,-2.6427,-2.6154,-2.5958,-2.5795,-2.4563,-2.3731,-2.3324,-2.4203,-2.4708,-2.47,-2.3836,-2.3294,-2.3176,-2.2032,-2.1517,-2.1524,-2.0651,-1.9892,-1.9381,-2.0064,-2.0273,-1.9624,-1.909,-1.9229,-1.9848,-1.8129,-1.743,0.0,-1.7799,0.0,0.0,0.0,0.0,0.0,0.0,0.0,0.0,-2.5354,-2.6166,-2.7698,-2.9081,-3.0307,-3.1041,-3.1442,-3.1899,-3.2088,-3.1852,-3.1589,-3.1418,-3.1388,-3.1296,-3.0977,-3.1212,-3.1288,-3.1268,-3.1226,-3.109,-3.1253,-3.1211,-3.2245,-3.4675,-3.5201,-3.5258,-3.5617,-3.5162,-3.4327,-3.3803,-3.3541,-3.2904,-3.1902,-3.2106,-3.2516,-3.1827,-3.2534,-3.3436,-3.3743,-3.3659,-3.3425,-3.2395,-3.1829,-3.1747,-3.2002,-3.1026,-3.0857,-3.3028,-3.3446,-3.3258,-3.2457,-3.1556,-3.1556,-3.145,-3.1238,-3.1366,-3.1613,-3.181,-3.1482,-3.0701,-2.9645,-2.8901,-2.8572,-2.848,-2.815,-2.8141,-2.8397,-2.8471,-2.8507,-2.8507,-2.8425,-2.8214,-2.7893,-2.7801,-2.7869,-2.7928,-2.6424,-2.5613,-2.5276,-2.3979,-2.3311,-2.3143,-2.2168,-2.178,-2.2037,0.0,0.0,0.0,-2.1103,-2.0996,-2.1153,-2.0765,-2.0493,-2.0472,-1.9773,0.0,-1.8262,-1.8836,-1.8674,-1.7696,-1.7892,0.0,0.0,0.0,0.0,0.0,0.0,0.0,0.0,0.0,0.0,0.0,-2.3252,-2.3935,-2.5012,-2.6624,-2.8027,-2.9103,-2.9754,-3.0204,-3.054,-3.0583,-3.0403,-2.9944,-2.9547,-2.9186,-2.8435,-2.8197,-2.7901,-2.7848,-2.7885,-2.8472,-2.9512,-2.9663,-3.005,-3.0882,-3.0866,-3.0943,-3.1806,-3.2884,-3.3601,-3.3511,-3.2503,-3.1193,-3.0355,-3.0345,-3.0204,-2.9396,-2.9648,-2.9917,-2.9883,-3.0014,-3.0144,-3.0398,-3.0259,-3.025,-2.9856,-2.9796,-2.9761,-2.9848,-2.9533,-2.9979,-3.1882,-3.1411,-3.039,-3.1242,0.0,-3.0898,-3.0762,0.0,-3.0287,-3.0083,-2.9912,-2.9194,-2.8,-2.6675,-2.7087,-2.7142,-2.6964,-2.6946,-2.6946,-2.6858,-2.6563,-2.6291,-2.6399,-2.6698,-2.6505,-2.5715,-2.6118,-2.6048,-2.5596,-2.4704,-2.4006,-2.3739,-2.2901,-2.2258,-2.1805,-2.0902,-2.0498,-2.0448,-1.9619,-1.9486,-2.027,-2.027,-2.0417,-2.0676,-1.9952,-1.9564,-1.9543,0.0,0.0,0.0,0.0,0.0,0.0,0.0,0.0,0.0,0.0,0.0,-1.7485,-1.7853,-1.8137,-1.8281,-1.9374,-2.0503,-2.1443,-2.2261,-2.3346,-2.5142,-2.6517,-2.7301,-2.781,-2.8122,-2.8142,-2.8329,-2.8228,-2.8,-2.7683,-2.7466,-2.7236,-2.6813,-2.661,-2.6508,-2.6508,-2.6508,-2.6786,-2.7476,-2.7618,-2.7817,-2.8348,-2.8178,-2.8349,-2.9038,-3.0537,-3.1612,-3.1469,-3.0789,-2.9915,-2.9384,-2.9248,-2.8812,-2.8252,-2.8597,-2.8838,-2.8328,-2.8572,-2.8974,-2.8965,-2.8837,-2.8571,-2.7798,-2.7668,-2.766,-2.7693,-2.7295,-2.7376,-2.8904,-2.9273,-2.9376,-3.0344,-3.0518,-3.0762,-3.047,-2.9887,-2.9545,-2.8607,-2.7544,0.0,0.0,0.0,-2.5219,-2.5379,-2.5116,-2.5345,-2.532,-2.5011,-2.4366,-2.4138,-2.4122,-2.4778,-2.4489,-2.3502,-2.4124,-2.4024,-2.3062,-2.2772,-2.2539,-2.223,-2.1957,-2.1351,-2.0558,-1.9774,-1.9212,-1.897,-1.8163,-1.8519,-1.97,-1.9809,-1.9945,-2.0212,-1.9252,-1.8667,-1.8816,-1.7917,-1.7231,-1.6869,-1.7455,-1.763,-1.7267,-1.7642,-1.7774,-1.7575,-1.7756,-1.7871,-1.7895,-1.8336,-1.8656,-1.8758,-1.9474,-2.0031,-2.0166,-2.0971,-2.2645,-2.5048,-2.5435,-2.5719,-2.5869,-2.5982,-2.6003,-2.5873,-2.582,-2.5871,-2.5922,-2.593,-2.5952,-2.6018,-2.6018,-2.6047,-2.6018,-2.6047,-2.6018,-2.6039,-2.6047,-2.59,-2.5622,-2.5847,-2.5677,-2.676,-2.8451,-2.9622,-2.9622,-2.9219,-2.8768,-2.8577,-2.8337,-2.8081,-2.7012,-2.7676,-2.7924,-2.7166,-2.7475,-2.7919,-2.7706,-2.7696,-2.7054,-2.612,-2.5903,-2.5856,-2.5856,-2.5183,-2.4773,-2.5662,-2.6979,-2.7914,-2.9853,-2.9285,-3.0138,-2.9578,-2.8173,-2.7633,-2.5578,-2.296,-2.5111,-2.5452,-2.421,-2.4029,-2.3884,-2.3819,-2.3577,-2.3594,-2.3827,-2.3769,-2.3677,0.0,-2.3852,-2.356,-2.3054,-2.3223,-2.336,-2.3371,-2.185,-2.1169,-2.1278,-1.9569,-1.8538,-1.8421,-1.8064,-1.7855,-1.7768,-1.7651,-1.7639,-1.7948,-1.783,-1.8078,-1.8338,-1.7848,-1.7823,-1.8019,-1.7499,-1.7225,-1.737,-1.7485,-1.7612,-1.7756,-1.7829,-1.7853,-1.7823,-1.7853,-1.7871,-1.7889,-1.8173,-1.8547,-1.8976,-1.8606,-1.8679,-1.9293,-2.0367,-2.1707,-2.3562,-2.376,-2.4203,-2.5059,-2.5246,-2.5261,-2.5268,-2.5183,-2.5337,-2.5557,-2.56,-2.5703,-2.5944,-2.5981,-2.5974,-2.5966,-2.6018,-2.5996,-2.5959,-2.5974,-2.5835,-2.5593,-2.5432,-2.5525,-2.5711,-2.6788,-2.7924,-2.7948,-2.7005,-2.6057,-2.6064,-2.5719,-2.5854,-2.545,-2.5704,-2.5859,-2.5233,-2.534,-2.5443,-2.4962,-2.4956,-2.4796,-2.4416,-2.4468,-2.4372,-2.4478,-2.4157,-2.4106,-2.4157,-2.4471,-2.4615,-2.775,-2.7656,-2.8226,-2.7855,-2.6641,-2.5528,-2.3781,-2.1647,-2.2797,-2.2759,-2.17,-2.2138,-2.2299,-2.2284,-2.2146,-2.2154,-2.2307,-2.1617,-2.1278,-2.1386,-2.1955,-2.188,-2.1189,-2.1737,-2.182,-2.1256,-2.0204,-1.9747,-1.9629,-1.8485,-1.7849,-1.7726,-1.7596,-1.7485,-1.7485,-1.7485,-1.7485,-1.7485,-1.7485,-1.7539,-1.7654,-1.7545,-1.7545,-1.7654,-1.7418,-1.7358,-1.7479,-1.7618,-1.775,-1.7865,-1.8022,-1.8034,-1.7889,-1.7871,-1.7811,-1.7684,-1.7919,-1.8167,-1.8402,-1.7805,-1.7434,-1.7433,-1.7903,-1.882,-2.0593,-2.2134,-2.3236,-2.3795,-2.4631,-2.5059,-2.5059,-2.5059,-2.5118,-2.5257,-2.5271,-2.5337,-2.5461,-2.5498,-2.5491,-2.5498,-2.5498,-2.5498,-2.5498,-2.5498,-2.5374,-2.5081,-2.5015,-2.5001,-2.5044,-2.5704,-2.6344,-2.6201,-2.5665,-2.5349,-2.5081,-2.5059,-2.5059,-2.5059,-2.4905,-2.4752,-2.4554,-2.4335,-2.4013,-2.3837,-2.3691,-2.3567,-2.3552,-2.3391,-2.3318,-2.3296,-2.3288,-2.3164,-2.2923,-2.2828,-2.2937,-2.5971,-2.6118,-2.6584,-2.5994,-2.4714,-2.3549,-2.2192,-2.0845,-2.0845,-2.027,-1.9597,-2.0385,-2.0838,-2.0838,-2.0838,-2.0838,-2.0608,-1.9822,-1.9366,-1.9482,-2.0385,-2.027,-1.9597,-2.0385,-2.027,-1.9475,-1.9004,-1.8655,-1.8421,-1.8077,-1.7732,-1.7485,-1.7485,-1.7485,-1.7485,-1.7485,-1.7485,-1.7485,-1.7485,-1.7485,-1.7485,-1.7485,-1.7485,-1.7485,-1.7479,-1.7485,-1.7491,-1.7678,-1.7787,-1.7793,-1.7992,-1.8016,-1.7805,-1.7787,-1.7696,-1.7521,-1.7672,-1.7721,-1.7508,-1.7009,-1.647,-1.58,-1.5715,-1.6353,-1.7796,-2.0161,-2.2004,-2.2786,-2.3453,-2.3996,-2.4338,-2.4217,-2.4217,-2.4495,-2.4631,-2.466,-2.5059,-2.5059,-2.5059,-2.5059,-2.5059,-2.5074,-2.5052,-2.4993,-2.4869,-2.4664,-2.4569,-2.4693,-2.4979,-2.5059,-2.503,-2.4898,-2.4949,-2.5066,-2.5059,-2.5059,-2.5059,-2.5052,-2.4788,-2.4583,-2.4401,-2.3962,-2.3468,-2.3381,-2.3051,-2.2892,-2.2776,-2.2595,-2.2429,-2.2385,-2.2227,-2.2219,-2.1958,-2.1561,-2.1723,-2.5377,-2.4932,-2.5723,-2.465,-2.258,-2.172,-2.0752,-1.9713,-1.9591,-1.9482,-1.9482,-1.9482,-1.9591,-1.9597,-1.9597,-1.9591,-1.9597,-1.9482,-1.9366,-1.9366,-1.9482,-1.9482,-1.9366,-1.9597,-1.9482,-1.9366,-1.8771,-1.8532,-1.8415,-1.7837,-1.7608,-1.7485,-1.7485,-1.7485,-1.7485,-1.7485,-1.7485,-1.7485,-1.7485,-1.7485,-1.7485,-1.7485,-1.7485,-1.7485,-1.7479,-1.7485,-1.7467,-1.7503,-1.7521,-1.7521,-1.7551,-1.7551,-1.7527,-1.7521,-1.7509,-1.7485,-1.7509,-1.7238,-1.6489,-1.6217,-1.5813,-1.5386,-1.5309,-1.5408,-1.6011,-1.737,-1.9569,-2.1797,-2.1473,-2.1603,-2.2649,-2.1984,-2.1984,-2.3099,-2.3243,-2.3515,-2.4774,-2.5059,-2.5059,-2.5059,-2.5059,-2.5059,-2.5037,-2.4803,-2.4605,-2.4532,-2.4459,-2.4547,-2.4825,-2.4898,-2.4708,-2.4423,-2.4627,-2.4942,-2.4957,-2.5044,-2.4942,-2.4957,-2.4759,-2.4437,-2.3992,-2.3572,-2.3141,-2.2777,-2.2537,-2.2284,-2.1976,-2.1772,-2.1666,-2.1576,-2.1357,-2.1124,-2.0837,-2.0013,-1.9861,-2.3231,-2.2921,-2.3488,-2.2871,-2.1346,-2.0452,-1.9822,-1.9482,-1.9366,-1.9822,-2.027,-1.9707,-1.9366,-1.9366,-1.9366,-1.9366,-1.9366,-1.9366,-1.9366,-1.9366,-1.9366,-1.9366,-1.9366,-1.9366,-1.9366,-1.9366,-1.8887,-1.8642,-1.8648,-1.8071,-1.7849,-1.7732,-1.7608,-1.7485,-1.7485,-1.7485,-1.7485,-1.7485,-1.7485,-1.7406,-1.7267,-1.7249,-1.7177,-1.7056,-1.7171,-1.7249,-1.7267,-1.7394,-1.7485,-1.7485,-1.7485,-1.7485,-1.7485,-1.7485,-1.7485,-1.7485,-1.7132,-1.6515,-1.5773,-1.5605,-1.5525,-1.5196,-1.5233,-1.5328,-1.5526,-1.5976,-1.762,-2.0331,-2.0589,-2.0953,-2.2288,-2.216,-2.2121,-2.2819,-2.3659,-2.436,-2.4916,-2.5059,-2.5059,-2.5059,-2.5059,-2.5059,-2.4979,-2.4598,-2.4313,-2.4254,-2.4145,-2.4123,-2.4203,-2.4196,-2.3998,-2.3662,-2.3757,-2.3969,-2.4152,-2.4188,-2.4276,-2.4371,-2.408,-2.3652,-2.3415,-2.3014,-2.2497,-2.2237,-2.209,-2.193,-2.1985,-2.1579,-2.132,-2.0884,-1.9959,-1.9279,-1.8444,-1.7867,-1.8096,-2.1701,-2.1737,-2.1838,-2.1313,-2.06,-1.9726,-1.9366,-1.9366,-1.9366,-2.0046,-2.106,-2.027,-1.9979,-1.9918,-1.9638,-1.9366,-1.9366,-1.9366,-1.9366,-1.9366,-1.9366,-1.9243,-1.9243,-1.9127,-1.9127,-1.9243,-1.8887,-1.8765,-1.8655,-1.8194,-1.7972,-1.7849,-1.7602,-1.7485,-1.7485,-1.7485,-1.7485,-1.7485,-1.7485,-1.7358,-1.7135,-1.7092,-1.6972,-1.6748,-1.6887,-1.6984,-1.699,-1.7171,-1.7267,-1.7261,-1.7267,-1.7304,-1.7376,-1.7376,-1.7289,-1.7126,-1.6487,-1.5833,-1.5201,-1.5202,-1.5096,-1.5007,-1.5111,-1.5215,-1.5323,-1.5243,-1.6532,-1.9184,-1.9578,-2.0154,-2.213,-2.2166,-2.2173,-2.2799,-2.3931,-2.4631,-2.5059,-2.5059,-2.5059,-2.5059,-2.5059,-2.4971,-2.4788,-2.4459,-2.421,-2.3976,-2.3837,-2.3727,-2.3577,-2.3428,-2.2964,-2.2548,-2.2295,-2.2527,-2.3228,-2.3388,-2.3476,-2.3505,-2.317,-2.2708,-2.2546,-2.1916,-2.1179,-2.0697,-2.1166,-2.1054,-2.0572,-2.0494,-1.9967,-1.9561,-1.857,-1.7473,-1.6767,-1.6138,-1.602,-2.1701,-2.1686,-2.1106,-2.0746,-2.0239,-1.9719,-1.9366,-1.9366,-1.9482,-2.0162,-2.1174,-2.1174,-2.1227,-2.146,-2.0287,-1.9488,-1.9488,-1.9488,-1.9482,-1.9475,-1.912,-1.8881,-1.8881,-1.8655,-1.8655,-1.8881,-1.8655,-1.8421,-1.8083,-1.8089,-1.7849,-1.7485,-1.7485,-1.7485,-1.7485,-1.7485,-1.7485,-1.7485,-1.7485,-1.7358,-1.7123,-1.7092,-1.6966,-1.6712,-1.6718,-1.6736,-1.6724,-1.673,-1.6754,-1.6748,-1.6773,-1.6863,-1.7074,-1.7117,-1.6884,-1.652,-1.567,-1.508,-1.4921,-1.4746,-1.4624,-1.4695,-1.487,-1.4959,-1.5016,-1.4997,-1.615,-1.884,-1.8342,-1.9037,-2.1864,-2.1462,-2.1337,-2.2642,-2.2963,-2.3788,-2.4916,-2.5059,-2.5059,-2.5059,-2.5059,-2.4713,-2.4284,-2.4386,-2.4043,-2.3609,-2.3723,-2.3688,-2.3164,-2.2507,-2.1484,-2.0873,-2.0468,-2.0672,-2.2448,-2.274,-2.2659,-2.2606,-2.2199,-2.1602,-2.1088,-2.0494,-1.9651,-1.9187,-1.9119,-1.9013,-1.8732,-1.8261,-1.7647,-1.7068,-1.6431,-1.5564,-1.509,-1.4614,-1.4475,-2.3286,-2.3067,-2.2596,-2.191,-2.1104,-2.0766,-2.0162,-1.9482,-2.0277,-2.1174,-2.2191,-2.2297,-2.2938,-2.3934,-2.2451,-2.1406,-2.0762,-1.9911,-1.97,-2.0019,-1.9332,-1.8765,-1.8538,-1.8421,-1.8532,-1.8881,-1.8765,-1.8648,-1.8538,-1.8421,-1.8077,-1.7843,-1.7602,-1.7485,-1.7485,-1.7485,-1.7485,-1.7485,-1.7485,-1.7358,-1.7123,-1.7092,-1.6881,-1.6471,-1.661,-1.661,-1.6435,-1.6604,-1.67,-1.67,-1.67,-1.6742,-1.6845,-1.6653,-1.6158,-1.5316,-1.4944,-1.458,-1.4382,-1.439,-1.4492,-1.4633,-1.4818,-1.4936,-1.4936,-1.4931,-1.6089,-1.8185,-1.8889,-2.0123,-2.2427,-2.2271,-2.1829,-2.2759,-2.3659,-2.4353,-2.4916,-2.5059,-2.5059,-2.5059,-2.5052,-2.4593,-2.328,-2.2974,-2.2352,-2.1195,-2.0799,-2.0702,-2.0253,-1.9599,-1.913,-1.8404,-1.804,-1.8082,-1.8526,-2.0609,-2.1378,-2.1289,-2.091,-2.013,-1.9415,-1.8398,-1.7432,-1.7337,-1.7258,-1.7258,-1.723,-1.6931,-1.6128,-1.496,-1.4351,-1.3931,-1.332,-1.3113,-1.2953,-2.4206,-2.388,-2.3656,-2.3087,-2.2176,-2.1851,-2.1288,-2.0723,-2.1402,-2.2418,-2.3424,-2.3536,-2.4303,-2.4998,-2.4157,-2.3051,-2.2049,-2.0512,-1.991,-2.0005,-1.9107,-1.8538,-1.8311,-1.8188,-1.8298,-1.8538,-1.8648,-1.8765,-1.8765,-1.8421,-1.8077,-1.7849,-1.7602,-1.7485,-1.7485,-1.7485,-1.7485,-1.7485,-1.7485,-1.7394,-1.7225,-1.7129,-1.6881,-1.6501,-1.6513,-1.6435,-1.6169,-1.6338,-1.6435,-1.6435,-1.6435,-1.6513,-1.6582,-1.6143,-1.5571,-1.4955,-1.4515,-1.4221,-1.4037,-1.4156,-1.4374,-1.4525,-1.4775,-1.4936,-1.4936,-1.4936,-1.6213,-1.8308,-1.9187,-2.0605,-2.3074,-2.3335,-2.3082,-2.3426,-2.4074,-2.4353,-2.436,-2.3938,-2.3652,-2.3515,-2.3243,-2.2686,-2.1758,-2.1277,-2.051,-1.9178,-1.8924,-1.8559,-1.8157,-1.7559,-1.7024,-1.6563,-1.623,-1.6094,-1.6386,-1.7817,-1.8728,-1.8702,-1.8759,-1.8143,-1.7549,-1.6447,-1.5734,-1.5648,-1.5658,-1.5664,-1.5591,-1.5444,-1.4535,-1.3374,-1.2863,-1.2529,-1.2119,-1.1802,-1.1858,-2.4411,-2.4103,-2.388,-2.376,-2.3424,-2.3087,-2.2974,-2.2749,-2.2974,-2.3648,-2.4556,-2.4778,-2.4992,-2.5198,-2.4838,-2.4182,-2.3043,-2.1413,-2.012,-1.9216,-1.8428,-1.8089,-1.7972,-1.7719,-1.7726,-1.8083,-1.8311,-1.8415,-1.8421,-1.82,-1.7849,-1.7602,-1.7485,-1.7485,-1.7485,-1.7485,-1.7485,-1.7485,-1.7485,-1.7473,-1.7449,-1.7219,-1.6954,-1.6676,-1.6447,-1.6193,-1.5928,-1.5928,-1.5964,-1.594,-1.594,-1.6157,-1.631,-1.5674,-1.5332,-1.5192,-1.4406,-1.3813,-1.374,-1.4071,-1.4284,-1.4392,-1.469,-1.4907,-1.4926,-1.4936,-1.5959,-1.8139,-1.8974,-2.0316,-2.3025,-2.3615,-2.3873,-2.4793,-2.3931,-2.3092,-2.2682,-2.1571,-2.0737,-2.0882,-2.0737,-2.0077,-1.9615,-1.9356,-1.8823,-1.8217,-1.7967,-1.7648,-1.7299,-1.6379,-1.564,-1.5403,-1.4972,-1.4498,-1.4774,-1.5176,-1.5638,-1.5899,-1.6045,-1.5823,-1.5627,-1.4806,-1.4149,-1.3939,-1.4008,-1.4004,-1.388,-1.3756,-1.3195,-1.2212,-1.1845,-1.1533,-1.1462,-1.1378,-1.1309,-2.61,-2.5798,-2.5798,-2.5229,-2.4437,-2.4326,-2.3768,-2.3199,-2.388,-2.4445,-2.4898,-2.5688,-2.6242,-2.6207,-2.5404,-2.4294,-2.3443,-2.1643,-2.0458,-1.9897,-1.8648,-1.7978,-1.7972,-1.7602,-1.7726,-1.7966,-1.8305,-1.8311,-1.8083,-1.8083,-1.7843,-1.7602,-1.7485,-1.7485,-1.7485,-1.7485,-1.7485,-1.7485,-1.7485,-1.7485,-1.7461,-1.7225,-1.6966,-1.6706,-1.6429,-1.6157,-1.5916,-1.5885,-1.5885,-1.5885,-1.5891,-1.5802,-1.5373,-1.4866,-1.4397,-1.4252,-1.3928,-1.3688,-1.3721,-1.3944,-1.417,-1.4322,-1.4577,-1.478,-1.4907,-1.4936,-1.5704,-1.7383,-1.79,-1.8935,-2.0687,-2.134,-2.2539,-2.4865,-2.3788,-2.2539,-2.2258,-2.1296,-2.0599,-2.0184,-2.0051,-1.945,-1.8256,-1.7739,-1.7052,-1.6137,-1.5721,-1.55,-1.5049,-1.4725,-1.3851,-1.3602,-1.33,-1.326,-1.3495,-1.3596,-1.3686,-1.4191,-1.4157,-1.4267,-1.4033,-1.3679,-1.2893,-1.263,-1.2577,-1.2495,-1.2377,-1.2151,-1.1849,-1.1687,-1.1364,-1.1331,-1.122,-1.1179,-1.111,-2.6899,-2.6591,-2.6691,-2.6245,-2.545,-2.5459,-2.5008,-2.4445,-2.5128,-2.5459,-2.5688,-2.6254,-2.671,-2.6756,-2.5896,-2.4692,-2.3374,-2.1904,-2.0909,-2.0134,-1.8765,-1.7972,-1.7972,-1.7608,-1.7726,-1.7966,-1.8071,-1.8077,-1.7966,-1.7849,-1.7719,-1.7485,-1.7485,-1.7485,-1.7485,-1.7485,-1.7485,-1.7485,-1.7485,-1.7485,-1.743,-1.7225,-1.6966,-1.6706,-1.6429,-1.6157,-1.5916,-1.5885,-1.5885,-1.591,-1.5755,-1.5476,-1.5079,-1.4635,-1.4167,-1.3989,-1.3923,-1.3923,-1.4301,-1.4139,-1.4578,-1.5401,-1.5008,-1.4971,-1.5394,-1.5318,-1.5574,-1.6748,-1.7228,-1.7988,-1.9495,-1.9947,-2.1173,-2.3072,-2.1996,-2.0888,-2.019,-1.935,-1.8525,-1.811,-1.783,-1.7409,-1.653,-1.5915,-1.5537,-1.4522,-1.4117,-1.3878,-1.3553,-1.3382,-1.2939,-1.2783,-1.2789,-1.2615,-1.2295,-1.2139,-1.1987,-1.2289,-1.2728,-1.2844,-1.2844,-1.2603,-1.203,-1.203,-1.1963,-1.1867,-1.1753,-1.1471,-1.1257,-1.1114,-1.109,-1.1001,-1.0948,-1.0968,-1.0923,-2.7008,-2.6691,-2.689,-2.6781,-2.6473,-2.6473,-2.6364,-2.6473,-2.6473,-2.6473,-2.6582,-2.6582,-2.6591,-2.6609,-2.6254,-2.5026,-2.3199,-2.241,-2.1152,-1.9693,-1.8551,-1.7972,-1.7849,-1.7608,-1.7602,-1.7849,-1.7726,-1.7726,-1.7855,-1.7719,-1.7485,-1.7485,-1.7596,-1.7602,-1.7713,-1.7596,-1.783,-1.7948,-1.783,-1.783,-1.7812,-1.7456,-1.7104,-1.6855,-1.6557,-1.6175,-1.5887,-1.5702,-1.5672,-1.5815,-1.5384,-1.5199,-1.5321,-1.4641,-1.4207,-1.4381,-1.4043,-1.4515,-1.5028,-1.5088,-1.5304,-1.7111,-1.5877,-1.5218,-1.6167,-1.5574,-1.5318,-1.6467,-1.6742,-1.744,-1.8858,-1.9299,-1.9675,-1.9951,-1.9362,-1.8115,-1.6023,-1.5881,-1.5863,-1.5429,-1.4742,-1.4457,-1.4707,-1.4257,-1.4098,-1.392,-1.3669,-1.346,-1.3366,-1.3177,-1.2881,-1.2739,-1.2596,-1.2422,-1.2215,-1.1983,-1.1845,-1.1922,-1.213,-1.213,-1.2225,-1.1852,-1.165,-1.1541,-1.1435,-1.135,-1.1216,-1.1037,-1.0948,-1.094,-1.0863,-1.0729,-1.0724,-1.0785,-1.0806,-2.6691,-2.6591,-2.6691,-2.6691,-2.6591,-2.6591,-2.6573,-2.6582,-2.6573,-2.6554,-2.6582,-2.6591,-2.6591,-2.6473,-2.5688,-2.4445,-2.3087,-2.207,-2.0831,-1.9475,-1.8655,-1.8071,-1.7719,-1.7602,-1.7485,-1.7602,-1.7602,-1.7608,-1.7608,-1.7602,-1.7485,-1.7479,-1.8181,-1.8525,-1.8642,-1.9107,-1.957,-1.957,-1.9577,-1.9461,-1.9305,-1.8499,-1.809,-1.7981,-1.6864,-1.6047,-1.5505,-1.4911,-1.4821,-1.5177,-1.4573,-1.4246,-1.4453,-1.4093,-1.397,-1.4138,-1.4748,-1.5219,-1.5618,-1.627,-1.6878,-1.6623,-1.6249,-1.5977,-1.5424,-1.5187,-1.5062,-1.5443,-1.5448,-1.5813,-1.6333,-1.6659,-1.6813,-1.6902,-1.7383,-1.7102,-1.5867,-1.5323,-1.4995,-1.4582,-1.4267,-1.4127,-1.397,-1.3764,-1.3591,-1.362,-1.3437,-1.3185,-1.3149,-1.2999,-1.2791,-1.2718,-1.2592,-1.2434,-1.2239,-1.1991,-1.1837,-1.1792,-1.1893,-1.1893,-1.184,-1.1778,-1.1508,-1.1346,-1.1232,-1.1143,-1.0964,-1.0781,-1.0765,-1.0802,-1.0757,-1.0692,-1.0692,-1.0729,-1.0733,-2.6591,-2.6573,-2.6399,-2.6325,-2.6298,-2.6151,-2.6078,-2.6114,-2.6261,-2.6316,-2.6362,-2.6527,-2.6582,-2.6473,-2.5907,-2.4565,-2.3087,-2.2305,-2.1067,-1.9482,-1.8655,-1.8064,-1.7596,-1.7485,-1.7485,-1.7485,-1.7485,-1.7485,-1.7485,-1.7485,-1.7719,-1.8181,-1.8648,-1.9107,-1.9455,-1.9924,-2.027,-2.027,-2.027,-2.027,-2.0249,-1.9185,-1.8441,-1.7944,-1.6758,-1.5719,-1.4948,-1.4326,-1.4174,-1.4413,-1.416,-1.3863,-1.3903,-1.3815,-1.3913,-1.4396,-1.5219,-1.5806,-1.6318,-1.6856,-1.7104,-1.687,-1.6495,-1.5982,-1.5649,-1.5318,-1.4936,-1.4931,-1.4936,-1.5035,-1.5215,-1.5292,-1.528,-1.5393,-1.5817,-1.5798,-1.5039,-1.4697,-1.4339,-1.3968,-1.38,-1.38,-1.353,-1.3429,-1.3437,-1.3449,-1.3299,-1.3161,-1.308,-1.2877,-1.2731,-1.267,-1.2503,-1.2304,-1.2194,-1.1991,-1.1829,-1.1784,-1.1776,-1.1776,-1.1711,-1.1618,-1.1439,-1.1265,-1.109,-1.0923,-1.0785,-1.0692,-1.0708,-1.0724,-1.0696,-1.0692,-1.0692,-1.0692,-1.0692,-2.6573,-2.649,-2.6114,-2.6037,-2.5858,-2.5527,-2.5463,-2.5463,-2.5757,-2.5903,-2.5958,-2.6289,-2.6334,-2.6463,-2.6173,-2.5261,-2.3247,-2.2942,-2.1288,-1.9693,-1.8655,-1.8071,-1.7596,-1.7485,-1.7485,-1.7485,-1.7485,-1.7719,-1.7837,-1.7837,-1.8181,-1.8874,-1.9223,-1.9686,-2.0378,-2.0615,-2.0615,-2.0608,-2.0608,-2.05,-2.0155,-1.9299,-1.8494,-1.7594,-1.6194,-1.5166,-1.4371,-1.3778,-1.3704,-1.4044,-1.3897,-1.3779,-1.3859,-1.3731,-1.4252,-1.5219,-1.5569,-1.6042,-1.7026,-1.6771,-1.6647,-1.7251,-1.5903,-1.5233,-1.6038,-1.5443,-1.48,-1.48,-1.48,-1.4767,-1.4944,-1.5004,-1.4905,-1.4653,-1.4285,-1.4126,-1.406,-1.4005,-1.3779,-1.3481,-1.3344,-1.3344,-1.334,-1.3323,-1.3303,-1.321,-1.3059,-1.2921,-1.282,-1.2661,-1.2617,-1.2649,-1.2422,-1.2142,-1.2065,-1.1987,-1.1866,-1.1776,-1.1776,-1.1764,-1.1711,-1.1602,-1.1419,-1.1236,-1.1025,-1.0867,-1.0741,-1.0692,-1.0692,-1.0692,-1.0692,-1.0692,-1.0692,-1.0692,-1.0692,-2.6399,-2.6078,-2.5986,-2.5784,-2.5509,-2.5408,-2.5353,-2.5344,-2.5445,-2.55,-2.5518,-2.561,-2.5665,-2.5674,-2.5986,-2.5317,-2.3846,-2.3055,-2.1388,-1.8881,-1.8538,-1.8064,-1.7596,-1.7602,-1.7602,-1.7602,-1.7485,-1.7954,-1.8667,-1.8771,-1.9113,-1.9917,-2.0479,-2.1159,-2.1281,-2.1752,-2.1979,-2.1517,-2.1281,-2.0838,-2.0155,-1.9339,-1.848,-1.7536,-1.571,-1.4557,-1.402,-1.3429,-1.3315,-1.3344,-1.3499,-1.3543,-1.3586,-1.366,-1.4267,-1.5219,-1.5688,-1.6161,-1.705,-1.7355,-1.7305,-1.6538,-1.6366,-1.6157,-1.5298,-1.4926,-1.4539,-1.4403,-1.4277,-1.4231,-1.441,-1.4343,-1.4332,-1.4023,-1.3819,-1.3578,-1.3485,-1.3435,-1.3415,-1.3193,-1.3157,-1.3153,-1.3149,-1.3027,-1.2982,-1.2938,-1.2812,-1.2641,-1.2536,-1.2442,-1.2462,-1.2511,-1.2276,-1.202,-1.2028,-1.1959,-1.1849,-1.1776,-1.1776,-1.1772,-1.1719,-1.1541,-1.1342,-1.1139,-1.094,-1.0806,-1.07,-1.0692,-1.0692,-1.0692,-1.0692,-1.0692,-1.0692,-1.0692,-1.0692,-2.5885,-2.5665,-2.5482,-2.5289,-2.5087,-2.4886,-2.4794,-2.484,-2.5023,-2.5096,-2.5133,-2.5262,-2.5372,-2.5408,-2.5766,-2.5308,-2.4056,-2.256,-2.058,-1.8758,-1.8532,-1.8642,-1.8415,-1.8532,-1.8642,-1.8292,-1.8642,-1.9236,-1.9584,-1.97,-2.0033,-2.0831,-2.1395,-2.1737,-2.2085,-2.2312,-2.1964,-2.1509,-2.1174,-2.0723,-2.027,-1.9345,-1.7965,-1.671,-1.494,-1.3746,-1.3536,-1.3399,-1.3206,-1.3268,-1.3405,-1.3476,-1.3438,-1.357,-1.4381,-1.5337,-1.5569,-1.5806,-1.6493,-1.684,-1.6508,-1.5416,-1.562,-1.5431,-1.5024,-1.4539,-1.4403,-1.4272,-1.4159,-1.3954,-1.3867,-1.3806,-1.375,-1.3566,-1.3356,-1.3249,-1.299,-1.3063,-1.3092,-1.2999,-1.2974,-1.2974,-1.2921,-1.2808,-1.2726,-1.2714,-1.2592,-1.243,-1.2385,-1.2308,-1.2292,-1.2259,-1.206,-1.1935,-1.1975,-1.1926,-1.1817,-1.1776,-1.1776,-1.1776,-1.1756,-1.1508,-1.124,-1.1082,-1.0948,-1.0781,-1.0692,-1.0692,-1.0692,-1.0692,-1.0692,-1.0692,-1.0692,-1.0692,-1.0692,-2.5335,-2.5252,-2.4922,-2.4748,-2.4638,-2.4326,-2.4207,-2.4244,-2.4528,-2.4684,-2.4739,-2.506,-2.5069,-2.5252,-2.5427,-2.4898,-2.3593,-2.1984,-2.0127,-1.8997,-1.9332,-1.9339,-1.9339,-1.9788,-2.0019,-1.9448,-1.9802,-2.0277,-2.0644,-2.0622,-2.0831,-2.1502,-2.1616,-2.1737,-2.2214,-2.1858,-2.1167,-2.0823,-2.0371,-1.9924,-1.9577,-1.8874,-1.7481,-1.5737,-1.4519,-1.3625,-1.3403,-1.3348,-1.3433,-1.3447,-1.3599,-1.358,-1.3532,-1.3694,-1.4277,-1.5456,-1.5337,-1.5332,-1.5612,-1.568,-1.5182,-1.427,-1.4459,-1.4666,-1.4683,-1.4474,-1.4232,-1.4132,-1.3892,-1.3541,-1.3424,-1.3348,-1.3199,-1.3128,-1.2921,-1.2852,-1.2836,-1.2836,-1.2865,-1.2856,-1.282,-1.2791,-1.2739,-1.2645,-1.2564,-1.2471,-1.2345,-1.2243,-1.2194,-1.2154,-1.2117,-1.2089,-1.1918,-1.1853,-1.189,-1.1898,-1.1788,-1.1776,-1.1776,-1.1776,-1.176,-1.1549,-1.1313,-1.1143,-1.0992,-1.0814,-1.0696,-1.0692,-1.0692,-1.0692,-1.0692,-1.0692,-1.0692,-1.0692,-1.0692,-2.517,-2.4867,-2.4812,-2.4583,-2.4271,-2.418,-2.4161,-2.4161,-2.4253,-2.4262,-2.429,-2.4345,-2.4418,-2.4372,-2.4105,-2.3503,-2.2752,-2.1699,-2.0931,-2.0148,-2.0371,-2.0256,-2.0256,-2.0809,-2.1031,-2.0938,-2.0838,-2.1111,-2.1949,-2.1911,-2.1395,-2.1616,-2.1502,-2.1517,-2.0952,-2.0493,-2.0141,-1.9795,-1.9339,-1.8881,-1.8292,-1.7818,-1.7226,-1.5617,-1.478,-1.4163,-1.3689,-1.3599,-1.3641,-1.3641,-1.367,-1.3665,-1.3636,-1.3665,-1.4277,-1.4986,-1.4634,-1.4515,-1.5131,-1.4706,-1.4358,-1.4099,-1.4251,-1.4463,-1.4501,-1.4189,-1.4007,-1.3849,-1.349,-1.2984,-1.3005,-1.2988,-1.2852,-1.2873,-1.2873,-1.2828,-1.2824,-1.2812,-1.2791,-1.2755,-1.2682,-1.2605,-1.2552,-1.2471,-1.2353,-1.2259,-1.215,-1.204,-1.1963,-1.1922,-1.1886,-1.1857,-1.1817,-1.1797,-1.1805,-1.1809,-1.1776,-1.1776,-1.1776,-1.1776,-1.1727,-1.1593,-1.1415,-1.1261,-1.1021,-1.0785,-1.0712,-1.0696,-1.0692,-1.0692,-1.0692,-1.0692,-1.0692,-1.0692,-1.0692,-2.5013,-2.4464,-2.4455,-2.4345,-2.417,-2.4161,-2.4161,-2.4161,-2.4161,-2.4161,-2.4161,-2.4161,-2.4161,-2.4272,-2.4472,-2.3835,-2.2807,-2.1714,-2.1045,-2.0601,-2.0945,-2.1167,-2.106,-2.1722,-2.2078,-2.2207,-2.1987,-2.201,-2.2867,-2.1995,-2.1616,-2.1502,-2.1167,-2.0723,-2.027,-1.9809,-1.9455,-1.8881,-1.8415,-1.8064,-1.7479,-1.7244,-1.6537,-1.6059,-1.5105,-1.451,-1.4157,-1.3808,-1.3688,-1.3684,-1.3688,-1.3688,-1.3688,-1.3808,-1.3923,-1.4396,-1.4043,-1.3928,-1.4515,-1.4038,-1.3877,-1.401,-1.4109,-1.4312,-1.4402,-1.4139,-1.3815,-1.3565,-1.3227,-1.2836,-1.2844,-1.2832,-1.2836,-1.2836,-1.2824,-1.2775,-1.2722,-1.2702,-1.2653,-1.2613,-1.2576,-1.2499,-1.2402,-1.2296,-1.215,-1.2044,-1.1955,-1.187,-1.1784,-1.1776,-1.1776,-1.1776,-1.178,-1.178,-1.178,-1.1776,-1.1776,-1.1776,-1.1776,-1.1776,-1.1732,-1.1618,-1.152,-1.1399,-1.1126,-1.0871,-1.072,-1.07,-1.0696,-1.0692,-1.0692,-1.0692,-1.0692,-1.0692,-1.0692,-2.4913,-2.4449,-2.4251,-2.4161,-2.4161,-2.4161,-2.4161,-2.4161,-2.4161,-2.4161,-2.4161,-2.4161,-2.4161,-2.4263,-2.4351,-2.4016,-2.3079,-2.1768,-2.1159,-2.1288,-2.1631,-2.1851,-2.2085,-2.2546,-2.2901,-2.2788,-2.2788,-2.3014,-2.2796,-2.2085,-2.1509,-2.106,-2.0378,-1.9809,-1.9461,-1.9229,-1.8874,-1.8758,-1.8532,-1.8064,-1.7713,-1.7126,-1.6655,-1.6419,-1.5224,-1.4624,-1.451,-1.3923,-1.3688,-1.3688,-1.3688,-1.3688,-1.3688,-1.3688,-1.3688,-1.3688,-1.3688,-1.3688,-1.3693,-1.3813,-1.3783,-1.3901,-1.3939,-1.4156,-1.4281,-1.4043,-1.3811,-1.3451,-1.3099,-1.2836,-1.2832,-1.28,-1.2775,-1.2759,-1.2726,-1.2678,-1.2564,-1.2491,-1.2418,-1.2406,-1.243,-1.2369,-1.2247,-1.2117,-1.1971,-1.1947,-1.1866,-1.1849,-1.1776,-1.1776,-1.1776,-1.1776,-1.1776,-1.1776,-1.1776,-1.1776,-1.1776,-1.1776,-1.1776,-1.1776,-1.1732,-1.1667,-1.1577,-1.1492,-1.1342,-1.1098,-1.0903,-1.0712,-1.0696,-1.0692,-1.0692,-1.0692,-1.0692,-1.0692,-1.0692,-2.5197,-2.5109,-2.444,-2.4161,-2.4161,-2.4161,-2.4161,-2.4161,-2.4161,-2.4161,-2.4161,-2.4161,-2.4161,-2.4099,-2.3097,-2.2681,-2.2427,-2.1948,-2.1851,-2.232,-2.2554,-2.2667,-2.278,-2.2901,-2.3014,-2.3014,-2.3014,-2.3014,-2.278,-2.2085,-2.1288,-2.0608,-1.9802,-1.8874,-1.8642,-1.8997,-1.8874,-1.8997,-1.9577,-1.9461,-1.8642,-1.7941,-1.7232,-1.6408,-1.5343,-1.4624,-1.451,-1.4038,-1.3688,-1.3688,-1.3688,-1.3688,-1.3688,-1.3688,-1.3688,-1.3688,-1.3688,-1.3688,-1.3688,-1.3688,-1.3693,-1.3764,-1.3759,-1.3868,-1.3885,-1.3807,-1.3642,-1.3477,-1.2947,-1.2787,-1.2743,-1.2674,-1.2621,-1.256,-1.2507,-1.2434,-1.2341,-1.2324,-1.2247,-1.2146,-1.2154,-1.213,-1.2052,-1.1922,-1.1805,-1.1797,-1.1792,-1.178,-1.1776,-1.1776,-1.1776,-1.1776,-1.1776,-1.1776,-1.1776,-1.1776,-1.1776,-1.1776,-1.1776,-1.1776,-1.1748,-1.1703,-1.165,-1.1557,-1.1427,-1.1301,-1.1098,-1.0915,-1.0765,-1.0708,-1.0733,-1.0716,-1.0692,-1.0692,-1.0692,-2.5294,-2.5197,-2.4529,-2.4161,-2.4161,-2.4161,-2.4161,-2.4161,-2.4161,-2.4161,-2.4161,-2.4161,-2.439,-2.4359,-2.3115,-2.2887,-2.3235,-2.2227,-2.2085,-2.2788,-2.3014,-2.3014,-2.3014,-2.3014,-2.3014,-2.3014,-2.3014,-2.3014,-2.2667,-2.2085,-2.1395,-2.0945,-2.0148,-1.9693,-1.8874,-1.9461,-1.9693,-1.9809,-2.004,-1.9693,-1.8765,-1.8169,-1.7461,-1.6532,-1.5219,-1.4738,-1.451,-1.4038,-1.3688,-1.3688,-1.3688,-1.3688,-1.3688,-1.3688,-1.3688,-1.3688,-1.3688,-1.3688,-1.3688,-1.3688,-1.3688,-1.3688,-1.3703,-1.3681,-1.3642,-1.3506,-1.3322,-1.3024,-1.2789,-1.2544,-1.2552,-1.2467,-1.2438,-1.2385,-1.2312,-1.2231,-1.217,-1.2146,-1.2093,-1.1979,-1.1894,-1.191,-1.1922,-1.1857,-1.1784,-1.1784,-1.1784,-1.178,-1.1776,-1.1776,-1.1776,-1.1776,-1.1776,-1.1776,-1.1776,-1.1776,-1.1776,-1.1776,-1.1776,-1.1776,-1.1776,-1.174,-1.1695,-1.1638,-1.1541,-1.1407,-1.1256,-1.1114,-1.0956,-1.0863,-1.0781,-1.0757,-1.0733,-1.0692,-1.0692,-2.5294,-2.5197,-2.4529,-2.4161,-2.4161,-2.4161,-2.4161,-2.4161,-2.4161,-2.4161,-2.4161,-2.417,-2.4519,-2.4706,-2.3537,-2.3278,-2.4234,-2.267,-2.2531,-2.278,-2.3014,-2.3014,-2.3014,-2.3014,-2.3014,-2.3014,-2.3014,-2.3014,-2.278,-2.232,-2.1964,-2.1616,-2.0608,-2.027,-2.027,-2.0493,-2.0723,-2.1074,-2.0838,-2.0099,-1.8995,-1.8159,-1.7462,-1.6423,-1.5376,-1.4574,-1.4748,-1.4043,-1.3688,-1.3688,-1.3688,-1.3688,-1.3688,-1.3688,-1.3688,-1.3688,-1.3688,-1.3688,-1.3688,-1.3688,-1.3688,-1.3688,-1.3587,-1.3537,-1.3487,-1.3287,-1.3026,-1.283,-1.2594,-1.2333,-1.23,-1.2284,-1.2239,-1.2215,-1.217,-1.2081,-1.2008,-1.1991,-1.1971,-1.1894,-1.1829,-1.1809,-1.1813,-1.1797,-1.1776,-1.1776,-1.1776,-1.1776,-1.1776,-1.1776,-1.1776,-1.1776,-1.1776,-1.1776,-1.1776,-1.1776,-1.1776,-1.1776,-1.1776,-1.1776,-1.1776,-1.1776,-1.1752,-1.1691,-1.163,-1.1537,-1.1403,-1.1277,-1.1143,-1.0988,-1.0858,-1.081,-1.0773,-1.0724,-1.0692,-2.5294,-2.5197,-2.4529,-2.4161,-2.4161,-2.4161,-2.4161,-2.4161,-2.4161,-2.4161,-2.4161,-2.417,-2.4216,-2.418,-2.3817,-2.3415,-2.364,-2.3173,-2.295,-2.2901,-2.3014,-2.3014,-2.3014,-2.3014,-2.3014,-2.3014,-2.3014,-2.3014,-2.3014,-2.2901,-2.232,-2.1623,-2.1181,-2.0615,-2.073,-2.1296,-2.1524,-2.1759,-2.1524,-2.0658,-1.9373,-1.8376,-1.734,-1.665,-1.5389,-1.4534,-1.5337,-1.4515,-1.4162,-1.4162,-1.4277,-1.4043,-1.4162,-1.4043,-1.4043,-1.3688,-1.3688,-1.3688,-1.3688,-1.3688,-1.3688,-1.3569,-1.3463,-1.3277,-1.3315,-1.2878,-1.261,-1.2707,-1.232,-1.2235,-1.2211,-1.217,-1.2069,-1.2032,-1.1996,-1.1935,-1.1874,-1.1853,-1.1829,-1.1792,-1.1776,-1.1776,-1.1776,-1.1776,-1.1776,-1.1776,-1.1776,-1.1776,-1.1776,-1.1776,-1.1776,-1.1776,-1.1776,-1.1776,-1.1776,-1.1776,-1.1776,-1.1776,-1.1776,-1.1776,-1.1776,-1.1776,-1.1776,-1.176,-1.1703,-1.1626,-1.1557,-1.1447,-1.1301,-1.1074,-1.094,-1.0903,-1.0802,-1.0712,-1.0692,-2.4627,-2.4627,-2.435,-2.4161,-2.4161,-2.4161,-2.4161,-2.4161,-2.4161,-2.4161,-2.4161,-2.4161,-2.409,-2.4003,-2.3705,-2.3499,-2.342,-2.3102,-2.3071,-2.3014,-2.3014,-2.3014,-2.3014,-2.3014,-2.3014,-2.3006,-2.3006,-2.3014,-2.3014,-2.3014,-2.2901,-2.2328,-2.1866,-2.2101,-2.2214,-2.1979,-2.1866,-2.1296,-2.1259,-2.0771,-1.8844,-1.8064,-1.7092,-1.6153,-1.5071,-1.4898,-1.5598,-1.5274,-1.5435,-1.5688,-1.5806,-1.5456,-1.4867,-1.4867,-1.4396,-1.3928,-1.3808,-1.3688,-1.3688,-1.3688,-1.3688,-1.3693,-1.3453,-1.3125,-1.3098,-1.2595,-1.2256,-1.2196,-1.2123,-1.2028,-1.1967,-1.1918,-1.1874,-1.1853,-1.1829,-1.1788,-1.1776,-1.1776,-1.1776,-1.1776,-1.1776,-1.1776,-1.1776,-1.1776,-1.1776,-1.1776,-1.1776,-1.1776,-1.1776,-1.1776,-1.1776,-1.1776,-1.1776,-1.1776,-1.1776,-1.1776,-1.1776,-1.1776,-1.1776,-1.1776,-1.1776,-1.1776,-1.1776,-1.1776,-1.1776,-1.1711,-1.1654,-1.1614,-1.1431,-1.1135,-1.1025,-1.1009,-1.0879,-1.0708,-1.0692,-2.4161,-2.4161,-2.4161,-2.4161,-2.4161,-2.4161,-2.4161,-2.4161,-2.4161,-2.4161,-2.4161,-2.417,-2.409,-2.3919,-2.354,-2.3496,-2.3378,-2.3092,-2.2983,-2.2974,-2.3014,-2.3014,-2.3014,-2.2998,-2.2958,-2.2927,-2.2982,-2.2998,-2.2375,-2.2838,-2.2659,-2.2546,-2.2546,-2.2546,-2.2788,-2.2554,-2.1744,-2.0945,-2.0235,-2.0011,-1.8159,-1.7264,-1.6762,-1.5812,-1.5036,-1.5335,-1.6042,-1.6093,-1.6497,-1.6862,-1.7097,-1.6862,-1.6273,-1.5688,-1.51,-1.4515,-1.3923,-1.3688,-1.3688,-1.3688,-1.3688,-1.3688,-1.3449,-1.3084,-1.2715,-1.2354,-1.2168,-1.1922,-1.1797,-1.1776,-1.1776,-1.1797,-1.1805,-1.1809,-1.1805,-1.1776,-1.1776,-1.1776,-1.1776,-1.1776,-1.1776,-1.1776,-1.1776,-1.1776,-1.1776,-1.1776,-1.1776,-1.1776,-1.1776,-1.1776,-1.1776,-1.1776,-1.1776,-1.1776,-1.1776,-1.1776,-1.1776,-1.1776,-1.1776,-1.1776,-1.1776,-1.1776,-1.1776,-1.1776,-1.1776,-1.1776,-1.1744,-1.1687,-1.1443,-1.1147,-1.1041,-1.0919,-1.085,-1.0692,-1.0692,-2.4161,-2.4161,-2.4161,-2.4161,-2.4161,-2.4161,-2.4161,-2.4161,-2.4161,-2.4161,-2.4161,-2.4161,-2.4161,-2.3908,-2.346,-2.3329,-2.326,-2.284,-2.2712,-2.2958,-2.3014,-2.3014,-2.2998,-2.2958,-2.2807,-2.2656,-2.2744,-2.244,-2.1443,-2.2301,-2.2297,-2.1964,-2.1964,-2.1972,-2.278,-2.2085,-2.1623,-2.1274,-1.9673,-1.8911,-1.7911,-1.6797,-1.609,-1.5962,-1.5631,-1.5851,-1.6724,-1.7241,-1.7646,-1.7952,-1.8131,-1.7793,-1.7091,-1.6273,-1.5688,-1.5105,-1.4162,-1.3808,-1.3688,-1.3688,-1.3688,-1.3688,-1.3329,-1.3084,-1.2719,-1.2479,-1.2122,-1.201,-1.1893,-1.1776,-1.1776,-1.1776,-1.1776,-1.1776,-1.1776,-1.1776,-1.1776,-1.1776,-1.1776,-1.1776,-1.1776,-1.1776,-1.1776,-1.1776,-1.1776,-1.1776,-1.1776,-1.1776,-1.1776,-1.1776,-1.1776,-1.1776,-1.1776,-1.1776,-1.1776,-1.1776,-1.1776,-1.1776,-1.1776,-1.1776,-1.1776,-1.1776,-1.1776,-1.1776,-1.1776,-1.1776,-1.1768,-1.1752,-1.1451,-1.1151,-1.0879,-1.0745,-1.07,-1.0692,-1.0692,-2.4161,-2.4161,-2.4161,-2.4161,-2.4161,-2.4161,-2.4161,-2.4161,-2.4161,-2.4161,-2.4161,-2.4161,-2.3945,-2.3562,-2.3338,-2.3097,-2.2955,-2.2759,-2.2672,-2.2982,-2.2998,-2.3014,-2.2958,-2.2776,-2.2601,-2.2545,-2.2625,-2.2545,-2.2064,-2.2383,-2.2063,-2.1623,-2.1457,-2.1045,-2.0601,-2.0256,-2.0263,-1.9216,-1.8726,-1.8461,-1.7446,-1.6576,-1.6101,-1.6477,-1.6168,-1.6631,-1.7834,-1.8294,-1.8692,-1.9078,-1.9253,-1.8783,-1.7738,-1.6686,-1.5891,-1.4971,-1.3808,-1.3688,-1.3688,-1.3688,-1.3688,-1.3569,-1.3204,-1.2964,-1.2964,-1.2724,-1.2363,-1.2122,-1.2005,-1.1889,-1.1893,-1.1776,-1.1776,-1.1776,-1.1776,-1.1776,-1.1776,-1.1776,-1.1776,-1.1776,-1.1776,-1.1776,-1.1776,-1.1776,-1.1776,-1.1776,-1.1776,-1.1776,-1.1776,-1.1776,-1.1776,-1.1776,-1.1776,-1.1776,-1.1776,-1.1776,-1.1776,-1.1776,-1.1776,-1.1776,-1.1776,-1.1776,-1.1776,-1.1776,-1.1776,-1.1772,-1.1715,-1.1626,-1.1419,-1.1155,-1.0883,-1.0708,-1.0692,-1.0692,-1.0692,-2.4161,-2.4161,-2.4161,-2.4161,-2.4161,-2.4161,-2.4161,-2.4161,-2.4161,-2.4161,-2.4161,-2.4152,-2.4044,-2.3618,-2.3106,-2.315,-2.3036,-2.2513,-2.2633,-2.2927,-2.2863,-2.2903,-2.2831,-2.2553,-2.2323,-2.2323,-2.2418,-2.234,-2.1767,-2.1984,-2.1866,-2.1572,-2.1346,-2.0402,-1.9759,-1.9591,-1.9686,-1.8758,-1.8383,-1.7811,-1.691,-1.6212,-1.6063,-1.631,-1.6546,-1.6998,-1.8333,-1.9174,-1.9631,-1.9991,-1.9808,-1.9259,-1.7759,-1.6599,-1.5832,-1.4601,-1.3899,-1.3789,-1.3688,-1.3569,-1.3569,-1.3688,-1.3084,-1.284,-1.284,-1.2599,-1.2363,-1.2126,-1.2122,-1.2005,-1.1893,-1.1776,-1.1776,-1.1776,-1.1776,-1.1776,-1.1776,-1.1776,-1.1776,-1.1776,-1.1776,-1.1776,-1.1776,-1.1776,-1.1776,-1.1776,-1.1776,-1.1776,-1.1776,-1.1776,-1.1776,-1.1776,-1.1776,-1.1776,-1.1776,-1.1776,-1.1776,-1.1776,-1.1776,-1.1776,-1.1776,-1.1776,-1.1776,-1.1776,-1.1776,-1.174,-1.1618,-1.148,-1.1297,-1.1102,-1.0875,-1.0753,-1.0704,-1.0692,-1.0692,-2.4242,-2.4251,-2.4161,-2.4161,-2.4161,-2.4161,-2.4161,-2.4161,-2.4161,-2.4161,-2.4161,-2.4161,-2.4053,-2.3845,-2.2955,-2.2886,-2.3148,-2.2419,-2.256,-2.2784,-2.2791,-2.2839,-2.2672,-2.2339,-2.2069,-2.2084,-2.2172,-2.1994,-2.0967,-2.1589,-2.175,-2.1249,-2.113,-2.0146,-1.967,-1.98,-1.9679,-1.8642,-1.7695,-1.7131,-1.6408,-1.5638,-1.5571,-1.5858,-1.6263,-1.6875,-1.7916,-1.8782,-1.894,-1.8795,-1.847,-1.7693,-1.6788,-1.5536,-1.5243,-1.485,-1.402,-1.3741,-1.3646,-1.3398,-1.3444,-1.3564,-1.3324,-1.284,-1.2599,-1.2475,-1.2238,-1.2126,-1.2005,-1.1889,-1.1776,-1.1776,-1.1776,-1.1776,-1.1776,-1.1776,-1.1776,-1.1776,-1.1776,-1.1776,-1.1776,-1.1776,-1.1776,-1.1776,-1.1776,-1.1776,-1.1776,-1.1776,-1.1776,-1.1776,-1.1776,-1.1776,-1.1776,-1.1776,-1.1776,-1.1776,-1.1776,-1.1776,-1.1776,-1.1776,-1.1776,-1.1776,-1.1776,-1.1776,-1.1776,-1.1711,-1.1581,-1.1403,-1.12,-1.1005,-1.0838,-1.0753,-1.0692,-1.0692,-1.0692,-2.444,-2.4341,-2.4251,-2.4161,-2.4161,-2.4161,-2.4161,-2.4161,-2.4161,-2.4161,-2.4161,-2.4161,-2.4044,-2.3529,-2.2846,-2.2817,-2.2681,-2.2492,-2.2552,-2.2664,-2.2736,-2.272,-2.2513,-2.2156,-2.1846,-2.1791,-2.187,-2.1866,-2.1355,-2.1596,-2.1115,-2.0229,-2.0944,-2.0399,-2.0331,-2.0651,-1.9503,-1.8377,-1.7319,-1.6709,-1.6066,-1.5317,-1.5319,-1.5563,-1.5654,-1.6287,-1.6848,-1.7579,-1.7495,-1.7051,-1.7104,-1.6745,-1.553,-1.5084,-1.482,-1.3844,-1.3451,-1.3476,-1.3495,-1.3489,-1.3449,-1.3324,-1.3204,-1.3204,-1.296,-1.2595,-1.2359,-1.2122,-1.2126,-1.2247,-1.2247,-1.2251,-1.2371,-1.2492,-1.2371,-1.213,-1.2134,-1.1893,-1.1893,-1.1776,-1.1776,-1.1776,-1.1776,-1.1776,-1.1776,-1.1776,-1.1897,-1.1897,-1.1897,-1.1897,-1.1776,-1.1776,-1.1776,-1.1776,-1.1776,-1.1776,-1.1776,-1.1776,-1.1776,-1.1776,-1.1776,-1.1776,-1.1776,-1.1776,-1.1776,-1.1675,-1.1537,-1.135,-1.1167,-1.0992,-1.083,-1.0753,-1.0692,-1.0692,-1.0692,-2.443,-2.4341,-2.4251,-2.4161,-2.4161,-2.4161,-2.4161,-2.4161,-2.4161,-2.4161,-2.4161,-2.4161,-2.3836,-2.3338,-2.2762,-2.2545,-2.2559,-2.2086,-2.21,-2.2577,-2.2577,-2.249,-2.2259,-2.1902,-2.156,-2.152,-2.1624,-2.1751,-2.1443,-2.1355,-2.0873,-2.0587,-2.1091,-2.067,-2.0545,-2.0507,-1.9604,-1.8237,-1.7077,-1.6492,-1.5779,-1.5006,-1.5077,-1.508,-1.5102,-1.5282,-1.5779,-1.6272,-1.5884,-1.5127,-1.5181,-1.4436,-1.3364,-1.3067,-1.336,-1.2648,-1.3128,-1.3255,-1.3443,-1.347,-1.3416,-1.3209,-1.2964,-1.2719,-1.2719,-1.2479,-1.2238,-1.2122,-1.2479,-1.2835,-1.284,-1.2964,-1.3204,-1.3444,-1.2964,-1.2608,-1.2371,-1.2014,-1.1893,-1.1897,-1.1776,-1.1776,-1.1776,-1.1776,-1.2014,-1.2367,-1.2487,-1.2251,-1.2251,-1.2134,-1.1893,-1.1776,-1.1776,-1.1776,-1.1776,-1.1776,-1.1776,-1.1776,-1.1776,-1.1776,-1.1776,-1.1768,-1.1756,-1.1764,-1.1776,-1.1622,-1.1423,-1.1321,-1.1159,-1.0968,-1.0695,-1.052,-1.0363,-1.0366,-1.0476,-2.444,-2.4242,-2.4242,-2.4161,-2.4161,-2.4161,-2.4161,-2.4161,-2.4161,-2.4161,-2.4161,-2.4161,-2.3845,-2.3329,-2.2745,-2.246,-2.2182,-2.1771,-2.1846,-2.2418,-2.2045,-2.1965,-2.1918,-2.1513,-2.133,-2.1377,-2.1481,-2.1608,-2.1798,-2.1569,-2.1274,-2.1344,-2.1309,-2.1032,-2.0771,-2.0929,-1.9943,-1.8209,-1.7424,-1.6791,-1.504,-1.4356,-1.429,-1.4509,-1.4548,-1.4631,-1.5189,-1.5227,-1.4669,-1.3378,-1.2413,-1.1682,-1.1423,-1.1172,-1.1466,-1.2059,-1.2878,-1.3142,-1.3264,-1.33,-1.3177,-1.2964,-1.2599,-1.2715,-1.2715,-1.2835,-1.2595,-1.284,-1.3195,-1.3784,-1.4028,-1.4267,-1.4505,-1.4267,-1.3794,-1.3435,-1.308,-1.2487,-1.1897,-1.1776,-1.1776,-1.1893,-1.2487,-1.2483,-1.2724,-1.3075,-1.3075,-1.2844,-1.2371,-1.2255,-1.2014,-1.1776,-1.1776,-1.1776,-1.1776,-1.1776,-1.1776,-1.1776,-1.1776,-1.1776,-1.1776,-1.176,-1.1736,-1.1663,-1.1565,-1.1451,-1.1297,-1.1077,-1.083,-1.0632,-1.0288,-1.0158,-1.0036,-1.0147,-1.0147,-2.4637,-2.444,-2.4251,-2.4161,-2.4161,-2.4161,-2.4161,-2.4161,-2.4161,-2.4161,-2.4161,-2.4152,-2.3836,-2.3329,-2.2837,-2.2528,-2.2179,-2.1715,-2.1809,-2.1949,-2.1783,-2.1632,-2.1727,-2.1417,-2.1203,-2.1171,-2.1282,-2.1375,-2.1513,-2.1393,-2.133,-2.1425,-2.1425,-2.1254,-2.1238,-2.1417,-2.0431,-1.8433,-1.7798,-1.6499,-1.4557,-1.3734,-1.3388,-1.3345,-1.3401,-1.3287,-1.3469,-1.2743,-1.2309,-1.1446,-1.0781,-1.068,-1.0802,-1.1067,-1.152,-1.2146,-1.2697,-1.2997,-1.3003,-1.3076,-1.3255,-1.3066,-1.2826,-1.3191,-1.331,-1.331,-1.3545,-1.3784,-1.4133,-1.4723,-1.5192,-1.5548,-1.5784,-1.5192,-1.4619,-1.4143,-1.367,-1.2844,-1.1893,-1.1776,-1.1776,-1.2251,-1.284,-1.3075,-1.343,-1.355,-1.355,-1.3195,-1.2371,-1.2018,-1.2014,-1.1776,-1.1776,-1.1776,-1.1776,-1.1776,-1.1776,-1.1776,-1.1776,-1.1776,-1.1768,-1.1654,-1.1545,-1.1411,-1.1297,-1.1244,-1.1065,-1.0834,-1.0575,-1.0197,-1.0036,-0.9816,-0.9706,-0.971,-0.9816,-2.4165,-2.3832,-2.391,-2.3987,-2.4134,-2.4161,-2.4161,-2.4161,-2.4161,-2.4161,-2.4161,-2.4152,-2.3836,-2.3329,-2.2929,-2.2401,-2.2142,-2.1721,-2.1627,-2.1722,-2.1608,-2.1497,-2.1393,-2.1298,-2.1115,-2.1036,-2.1274,-2.1296,-2.1242,-2.1282,-2.1314,-2.1258,-2.125,-2.133,-2.152,-2.1399,-2.0658,-1.8877,-1.8164,-1.6539,-1.4378,-1.3521,-1.3003,-1.2781,-1.2663,-1.2559,-1.2398,-1.1891,-1.1564,-1.1013,-1.0351,-1.0127,-1.0488,-1.1003,-1.1317,-1.1926,-1.245,-1.2913,-1.2855,-1.3147,-1.3523,-1.3419,-1.3875,-1.447,-1.4697,-1.4811,-1.4893,-1.5237,-1.562,-1.6187,-1.6536,-1.6768,-1.7237,-1.7122,-1.5606,-1.4505,-1.3439,-1.2251,-1.1776,-1.1776,-1.1776,-1.1897,-1.2371,-1.2371,-1.2724,-1.343,-1.343,-1.343,-1.2608,-1.1897,-1.1897,-1.1776,-1.1776,-1.1776,-1.1776,-1.1776,-1.1776,-1.1776,-1.1776,-1.1703,-1.1642,-1.148,-1.1338,-1.1236,-1.1056,-1.1036,-1.0846,-1.0514,-1.02,-0.9857,-0.9717,-0.9599,-0.9489,-0.9379,-0.9379,-2.3472,-2.3033,-2.3295,-2.3739,-2.406,-2.4233,-2.4161,-2.4161,-2.4161,-2.4161,-2.4161,-2.4161,-2.3836,-2.3529,-2.3129,-2.2526,-2.1953,-2.1526,-2.1498,-2.133,-2.1107,-2.1171,-2.1187,-2.1099,-2.0988,-2.102,-2.1195,-2.1131,-2.0988,-2.1099,-2.1123,-2.0956,-2.0925,-2.0941,-2.0925,-2.083,-2.0281,-1.9262,-1.831,-1.708,-1.5331,-1.3487,-1.312,-1.2755,-1.2669,-1.2559,-1.2436,-1.2323,-1.1887,-1.1122,-1.0351,-1.0241,-1.0402,-1.1036,-1.1713,-1.2206,-1.3067,-1.3399,-1.3414,-1.4162,-1.4184,-1.4397,-1.5162,-1.5579,-1.5898,-1.6087,-1.6164,-1.6605,-1.6978,-1.7248,-1.759,-1.7824,-1.8292,-1.8236,-1.6431,-1.4728,-1.331,-1.201,-1.1776,-1.1776,-1.1776,-1.1776,-1.2014,-1.2014,-1.2371,-1.308,-1.3191,-1.3075,-1.2844,-1.2251,-1.1776,-1.1776,-1.1776,-1.1776,-1.1776,-1.1776,-1.1776,-1.1776,-1.176,-1.1642,-1.1504,-1.1321,-1.1183,-1.1114,-1.0948,-1.0779,-1.0634,-1.0328,-0.9909,-0.9507,-0.9389,-0.9268,-0.9158,-0.9047,-0.9047,-2.3194,-2.2902,-2.3286,-2.3593,-2.3703,-2.4015,-2.4161,-2.4161,-2.4161,-2.4161,-2.4161,-2.4161,-2.4053,-2.3945,-2.3029,-2.2426,-2.2224,-2.1623,-2.1121,-2.0964,-2.0964,-2.0996,-2.1012,-2.1004,-2.0941,-2.098,-2.1028,-2.0964,-2.0925,-2.0996,-2.1012,-2.0925,-2.0925,-2.0925,-2.0925,-2.0814,-2.0506,-1.9768,-1.8923,-1.7864,-1.6922,-1.5285,-1.3459,-1.3237,-1.333,-1.298,-1.2758,-1.263,-1.1982,-1.1223,-1.0676,-1.0781,-1.1173,-1.1824,-1.2534,-1.3432,-1.4213,-1.4484,-1.4868,-1.5266,-1.5462,-1.515,-1.5755,-1.6189,-1.6372,-1.666,-1.7013,-1.7786,-1.8143,-1.8,-1.8092,-1.8105,-1.8466,-1.7798,-1.6459,-1.4933,-1.3632,-1.247,-1.1776,-1.1776,-1.1776,-1.2251,-1.284,-1.284,-1.2844,-1.3306,-1.3274,-1.3044,-1.2363,-1.201,-1.1756,-1.1764,-1.176,-1.1776,-1.1776,-1.1776,-1.1776,-1.1776,-1.1715,-1.1553,-1.1362,-1.1143,-1.1017,-1.0835,-1.0647,-1.0469,-1.022,-1.0032,-0.9661,-0.9386,-0.9161,-0.8937,-0.8937,-0.8937,-0.8937]},{"header":{"parameterUnit":"m.s-1","parameterCategory":1,"la1":31.0,"la2":29.5877,"lo1":-88.7671,"lo2":-86.6584,"dy":0.0162,"dx":0.0185,"nx":115,"ny":88,"refTime":"2023-08-06T12:00:00:Z","depth":0,"parameterNumber":3,"parameterNumberName":"V-component_of_WINDS"},"data":[0.0,0.0,0.0,0.0,0.0,0.0,0.0,0.0,0.0,0.0,0.0,0.0,0.0,0.0,0.0,0.0,0.0,0.0,0.0,0.0,0.0,0.0,0.0,0.0,0.0,0.0,0.0,0.0,0.0,0.0,0.0,0.0,0.0,0.0,0.0,0.0,0.0,0.0,0.0,0.0,0.0,0.0,0.0,0.0,0.0,0.0,0.0,0.0,0.0,0.0,0.0,0.0,0.0,0.0,0.0,0.0,0.0,0.0,0.0,0.0,0.0,0.0,0.0,0.0,0.0,0.0,0.0,0.0,0.0,0.0,0.0,0.0,0.0,0.0,0.0,0.0,0.0,0.0,0.0,0.0,0.0,0.0,0.0,0.0,0.0,0.0,0.0,0.0,0.0,0.0,0.0,0.0,0.0,0.0,0.0,0.0,0.0,0.0,0.0,0.0,0.0,0.0,0.0,0.0,0.0,0.0,0.0,0.0,0.0,0.0,0.0,0.0,0.0,0.0,0.0,0.0,0.0,0.0,0.0,0.0,0.0,0.0,0.0,0.0,0.0,0.0,0.0,0.0,0.0,0.0,0.0,0.0,0.0,0.0,0.0,0.0,0.0,0.0,0.0,0.0,0.0,0.0,0.0,0.0,0.0,0.0,0.0,0.0,0.0,0.0,0.0,0.0,0.0,0.0,0.0,0.0,0.0,0.0,0.0,0.0,0.0,0.0,0.0,0.0,0.0,0.0,0.0,0.0,0.0,0.0,0.0,0.0,0.0,0.0,0.0,0.0,0.0,0.0,0.0,0.0,0.0,0.0,0.0,0.0,0.0,0.0,0.0,0.0,0.0,0.0,0.0,0.0,0.0,0.0,0.0,0.0,0.0,0.0,0.0,0.0,0.0,0.0,0.0,0.0,0.0,0.0,0.0,0.0,0.0,0.0,0.0,0.0,0.0,0.0,0.0,0.0,0.0,0.0,0.0,0.0,0.0,0.0,0.0,0.0,0.0,0.0,0.0,0.0,0.0,0.0,0.0,0.0,0.0,0.0,0.0,0.0,0.0,0.0,0.0,0.0,0.0,0.0,0.0,0.0,0.0,0.0,0.0,0.0,0.0,0.0,0.0,0.0,0.0,0.0,0.0,0.0,0.0,0.0,0.0,0.0,0.0,0.0,0.0,0.0,0.0,0.0,0.0,0.0,0.0,0.0,0.0,0.0,0.0,0.0,0.0,0.0,0.0,0.0,0.0,0.0,0.0,0.0,0.0,0.0,0.0,0.0,0.0,0.0,0.0,0.0,0.0,0.0,0.0,0.0,0.0,0.0,0.0,0.0,0.0,0.0,0.0,0.0,0.0,0.0,0.0,0.0,0.0,0.0,0.0,0.0,0.0,0.0,0.0,0.0,0.0,0.0,0.0,0.0,0.0,0.0,0.0,0.0,0.0,0.0,0.0,0.0,0.0,0.0,0.0,0.0,0.0,0.0,0.0,0.0,0.0,0.0,0.0,0.0,0.0,0.0,0.0,0.0,0.0,0.0,0.0,0.0,0.0,0.0,0.0,0.0,0.0,0.0,0.0,0.0,0.0,0.0,0.0,0.0,0.0,0.0,0.0,0.0,0.0,0.0,0.0,0.0,0.0,0.0,0.0,0.0,0.0,0.0,0.0,0.0,0.0,0.0,0.0,0.0,0.0,0.0,0.0,0.0,0.0,0.0,0.0,0.0,0.0,0.0,0.0,0.0,0.0,0.0,0.0,0.0,0.0,0.0,0.0,0.0,0.0,0.0,0.0,0.0,0.0,0.0,0.0,0.0,0.0,0.0,0.0,0.0,0.0,0.0,0.0,0.0,0.0,0.0,0.0,0.0,0.0,0.0,0.0,0.0,0.0,0.0,0.0,0.0,0.0,0.0,0.0,0.0,0.0,0.0,0.0,0.0,0.0,0.0,0.0,0.0,0.0,0.0,0.0,0.0,0.0,0.0,0.0,0.0,0.0,0.0,0.0,0.0,0.0,0.0,0.0,0.0,0.0,0.0,0.0,0.0,0.0,0.0,0.0,0.0,0.0,0.0,0.0,0.0,0.0,0.0,0.0,0.0,0.0,0.0,0.0,0.0,0.0,0.0,0.0,0.0,0.0,0.0,0.0,0.0,0.0,0.0,0.0,0.0,0.0,0.0,0.0,0.0,0.0,0.0,0.0,0.0,0.0,0.0,0.0,0.0,0.0,0.0,0.0,0.0,0.0,0.0,0.0,0.0,0.0,0.0,0.0,0.0,0.0,0.0,0.0,0.0,0.0,0.0,0.0,0.0,0.0,0.0,0.0,0.0,0.0,0.0,0.0,0.0,0.0,0.0,0.0,0.0,0.0,0.0,0.0,0.0,0.0,0.0,0.0,0.0,0.0,0.0,0.0,0.0,0.0,0.0,0.0,0.0,0.0,0.0,0.0,0.0,0.0,0.0,0.0,0.0,0.0,0.0,0.0,0.0,0.0,0.0,0.0,0.0,0.0,0.0,0.0,0.0,0.0,0.0,0.0,0.0,0.0,0.0,0.0,0.0,0.0,0.0,0.0,0.0,0.0,0.0,0.0,0.0,0.0,0.0,0.0,0.0,0.0,0.0,0.0,0.0,0.0,0.0,0.0,0.0,0.0,0.0,0.0,0.0,0.0,0.0,0.0,0.0,0.0,0.0,0.0,0.0,0.0,0.0,0.0,0.0,0.0,0.0,0.0,0.0,0.0,0.0,0.0,0.0,0.0,0.0,0.0,0.0,0.0,0.0,0.0,0.0,0.0,0.0,0.0,0.0,0.0,0.0,0.0,0.0,0.0,0.0,0.0,0.0,0.0,0.0,0.0,0.0,0.0,0.0,0.0,0.0,0.0,0.0,0.0,0.0,0.0,0.0,0.0,0.0,0.0,0.0,0.0,0.0,0.0,0.0,0.0,0.0,0.0,0.0,0.0,0.0,0.0,0.0,0.0,0.0,0.0,0.0,0.0,0.0,0.0,0.0,0.0,0.0,0.0,0.0,0.0,0.0,0.0,0.0,0.0,0.0,0.0,0.0,0.0,0.0,0.0,0.0,0.0,0.0,0.0,0.0,0.0,0.0,0.0,0.0,0.0,0.0,0.0,0.0,0.0,0.0,0.0,0.0,0.0,0.0,0.0,0.0,0.0,0.0,0.0,0.0,0.0,0.0,0.0,0.0,0.0,0.0,0.0,0.0,0.0,0.0,0.0,0.0,0.0,0.0,0.0,0.0,0.0,0.0,0.0,0.0,0.0,0.0,0.0,0.0,0.0,0.0,0.0,0.0,0.0,0.0,0.0,0.0,0.0,0.0,0.0,0.0,0.0,0.0,0.0,0.0,0.0,0.0,0.0,0.0,0.0,0.0,0.0,0.0,0.0,0.0,0.0,0.0,0.0,0.0,0.0,0.0,0.0,0.0,0.0,0.0,0.0,0.0,0.0,0.0,0.0,0.0,0.0,0.0,0.0,0.0,0.0,0.0,0.0,0.0,0.0,0.0,0.0,0.0,0.0,0.0,0.0,0.0,0.0,0.0,0.0,0.0,0.0,0.0,0.0,0.0,0.0,0.0,0.0,0.0,0.0,0.0,0.0,0.0,0.0,0.0,0.0,0.0,0.0,0.0,0.0,0.0,0.0,0.0,0.0,0.0,0.0,0.0,0.0,0.0,0.0,0.0,0.0,0.0,0.0,0.0,0.0,0.0,0.0,0.0,0.0,0.0,0.0,0.0,0.0,0.0,0.0,0.0,0.0,0.0,0.0,0.0,0.0,0.0,0.0,0.0,0.0,0.0,0.0,0.0,0.0,0.0,0.0,0.0,0.0,0.0,0.0,0.0,0.0,0.0,0.0,0.0,0.0,0.0,0.0,0.0,0.0,0.0,0.0,0.0,0.0,0.0,0.0,0.0,0.0,0.0,0.0,0.0,0.0,0.0,0.0,0.0,0.0,0.0,0.0,0.0,0.0,0.0,0.0,0.0,0.0,0.0,0.0,0.0,0.0,0.0,0.0,0.0,0.0,0.0,0.0,0.0,0.0,0.0,0.0,0.0,0.0,0.0,0.0,0.0,0.0,0.0,0.0,0.0,0.0,0.0,0.0,0.0,0.0,0.0,0.0,0.0,0.0,0.0,0.0,0.0,0.0,0.0,0.0,0.0,0.0,0.0,0.0,0.0,0.0,0.0,0.0,0.0,0.0,0.0,0.0,0.0,0.0,0.0,0.0,0.0,0.0,0.0,0.0,0.0,0.0,0.0,0.0,0.0,0.0,0.0,-3.6637,0.0,0.0,0.0,0.0,0.0,0.0,0.0,0.0,0.0,0.0,0.0,0.0,0.0,0.0,0.0,0.0,0.0,0.0,0.0,0.0,0.0,0.0,0.0,0.0,0.0,0.0,0.0,0.0,0.0,0.0,0.0,0.0,0.0,0.0,0.0,0.0,0.0,0.0,0.0,0.0,0.0,0.0,0.0,0.0,0.0,0.0,0.0,0.0,0.0,0.0,0.0,0.0,0.0,0.0,0.0,0.0,0.0,0.0,0.0,0.0,0.0,0.0,0.0,0.0,0.0,0.0,0.0,0.0,0.0,0.0,0.0,0.0,0.0,0.0,0.0,0.0,0.0,0.0,0.0,0.0,0.0,0.0,0.0,0.0,0.0,0.0,0.0,0.0,0.0,0.0,0.0,0.0,0.0,0.0,0.0,0.0,0.0,0.0,0.0,0.0,0.0,0.0,0.0,0.0,0.0,0.0,0.0,0.0,0.0,0.0,-3.9023,-3.8805,-3.8258,-3.7762,-3.7406,0.0,0.0,0.0,0.0,0.0,0.0,0.0,0.0,0.0,0.0,0.0,0.0,0.0,0.0,0.0,0.0,0.0,0.0,0.0,0.0,0.0,0.0,0.0,0.0,0.0,0.0,0.0,0.0,0.0,0.0,0.0,0.0,0.0,0.0,0.0,0.0,0.0,0.0,0.0,0.0,0.0,0.0,0.0,0.0,0.0,0.0,0.0,0.0,0.0,0.0,0.0,0.0,0.0,0.0,0.0,0.0,0.0,0.0,0.0,0.0,0.0,0.0,0.0,0.0,0.0,0.0,0.0,0.0,0.0,0.0,0.0,0.0,0.0,0.0,0.0,0.0,0.0,0.0,0.0,0.0,0.0,0.0,0.0,0.0,0.0,0.0,0.0,0.0,0.0,0.0,0.0,0.0,0.0,0.0,0.0,0.0,0.0,0.0,0.0,0.0,0.0,0.0,0.0,0.0,0.0,0.0,0.0,0.0,0.0,0.0,0.0,0.0,-3.8829,-3.8222,-3.7567,0.0,0.0,0.0,0.0,0.0,0.0,0.0,0.0,0.0,0.0,0.0,0.0,0.0,0.0,0.0,0.0,0.0,0.0,0.0,0.0,0.0,0.0,0.0,0.0,0.0,0.0,0.0,0.0,0.0,0.0,0.0,0.0,0.0,0.0,0.0,0.0,0.0,0.0,0.0,0.0,0.0,0.0,0.0,0.0,0.0,0.0,0.0,0.0,0.0,0.0,0.0,0.0,0.0,0.0,0.0,0.0,0.0,0.0,0.0,0.0,0.0,0.0,0.0,0.0,0.0,0.0,0.0,0.0,0.0,0.0,0.0,0.0,0.0,0.0,0.0,0.0,0.0,0.0,0.0,0.0,0.0,0.0,0.0,0.0,0.0,0.0,0.0,0.0,0.0,0.0,0.0,0.0,0.0,0.0,0.0,0.0,0.0,0.0,0.0,0.0,0.0,0.0,0.0,0.0,0.0,0.0,0.0,0.0,0.0,0.0,-3.9483,-4.0489,-4.0183,0.0,-3.6599,0.0,0.0,0.0,0.0,0.0,0.0,0.0,0.0,0.0,0.0,0.0,0.0,0.0,0.0,0.0,0.0,0.0,0.0,0.0,0.0,0.0,0.0,0.0,0.0,0.0,0.0,0.0,0.0,0.0,0.0,0.0,0.0,0.0,0.0,0.0,0.0,0.0,0.0,0.0,0.0,0.0,0.0,0.0,0.0,0.0,0.0,0.0,0.0,0.0,0.0,0.0,0.0,0.0,0.0,0.0,0.0,0.0,0.0,0.0,0.0,0.0,0.0,0.0,0.0,0.0,0.0,0.0,0.0,0.0,0.0,0.0,0.0,0.0,0.0,0.0,0.0,0.0,0.0,0.0,0.0,0.0,0.0,0.0,0.0,0.0,0.0,0.0,0.0,0.0,0.0,0.0,0.0,0.0,0.0,0.0,0.0,0.0,0.0,0.0,0.0,0.0,0.0,0.0,0.0,0.0,0.0,0.0,0.0,0.0,0.0,-4.0073,-3.9795,-3.9404,-3.8069,0.0,0.0,0.0,0.0,0.0,0.0,0.0,0.0,0.0,0.0,0.0,0.0,0.0,0.0,0.0,0.0,0.0,0.0,0.0,0.0,0.0,0.0,0.0,0.0,0.0,0.0,0.0,0.0,0.0,0.0,0.0,0.0,0.0,0.0,0.0,0.0,0.0,0.0,0.0,0.0,0.0,0.0,0.0,0.0,0.0,0.0,0.0,0.0,0.0,0.0,0.0,0.0,0.0,0.0,0.0,0.0,0.0,0.0,0.0,0.0,0.0,0.0,0.0,0.0,0.0,0.0,0.0,0.0,0.0,0.0,0.0,0.0,0.0,0.0,0.0,0.0,0.0,0.0,0.0,0.0,0.0,0.0,0.0,0.0,0.0,0.0,0.0,0.0,0.0,0.0,0.0,0.0,0.0,0.0,0.0,0.0,0.0,0.0,0.0,0.0,0.0,0.0,0.0,0.0,0.0,0.0,0.0,0.0,0.0,0.0,-4.0349,-4.0005,-3.9041,-3.793,-3.645,-3.4512,0.0,0.0,0.0,0.0,0.0,0.0,0.0,0.0,0.0,0.0,0.0,0.0,0.0,0.0,0.0,0.0,0.0,0.0,0.0,0.0,0.0,0.0,0.0,0.0,0.0,0.0,0.0,0.0,0.0,0.0,0.0,0.0,0.0,0.0,0.0,0.0,0.0,0.0,0.0,0.0,0.0,0.0,0.0,0.0,0.0,0.0,0.0,0.0,0.0,0.0,0.0,0.0,0.0,0.0,0.0,0.0,0.0,0.0,0.0,0.0,0.0,0.0,0.0,0.0,0.0,0.0,0.0,0.0,0.0,0.0,0.0,0.0,0.0,0.0,0.0,0.0,0.0,0.0,0.0,0.0,0.0,0.0,0.0,0.0,0.0,0.0,0.0,0.0,0.0,0.0,0.0,0.0,0.0,0.0,0.0,0.0,0.0,0.0,0.0,0.0,0.0,0.0,0.0,0.0,0.0,0.0,0.0,0.0,-4.2476,-4.0465,-3.8999,-3.8485,-3.6017,-3.4165,0.0,0.0,0.0,0.0,0.0,0.0,0.0,0.0,0.0,0.0,0.0,0.0,0.0,0.0,0.0,0.0,0.0,0.0,0.0,0.0,0.0,0.0,0.0,0.0,0.0,0.0,0.0,0.0,0.0,0.0,0.0,0.0,0.0,0.0,0.0,0.0,0.0,0.0,0.0,0.0,0.0,0.0,0.0,0.0,0.0,0.0,0.0,0.0,0.0,0.0,0.0,0.0,0.0,0.0,0.0,0.0,0.0,0.0,0.0,0.0,0.0,0.0,0.0,0.0,0.0,0.0,0.0,0.0,0.0,0.0,0.0,0.0,0.0,0.0,0.0,0.0,0.0,0.0,0.0,0.0,0.0,0.0,0.0,0.0,0.0,0.0,0.0,0.0,0.0,0.0,0.0,0.0,0.0,0.0,0.0,0.0,0.0,0.0,0.0,0.0,0.0,0.0,0.0,0.0,0.0,0.0,0.0,0.0,0.0,-4.0654,-3.8781,-3.7724,-3.7689,-3.5037,-3.3302,0.0,0.0,0.0,0.0,0.0,0.0,0.0,0.0,0.0,0.0,0.0,0.0,0.0,0.0,0.0,0.0,0.0,0.0,0.0,0.0,0.0,0.0,0.0,0.0,0.0,0.0,0.0,0.0,0.0,0.0,0.0,0.0,0.0,0.0,0.0,0.0,0.0,0.0,0.0,0.0,0.0,0.0,0.0,0.0,0.0,0.0,0.0,0.0,0.0,0.0,0.0,0.0,0.0,0.0,0.0,0.0,0.0,0.0,0.0,0.0,0.0,0.0,0.0,0.0,0.0,0.0,0.0,0.0,0.0,0.0,0.0,0.0,0.0,0.0,0.0,0.0,0.0,0.0,0.0,0.0,0.0,0.0,0.0,0.0,0.0,0.0,0.0,0.0,0.0,0.0,0.0,0.0,0.0,0.0,0.0,0.0,0.0,0.0,0.0,0.0,0.0,0.0,0.0,0.0,0.0,0.0,0.0,0.0,0.0,-3.9045,0.0,-3.6331,-3.571,-3.3279,-3.1501,0.0,0.0,0.0,0.0,0.0,0.0,0.0,0.0,0.0,0.0,0.0,0.0,0.0,0.0,0.0,0.0,0.0,0.0,0.0,0.0,0.0,0.0,0.0,0.0,0.0,0.0,0.0,0.0,0.0,0.0,0.0,0.0,0.0,0.0,0.0,0.0,0.0,0.0,0.0,0.0,0.0,0.0,0.0,0.0,0.0,0.0,0.0,0.0,0.0,0.0,0.0,0.0,0.0,0.0,0.0,0.0,0.0,0.0,0.0,0.0,0.0,0.0,0.0,0.0,0.0,0.0,0.0,0.0,0.0,0.0,0.0,0.0,0.0,0.0,0.0,0.0,0.0,0.0,0.0,0.0,0.0,0.0,0.0,0.0,0.0,0.0,0.0,0.0,0.0,0.0,0.0,0.0,0.0,0.0,0.0,0.0,0.0,0.0,0.0,0.0,0.0,0.0,0.0,0.0,0.0,0.0,0.0,0.0,-3.8986,-3.7976,-3.6437,-3.4692,-3.258,-3.0748,-2.8834,0.0,0.0,0.0,0.0,0.0,0.0,0.0,0.0,0.0,0.0,0.0,0.0,0.0,0.0,0.0,0.0,0.0,0.0,0.0,0.0,0.0,0.0,0.0,0.0,0.0,0.0,0.0,0.0,0.0,0.0,0.0,0.0,0.0,0.0,0.0,0.0,0.0,0.0,0.0,0.0,0.0,0.0,0.0,0.0,0.0,0.0,0.0,0.0,0.0,0.0,0.0,0.0,0.0,0.0,0.0,0.0,0.0,0.0,0.0,0.0,0.0,0.0,0.0,0.0,0.0,0.0,0.0,0.0,0.0,0.0,0.0,0.0,0.0,0.0,0.0,0.0,0.0,0.0,0.0,0.0,0.0,0.0,0.0,0.0,0.0,0.0,0.0,0.0,0.0,0.0,0.0,0.0,0.0,0.0,0.0,0.0,0.0,0.0,0.0,0.0,0.0,0.0,0.0,0.0,0.0,0.0,0.0,0.0,0.0,-3.6971,-3.5331,-3.371,-3.1991,-2.9984,-2.8932,0.0,0.0,0.0,0.0,0.0,0.0,0.0,0.0,0.0,0.0,0.0,0.0,0.0,0.0,0.0,0.0,0.0,0.0,0.0,0.0,0.0,0.0,0.0,0.0,0.0,0.0,0.0,0.0,0.0,0.0,0.0,0.0,0.0,0.0,0.0,0.0,0.0,0.0,0.0,0.0,0.0,0.0,0.0,0.0,0.0,0.0,0.0,0.0,0.0,0.0,0.0,0.0,0.0,0.0,0.0,0.0,0.0,0.0,0.0,0.0,0.0,0.0,0.0,0.0,0.0,0.0,0.0,0.0,0.0,0.0,0.0,0.0,0.0,0.0,0.0,0.0,0.0,0.0,0.0,0.0,0.0,0.0,0.0,0.0,0.0,0.0,0.0,0.0,0.0,0.0,0.0,0.0,0.0,0.0,0.0,0.0,0.0,0.0,0.0,0.0,0.0,0.0,0.0,0.0,0.0,0.0,0.0,0.0,0.0,-3.669,-3.4942,-3.318,-3.1451,-2.9515,-2.8517,-2.8751,0.0,0.0,0.0,0.0,0.0,0.0,0.0,0.0,0.0,0.0,0.0,0.0,0.0,0.0,0.0,0.0,0.0,0.0,0.0,0.0,0.0,0.0,0.0,0.0,0.0,0.0,0.0,0.0,0.0,0.0,0.0,0.0,0.0,0.0,0.0,0.0,0.0,0.0,0.0,0.0,0.0,0.0,0.0,0.0,0.0,0.0,0.0,0.0,0.0,0.0,0.0,0.0,0.0,0.0,0.0,0.0,0.0,0.0,0.0,0.0,0.0,0.0,0.0,0.0,0.0,0.0,0.0,0.0,0.0,0.0,0.0,0.0,0.0,0.0,0.0,0.0,0.0,0.0,0.0,0.0,0.0,0.0,0.0,0.0,0.0,0.0,0.0,0.0,0.0,0.0,0.0,0.0,0.0,0.0,0.0,0.0,0.0,0.0,0.0,0.0,0.0,0.0,0.0,0.0,0.0,0.0,0.0,0.0,-3.7072,-3.5283,-3.3332,-3.1077,-2.9303,-2.7861,0.0,0.0,0.0,0.0,0.0,0.0,0.0,0.0,0.0,0.0,0.0,0.0,0.0,0.0,0.0,0.0,0.0,0.0,0.0,0.0,0.0,0.0,0.0,0.0,0.0,0.0,0.0,0.0,0.0,0.0,0.0,0.0,0.0,0.0,0.0,0.0,0.0,0.0,0.0,0.0,0.0,0.0,0.0,0.0,0.0,0.0,0.0,0.0,0.0,0.0,0.0,0.0,0.0,0.0,0.0,0.0,0.0,0.0,0.0,0.0,0.0,0.0,0.0,0.0,0.0,0.0,0.0,0.0,0.0,0.0,0.0,0.0,0.0,0.0,0.0,0.0,0.0,0.0,0.0,0.0,0.0,0.0,0.0,0.0,0.0,0.0,0.0,0.0,0.0,0.0,0.0,0.0,0.0,0.0,0.0,0.0,0.0,0.0,0.0,0.0,0.0,0.0,0.0,0.0,0.0,0.0,0.0,0.0,0.0,-3.8542,-3.7342,-3.519,-3.2036,-3.1074,-3.0081,0.0,0.0,0.0,0.0,0.0,0.0,0.0,0.0,0.0,0.0,0.0,0.0,0.0,0.0,0.0,0.0,0.0,0.0,0.0,0.0,0.0,0.0,0.0,0.0,0.0,0.0,0.0,0.0,0.0,0.0,0.0,0.0,0.0,0.0,0.0,0.0,0.0,0.0,0.0,0.0,0.0,0.0,0.0,0.0,0.0,0.0,0.0,0.0,0.0,0.0,0.0,0.0,0.0,0.0,0.0,0.0,0.0,0.0,0.0,0.0,0.0,0.0,0.0,0.0,0.0,0.0,0.0,0.0,0.0,0.0,0.0,0.0,0.0,0.0,0.0,0.0,0.0,0.0,0.0,0.0,0.0,0.0,0.0,0.0,0.0,0.0,0.0,0.0,0.0,0.0,0.0,0.0,0.0,0.0,0.0,0.0,0.0,0.0,0.0,0.0,0.0,0.0,0.0,0.0,0.0,0.0,0.0,0.0,-4.0746,-3.9124,-3.8766,-3.7084,-3.3878,-3.2588,-3.1524,0.0,0.0,0.0,0.0,0.0,0.0,0.0,0.0,0.0,0.0,0.0,0.0,0.0,0.0,0.0,0.0,0.0,0.0,0.0,0.0,0.0,0.0,0.0,0.0,0.0,0.0,0.0,0.0,0.0,0.0,0.0,0.0,0.0,0.0,0.0,0.0,0.0,0.0,0.0,0.0,0.0,0.0,0.0,0.0,0.0,0.0,0.0,0.0,0.0,0.0,0.0,0.0,0.0,0.0,0.0,0.0,0.0,0.0,0.0,0.0,0.0,0.0,0.0,0.0,0.0,0.0,0.0,0.0,0.0,0.0,0.0,0.0,0.0,0.0,0.0,0.0,0.0,0.0,0.0,0.0,0.0,0.0,0.0,0.0,0.0,0.0,0.0,0.0,0.0,0.0,0.0,0.0,0.0,0.0,0.0,0.0,0.0,0.0,0.0,0.0,0.0,0.0,0.0,0.0,0.0,0.0,0.0,0.0,-4.0966,-3.9203,-3.9724,-3.8739,-3.6054,-3.3923,-3.2663,0.0,0.0,0.0,0.0,0.0,0.0,0.0,0.0,0.0,0.0,0.0,0.0,0.0,0.0,0.0,0.0,0.0,0.0,0.0,0.0,0.0,0.0,0.0,0.0,0.0,0.0,0.0,0.0,0.0,0.0,0.0,0.0,0.0,0.0,0.0,0.0,0.0,0.0,0.0,0.0,0.0,0.0,0.0,0.0,0.0,0.0,0.0,0.0,0.0,0.0,0.0,0.0,0.0,0.0,0.0,0.0,0.0,0.0,0.0,0.0,0.0,0.0,0.0,0.0,0.0,0.0,0.0,0.0,0.0,0.0,0.0,0.0,0.0,0.0,0.0,0.0,0.0,0.0,0.0,0.0,0.0,0.0,0.0,0.0,0.0,0.0,0.0,0.0,0.0,0.0,0.0,0.0,0.0,0.0,0.0,0.0,0.0,0.0,0.0,0.0,0.0,0.0,0.0,0.0,0.0,0.0,0.0,0.0,-4.2571,-3.9907,-4.0311,-3.9548,-3.7239,-3.5794,-3.4142,0.0,0.0,0.0,0.0,0.0,0.0,0.0,0.0,0.0,0.0,0.0,0.0,0.0,0.0,0.0,0.0,0.0,0.0,0.0,0.0,0.0,0.0,0.0,0.0,0.0,0.0,0.0,0.0,0.0,0.0,0.0,0.0,0.0,0.0,0.0,0.0,0.0,0.0,0.0,0.0,0.0,0.0,0.0,0.0,0.0,0.0,0.0,0.0,-4.4756,0.0,0.0,0.0,0.0,0.0,0.0,0.0,0.0,0.0,0.0,0.0,0.0,0.0,0.0,0.0,0.0,0.0,0.0,0.0,0.0,0.0,0.0,0.0,0.0,0.0,0.0,0.0,0.0,0.0,0.0,0.0,0.0,0.0,0.0,0.0,0.0,0.0,0.0,0.0,0.0,0.0,0.0,0.0,0.0,0.0,0.0,0.0,0.0,0.0,0.0,0.0,0.0,0.0,0.0,0.0,0.0,0.0,0.0,0.0,-4.328,-4.0587,-4.0834,-3.9994,-3.7868,-3.6892,-3.5553,0.0,0.0,0.0,0.0,0.0,0.0,0.0,0.0,0.0,0.0,0.0,0.0,0.0,0.0,0.0,0.0,0.0,0.0,0.0,0.0,0.0,0.0,0.0,0.0,0.0,0.0,0.0,0.0,0.0,0.0,0.0,0.0,0.0,0.0,0.0,0.0,0.0,0.0,0.0,0.0,0.0,0.0,0.0,0.0,0.0,0.0,0.0,0.0,0.0,0.0,0.0,0.0,0.0,0.0,0.0,0.0,0.0,0.0,0.0,0.0,0.0,0.0,0.0,0.0,0.0,0.0,0.0,0.0,0.0,0.0,0.0,0.0,0.0,0.0,0.0,0.0,0.0,0.0,0.0,0.0,0.0,0.0,0.0,0.0,0.0,0.0,0.0,0.0,0.0,0.0,0.0,0.0,0.0,0.0,0.0,0.0,0.0,0.0,0.0,0.0,0.0,0.0,0.0,0.0,0.0,0.0,0.0,-4.4016,-4.3183,-4.1109,-4.109,-4.0224,-3.808,-3.7541,-3.6668,-3.5442,0.0,0.0,0.0,0.0,0.0,0.0,0.0,0.0,0.0,0.0,0.0,0.0,0.0,0.0,0.0,0.0,0.0,0.0,0.0,0.0,0.0,0.0,0.0,0.0,0.0,0.0,0.0,0.0,0.0,0.0,0.0,0.0,0.0,0.0,0.0,0.0,0.0,0.0,-5.0262,-5.1276,0.0,0.0,0.0,0.0,0.0,0.0,0.0,0.0,-4.2247,0.0,0.0,0.0,0.0,0.0,0.0,0.0,0.0,0.0,0.0,0.0,0.0,0.0,0.0,0.0,0.0,0.0,0.0,0.0,0.0,0.0,0.0,0.0,0.0,0.0,0.0,0.0,0.0,0.0,0.0,0.0,0.0,0.0,0.0,0.0,0.0,0.0,0.0,0.0,0.0,0.0,0.0,0.0,0.0,0.0,0.0,0.0,0.0,0.0,0.0,0.0,0.0,0.0,0.0,0.0,0.0,-4.4128,-4.3349,-4.2296,-4.1026,-4.109,-4.0211,-3.8068,-3.7902,-3.7248,-3.5963,0.0,0.0,0.0,0.0,0.0,0.0,0.0,0.0,0.0,0.0,0.0,0.0,0.0,0.0,0.0,0.0,0.0,0.0,0.0,0.0,0.0,0.0,0.0,0.0,0.0,0.0,0.0,0.0,0.0,0.0,0.0,0.0,0.0,0.0,0.0,0.0,0.0,0.0,0.0,-5.2773,-5.2681,0.0,0.0,0.0,0.0,0.0,0.0,0.0,0.0,-4.0387,0.0,0.0,0.0,0.0,0.0,0.0,0.0,0.0,0.0,0.0,0.0,0.0,0.0,0.0,0.0,0.0,0.0,0.0,0.0,0.0,0.0,0.0,0.0,0.0,0.0,0.0,0.0,0.0,0.0,0.0,0.0,0.0,0.0,0.0,0.0,0.0,0.0,0.0,0.0,0.0,0.0,0.0,0.0,0.0,0.0,0.0,0.0,0.0,0.0,0.0,0.0,0.0,0.0,0.0,0.0,-4.3639,-4.3558,-4.2837,-4.1549,-4.1248,-4.0211,-3.8068,-3.718,-3.6367,0.0,0.0,0.0,0.0,0.0,0.0,0.0,0.0,0.0,0.0,0.0,0.0,0.0,0.0,0.0,0.0,0.0,0.0,0.0,0.0,0.0,0.0,0.0,0.0,0.0,0.0,0.0,0.0,0.0,0.0,0.0,0.0,0.0,0.0,0.0,0.0,0.0,0.0,0.0,0.0,-5.2582,-5.1826,-4.9726,0.0,0.0,0.0,0.0,0.0,0.0,-4.1099,-4.0847,0.0,0.0,0.0,0.0,0.0,0.0,0.0,0.0,0.0,0.0,0.0,0.0,0.0,0.0,0.0,0.0,0.0,0.0,0.0,0.0,0.0,0.0,0.0,0.0,0.0,0.0,0.0,0.0,0.0,0.0,0.0,0.0,0.0,0.0,0.0,0.0,0.0,0.0,0.0,0.0,0.0,0.0,0.0,0.0,0.0,0.0,0.0,0.0,0.0,0.0,0.0,0.0,0.0,0.0,0.0,-4.3166,-4.359,-4.3364,-4.2242,-4.169,-4.0414,-3.8477,-3.6964,-3.5999,0.0,0.0,0.0,0.0,0.0,0.0,0.0,0.0,0.0,0.0,0.0,0.0,0.0,0.0,0.0,0.0,0.0,0.0,0.0,0.0,0.0,0.0,0.0,0.0,0.0,0.0,0.0,0.0,0.0,0.0,0.0,0.0,0.0,0.0,0.0,0.0,0.0,0.0,0.0,0.0,0.0,-5.0651,-4.807,-4.6198,0.0,0.0,0.0,0.0,-4.1695,-4.1765,0.0,0.0,0.0,0.0,0.0,0.0,0.0,0.0,0.0,0.0,0.0,0.0,0.0,0.0,0.0,0.0,0.0,0.0,0.0,0.0,0.0,0.0,0.0,0.0,0.0,0.0,0.0,0.0,0.0,0.0,0.0,0.0,0.0,0.0,0.0,0.0,0.0,0.0,0.0,0.0,0.0,0.0,0.0,0.0,0.0,0.0,0.0,0.0,0.0,0.0,0.0,0.0,0.0,0.0,0.0,0.0,-4.3089,-4.2372,-4.242,-4.3176,-4.235,-4.1206,-3.9827,-3.884,-3.7915,0.0,0.0,0.0,0.0,0.0,0.0,0.0,0.0,0.0,0.0,0.0,0.0,0.0,0.0,0.0,0.0,0.0,0.0,0.0,0.0,0.0,0.0,0.0,0.0,0.0,0.0,0.0,0.0,0.0,0.0,0.0,0.0,0.0,0.0,0.0,0.0,0.0,0.0,0.0,0.0,0.0,-4.9952,-4.6785,-4.5625,-4.4682,0.0,0.0,-4.289,-4.3849,-4.3764,0.0,0.0,0.0,0.0,0.0,0.0,0.0,0.0,0.0,0.0,0.0,0.0,0.0,0.0,0.0,0.0,0.0,0.0,0.0,0.0,0.0,0.0,0.0,0.0,0.0,0.0,0.0,0.0,0.0,0.0,0.0,0.0,0.0,0.0,0.0,0.0,0.0,0.0,0.0,0.0,0.0,0.0,0.0,0.0,0.0,0.0,0.0,0.0,0.0,0.0,0.0,0.0,0.0,0.0,0.0,-4.1143,-4.2526,-4.2702,-4.3105,-4.3704,-4.3109,-4.2252,-4.1067,-3.9537,-3.835,0.0,0.0,0.0,0.0,0.0,0.0,0.0,0.0,0.0,0.0,0.0,0.0,0.0,0.0,0.0,0.0,0.0,0.0,0.0,0.0,0.0,0.0,0.0,0.0,0.0,0.0,0.0,0.0,0.0,0.0,0.0,0.0,0.0,0.0,0.0,0.0,0.0,0.0,0.0,0.0,0.0,0.0,-4.6491,-4.5106,0.0,0.0,0.0,-4.423,-4.501,0.0,0.0,0.0,0.0,0.0,0.0,0.0,0.0,0.0,0.0,0.0,0.0,0.0,0.0,0.0,0.0,0.0,0.0,0.0,0.0,0.0,0.0,0.0,0.0,0.0,0.0,0.0,0.0,0.0,0.0,0.0,0.0,0.0,0.0,0.0,0.0,0.0,0.0,0.0,0.0,0.0,0.0,0.0,0.0,0.0,0.0,0.0,0.0,0.0,0.0,0.0,0.0,0.0,0.0,0.0,0.0,0.0,-4.2358,-4.3419,-4.4091,-4.4335,-4.3895,-4.3313,-4.2407,-4.0481,0.0,0.0,0.0,0.0,0.0,0.0,0.0,0.0,0.0,0.0,0.0,0.0,0.0,0.0,0.0,0.0,0.0,0.0,0.0,0.0,0.0,0.0,0.0,0.0,0.0,0.0,0.0,-4.5427,0.0,0.0,0.0,0.0,0.0,0.0,0.0,0.0,0.0,0.0,0.0,0.0,0.0,0.0,-4.7837,-4.5954,-4.4931,-4.4591,0.0,0.0,-4.5942,-4.6497,-4.7833,-4.8013,0.0,0.0,0.0,0.0,0.0,0.0,0.0,0.0,0.0,0.0,0.0,0.0,0.0,0.0,0.0,0.0,0.0,0.0,0.0,0.0,0.0,0.0,0.0,0.0,0.0,0.0,0.0,0.0,0.0,0.0,0.0,0.0,0.0,0.0,0.0,0.0,0.0,0.0,0.0,0.0,0.0,0.0,0.0,0.0,0.0,0.0,0.0,0.0,0.0,0.0,0.0,0.0,0.0,0.0,0.0,-4.3225,-4.4439,-4.5224,-4.5341,-4.4606,-4.4139,-4.3871,-4.2357,-4.0882,0.0,0.0,0.0,0.0,0.0,0.0,0.0,0.0,0.0,0.0,0.0,0.0,0.0,0.0,0.0,0.0,0.0,0.0,0.0,0.0,0.0,0.0,0.0,0.0,0.0,0.0,0.0,0.0,0.0,0.0,0.0,0.0,0.0,0.0,0.0,0.0,0.0,0.0,0.0,0.0,0.0,-4.6504,-4.4683,-4.5434,-4.6212,0.0,0.0,-4.8627,-4.9112,-4.9816,-4.9609,-4.7169,0.0,0.0,0.0,0.0,0.0,0.0,0.0,0.0,0.0,0.0,0.0,0.0,0.0,0.0,0.0,0.0,0.0,0.0,0.0,0.0,0.0,0.0,0.0,0.0,0.0,0.0,0.0,0.0,0.0,0.0,0.0,0.0,0.0,0.0,0.0,0.0,0.0,0.0,0.0,0.0,0.0,0.0,0.0,0.0,0.0,0.0,0.0,0.0,0.0,0.0,0.0,0.0,0.0,-4.3481,-4.3256,-4.4941,-4.5794,-4.5747,-4.5384,-4.5201,-4.5216,-4.418,-4.3281,0.0,0.0,0.0,0.0,0.0,0.0,0.0,0.0,0.0,0.0,0.0,0.0,0.0,0.0,0.0,0.0,0.0,0.0,0.0,0.0,0.0,0.0,0.0,0.0,0.0,0.0,0.0,0.0,-4.8146,-4.801,-4.7017,0.0,0.0,0.0,0.0,0.0,0.0,0.0,0.0,0.0,0.0,-4.8551,-4.7996,-4.8149,0.0,0.0,-5.0379,-5.0839,-5.1715,-5.1189,-5.0095,-4.843,-4.8294,0.0,0.0,0.0,0.0,0.0,0.0,0.0,0.0,0.0,0.0,0.0,0.0,0.0,0.0,0.0,0.0,0.0,0.0,0.0,0.0,0.0,0.0,0.0,0.0,0.0,0.0,0.0,0.0,0.0,0.0,0.0,0.0,0.0,0.0,0.0,0.0,0.0,0.0,0.0,0.0,0.0,0.0,0.0,0.0,0.0,0.0,0.0,0.0,0.0,0.0,0.0,0.0,-4.4134,-4.392,-4.6131,-4.7066,-4.6711,-4.6904,-4.6904,-4.6697,-4.5853,-4.5144,0.0,0.0,0.0,0.0,0.0,0.0,0.0,0.0,0.0,0.0,0.0,0.0,0.0,0.0,0.0,0.0,0.0,0.0,0.0,0.0,0.0,0.0,0.0,0.0,0.0,0.0,0.0,0.0,-4.9078,-4.8364,-4.7303,0.0,0.0,0.0,0.0,0.0,0.0,0.0,0.0,0.0,0.0,-5.0196,-5.0303,-5.0233,-5.0673,-5.1967,-5.2315,-5.2515,-5.311,-5.2403,-5.1339,-4.9975,0.0,0.0,0.0,0.0,0.0,0.0,0.0,0.0,0.0,0.0,0.0,0.0,0.0,0.0,0.0,0.0,0.0,0.0,0.0,0.0,0.0,0.0,0.0,0.0,0.0,0.0,0.0,0.0,0.0,0.0,-3.7609,0.0,0.0,0.0,0.0,0.0,0.0,0.0,0.0,0.0,0.0,0.0,0.0,0.0,0.0,0.0,0.0,0.0,0.0,0.0,0.0,0.0,0.0,-4.5672,-4.5593,-4.829,-4.9327,-4.8444,-4.9143,-4.9074,-4.8429,-4.7138,-4.6203,-4.5573,0.0,0.0,0.0,0.0,0.0,0.0,0.0,0.0,0.0,0.0,0.0,0.0,0.0,0.0,0.0,0.0,0.0,0.0,0.0,0.0,0.0,0.0,0.0,0.0,0.0,0.0,-4.9749,-4.7822,-4.6507,0.0,0.0,0.0,0.0,0.0,0.0,0.0,0.0,0.0,0.0,-5.0493,-5.0946,-5.0666,-5.1119,-5.1666,-5.1695,-5.2836,-5.3555,-5.3074,-5.3614,-5.3607,0.0,0.0,0.0,0.0,0.0,0.0,0.0,0.0,0.0,0.0,0.0,0.0,0.0,0.0,0.0,0.0,0.0,0.0,0.0,0.0,0.0,0.0,0.0,0.0,0.0,0.0,0.0,-4.2348,-4.1024,0.0,0.0,0.0,0.0,0.0,0.0,0.0,0.0,0.0,0.0,0.0,-4.6919,-4.7888,0.0,0.0,0.0,0.0,0.0,0.0,0.0,0.0,0.0,0.0,0.0,0.0,-4.572,-4.576,-4.7988,-4.8984,-4.8496,-4.8743,-4.8727,-4.8512,-4.765,-4.6718,-4.5697,0.0,0.0,0.0,0.0,0.0,0.0,0.0,0.0,0.0,0.0,0.0,0.0,0.0,0.0,0.0,0.0,0.0,0.0,0.0,0.0,0.0,0.0,0.0,0.0,0.0,-5.0202,0.0,0.0,0.0,0.0,0.0,0.0,0.0,0.0,0.0,0.0,0.0,-5.0391,-5.0468,-5.1831,-5.279,-5.2689,-5.3261,-5.3979,0.0,0.0,0.0,0.0,0.0,0.0,0.0,0.0,0.0,0.0,0.0,0.0,0.0,0.0,-5.8229,-5.3962,-5.3115,-5.3251,-5.3964,0.0,0.0,0.0,0.0,0.0,0.0,0.0,0.0,0.0,0.0,0.0,0.0,0.0,0.0,0.0,0.0,-4.3274,0.0,0.0,0.0,0.0,0.0,0.0,0.0,0.0,-4.9354,-4.9892,-4.9425,-5.0176,-4.9751,0.0,-4.8541,-4.7329,0.0,0.0,0.0,0.0,0.0,0.0,0.0,0.0,-4.6617,-4.7164,-4.8786,-4.9439,-4.9047,-4.9062,-4.9126,-4.9316,-4.8929,-4.8352,-4.7469,-4.847,-4.8908,0.0,0.0,0.0,0.0,0.0,0.0,0.0,0.0,0.0,0.0,0.0,0.0,0.0,0.0,0.0,0.0,0.0,0.0,0.0,0.0,0.0,0.0,0.0,-5.0407,0.0,0.0,0.0,0.0,0.0,0.0,0.0,0.0,0.0,-5.0609,-5.1382,-5.2124,-5.2461,-5.3615,-5.4526,-5.4871,0.0,0.0,0.0,0.0,0.0,0.0,0.0,-5.635,-5.6997,-5.707,-5.7199,-5.7773,-5.9577,-6.0809,-6.0575,0.0,0.0,-5.7443,-5.6696,-5.6875,-5.7833,-5.7614,-5.7571,-5.8186,-5.795,-5.7453,0.0,0.0,0.0,0.0,0.0,0.0,0.0,0.0,-4.5632,-4.6037,0.0,-4.6036,0.0,0.0,0.0,0.0,0.0,-4.7707,0.0,0.0,-5.1226,-5.2248,-5.2264,-5.1639,-5.1932,-5.3041,-5.2279,-5.1545,-5.0543,-4.7537,0.0,0.0,0.0,0.0,0.0,0.0,-4.838,-4.9747,-5.0692,-5.0837,-5.0156,-5.014,-5.0399,-5.0905,-5.0994,-5.0929,-5.0729,-5.072,-5.0812,-5.0855,-5.0785,0.0,0.0,0.0,0.0,0.0,0.0,0.0,0.0,0.0,0.0,0.0,0.0,0.0,0.0,0.0,0.0,0.0,0.0,0.0,0.0,-5.1021,0.0,0.0,0.0,0.0,0.0,0.0,0.0,0.0,0.0,0.0,-5.4252,-5.3839,-5.4099,-5.5532,0.0,0.0,0.0,0.0,-5.6331,-5.7116,-5.7211,-5.7243,-5.7301,-5.7825,-5.8361,-5.8857,0.0,0.0,-6.0562,-6.135,-6.1761,-6.1155,-6.1767,-6.2285,-6.1975,-6.1312,-6.1146,-6.1214,-6.1112,-6.0977,-6.0334,-6.0047,-5.9793,-4.7585,0.0,0.0,0.0,0.0,-4.725,-4.7768,-4.8407,-4.9866,-4.976,-4.8715,-4.9016,0.0,0.0,0.0,0.0,0.0,0.0,-5.0069,-5.1162,-5.2148,-5.3208,-5.4146,-5.4031,-5.3824,-5.3656,-5.3463,-5.296,-5.2167,-5.0775,-4.8728,-4.6124,0.0,0.0,0.0,0.0,-4.8725,-4.9659,-5.0373,-5.0687,-5.0504,-5.0659,-5.0944,-5.1352,-5.1407,-5.146,-5.1424,-5.1964,-5.2272,-5.2323,-5.1772,0.0,0.0,0.0,0.0,0.0,0.0,0.0,0.0,0.0,0.0,0.0,0.0,0.0,0.0,0.0,0.0,0.0,0.0,0.0,-4.9409,-5.0032,-5.0425,0.0,0.0,0.0,0.0,0.0,0.0,0.0,0.0,0.0,-5.828,-5.7433,-5.6727,0.0,0.0,-5.7259,-5.7121,-5.7295,-5.7926,-5.8936,0.0,0.0,0.0,-6.0554,-6.0704,-6.0886,-6.1036,-6.1185,-6.1344,-6.1719,-6.1929,-6.1728,-6.2054,-6.2381,-6.2251,-6.1711,-6.1518,-6.1907,-6.1687,-6.1264,-6.1028,-6.096,-6.0554,-4.9772,-4.8255,-4.7932,-4.8219,-4.8866,-4.9266,-4.9835,-5.0543,-5.2129,-5.2461,-5.1917,-5.2043,-5.1483,-5.0357,-4.9061,0.0,0.0,0.0,-5.1144,-5.2345,-5.2627,-5.3235,-5.4088,-5.4142,-5.3827,-5.333,-5.3328,-5.3085,-5.2552,-5.2177,-5.0701,-4.8276,0.0,0.0,-4.8226,-4.8889,-4.9573,-5.0281,-5.0351,-5.0337,-5.0354,-5.0786,-5.1052,-5.1089,-5.1625,-5.1981,-5.2163,-5.2927,-5.3332,-5.3332,-5.3021,-5.2269,0.0,0.0,0.0,0.0,0.0,0.0,0.0,0.0,0.0,0.0,0.0,-4.9246,0.0,0.0,0.0,0.0,-4.887,-4.9742,-5.0477,-5.1343,0.0,0.0,0.0,0.0,0.0,0.0,0.0,-5.8508,-5.9297,-5.9828,-6.0308,-5.9879,-5.9201,-5.8398,-5.8478,-5.8615,-5.8923,0.0,-5.9491,-6.0501,-6.0997,-6.1399,-6.1678,-6.1692,-6.1592,-6.1388,-6.1165,-6.1211,-6.1497,-6.1672,-6.1852,-6.2105,-6.2285,-6.2398,-6.2398,-6.1806,-6.1535,-6.2212,-6.2042,-6.1653,-6.1383,-6.1044,-6.0469,-5.0823,-5.0715,-5.0228,-5.0267,-5.0768,-5.083,-5.1287,-5.1992,-5.3106,-5.41,-5.4922,-5.4677,-5.3956,-5.2857,-5.0892,0.0,-5.0977,-5.1648,-5.232,-5.2905,-5.2905,-5.2905,-5.2957,-5.2994,-5.2806,-5.2578,-5.2581,-5.245,-5.2218,-5.2218,-5.1873,-5.1218,-5.071,-5.0676,-5.1114,-5.0659,-5.0754,-5.1401,-5.0527,-5.004,-5.0034,-5.0814,-5.1024,-5.0605,-5.1705,-5.2395,-5.2758,-5.3526,-5.3919,-5.3846,-5.4259,-5.3626,-5.1732,0.0,0.0,0.0,0.0,0.0,0.0,0.0,0.0,0.0,0.0,0.0,0.0,0.0,0.0,0.0,-5.0549,0.0,-5.3298,-5.4078,0.0,0.0,0.0,-5.6521,-5.7448,-5.9554,-6.0589,-5.9866,0.0,0.0,-6.1014,0.0,-6.1497,-6.0468,-5.9842,-5.9944,-6.1528,-6.106,-6.0922,-6.1528,-6.1776,-6.1776,-6.1673,-6.1572,-6.1316,-6.0768,-6.035,-6.0452,-6.1044,-6.1214,-6.1484,-6.1992,-6.2195,-6.2178,-6.2178,-6.1569,-6.1417,-6.2009,-6.2195,-6.2042,-6.1298,-6.0639,-5.9894,-5.1704,-5.1805,-5.2157,-5.2009,-5.167,-5.2172,-5.2907,-5.3629,-5.4405,-5.4868,-5.5021,-5.4336,-5.3857,-5.3516,-5.3382,-5.3181,-5.3041,-5.3604,-5.3727,-5.355,-5.3898,-5.4093,-5.4093,-5.4089,-5.3781,-5.3203,-5.3197,-5.2822,-5.2235,-5.2166,-5.2132,-5.1959,-5.2062,-5.1887,-5.1431,-5.1298,-5.1442,-5.1865,-5.1598,-5.1329,-5.0974,-5.1209,-5.1335,-5.1401,-5.1111,-5.1097,-5.1437,-5.2882,-5.3159,-5.2172,-5.3344,-5.2999,-5.0732,-4.9853,0.0,0.0,0.0,0.0,0.0,0.0,0.0,0.0,0.0,-5.2083,-4.9531,0.0,-5.2318,0.0,-5.161,-5.2573,-5.4376,-5.4678,0.0,0.0,-5.9242,-5.9686,-6.2065,-6.2327,-6.2312,-6.2333,-6.3286,-6.3639,-6.2901,-6.2946,-6.2762,-6.1997,-6.1444,-6.1232,-6.1676,-6.1592,-6.1572,-6.1934,-6.2388,-6.2502,-6.1503,-6.0856,-6.0249,-5.9582,-5.9827,-6.0165,-6.0351,-6.0385,-6.0436,-6.0605,-6.0639,-6.0639,-6.0689,-6.0486,-6.0452,-6.0639,-6.1129,-6.1315,-6.0554,-6.0216,-5.9556,-5.1545,-5.1685,-5.2074,-5.2175,-5.2117,-5.2781,-5.3359,-5.3821,-5.4366,-5.4824,-5.5114,-5.4833,-5.4464,-5.4063,-5.4367,-5.4132,-5.3665,-5.423,-5.4321,-5.4093,-5.404,-5.4011,-5.4011,-5.3649,-5.3087,-5.2406,-5.2364,-5.1959,-5.1242,-5.12,-5.145,-5.1862,-5.1904,-5.219,-5.2639,-5.2026,-5.1829,-5.1997,-5.1772,-5.1776,-5.2021,-5.1782,-5.1772,-5.192,-5.1682,-5.1246,-5.0723,-5.2599,-5.2999,-5.1624,-5.2839,-5.2937,-5.1449,-5.0922,-5.0401,0.0,0.0,0.0,0.0,0.0,0.0,0.0,0.0,0.0,0.0,0.0,-5.437,0.0,-5.4419,-5.5501,-5.7168,-5.7987,-5.9604,-6.2389,-6.2085,-6.2316,-6.3973,-6.4079,-6.4009,-6.3849,-6.4463,-6.4673,-6.4111,-6.3987,-6.3705,-6.2975,-6.261,-6.2353,-6.1992,-6.1795,-6.166,-6.2139,-6.229,-6.1987,-6.0926,-6.0114,-5.9638,-5.9451,-5.927,-5.9292,-5.9967,-5.9831,-5.9725,-6.003,-6.0097,-6.0248,-6.0512,-6.0296,-6.0194,-6.0591,-6.093,-6.0771,-5.9858,-5.9624,-5.9032,-5.1294,-5.1369,-5.1459,-5.1826,-5.2495,-5.3023,-5.3302,-5.3504,-5.3931,-5.4489,-5.5139,-5.5289,-5.4977,-5.4374,-5.427,-5.3925,-5.346,-5.4063,-5.4374,-5.4339,-5.3701,-5.3356,-5.3218,-5.2546,-5.189,-5.1227,-5.1208,-5.0869,-5.023,-5.0241,-5.0672,-5.1455,-5.121,-5.2074,-5.3964,-5.2803,-5.2094,-5.2076,-5.1704,-5.2014,-5.2985,-5.254,-5.2268,-5.2286,-5.2427,-5.1821,-5.049,-5.2612,-5.316,-5.1798,-5.2808,-5.3193,-5.2736,-5.265,-5.2474,0.0,-5.3195,0.0,0.0,0.0,0.0,0.0,0.0,0.0,0.0,-5.6613,-5.6759,-5.6789,-5.7695,-5.8845,-6.0269,-6.1709,-6.2945,-6.4009,-6.4236,-6.4409,-6.4775,-6.5439,-6.5614,-6.4944,-6.5437,-6.5596,-6.4825,-6.4738,-6.4456,-6.3725,-6.3289,-6.2944,-6.2556,-6.1902,-6.1689,-6.2317,-6.1834,-6.1296,-6.0359,-5.9587,-5.9361,-5.9685,-5.9131,-5.8661,-5.9858,-5.961,-5.94,-5.9945,-6.0103,-6.0301,-6.0927,-6.0497,-6.0341,-6.0825,-6.0891,-6.056,-5.9583,-5.9417,-5.8783,-5.2449,-5.3041,-5.3041,-5.3127,-5.3297,-5.3516,-5.3938,-5.4546,-5.4804,-5.4821,-5.46,-5.4069,-5.3736,-5.3563,-5.2942,-5.2925,-5.3408,-5.3546,-5.3615,-5.3615,-5.346,-5.3063,-5.2459,-5.2287,-5.214,-5.1976,-5.1859,-5.1654,-5.1538,-5.1422,-5.1449,-5.1675,-5.191,-5.2582,-5.3532,0.0,0.0,0.0,-5.2562,-5.2963,-5.3699,-5.3054,-5.2698,-5.2644,-5.1511,0.0,-5.0864,-5.2463,-5.3101,-5.2508,-5.3864,0.0,0.0,0.0,0.0,0.0,0.0,0.0,0.0,0.0,0.0,0.0,-5.755,-5.7079,-5.6509,-5.7752,-5.8431,-5.8055,-5.8711,-5.96,-6.059,-6.1006,-6.2336,-6.4953,-6.4835,-6.5169,-6.6988,-6.6834,-6.6535,-6.6409,-6.6499,-6.6271,-6.5515,-6.5468,-6.5184,-6.4383,-6.3284,-6.2746,-6.3101,-6.2502,-6.2208,-6.2368,-6.2106,-6.1551,-6.0224,-5.9878,-5.96,-5.9284,-5.9464,-5.9679,-5.9936,-5.9871,-5.9805,-5.9983,-6.0032,-6.0014,-6.0211,-6.0089,-6.0019,-6.0194,-6.0218,-6.0128,-5.9961,-6.0341,-6.0293,-5.2774,0.0,-5.3518,-5.3551,0.0,-5.326,-5.3443,-5.3963,-5.4333,-5.4365,-5.4093,-5.345,-5.2984,-5.2636,-5.2601,-5.2601,-5.2712,-5.3276,-5.3607,-5.3532,-5.2968,-5.2584,-5.2432,-5.1817,-5.1678,-5.1903,-5.1793,-5.1776,-5.1791,-5.174,-5.1808,-5.2,-5.2391,-5.3053,-5.3971,-5.3904,-5.3537,-5.2806,-5.2806,-5.3188,-5.3863,-5.3365,-5.303,-5.2975,0.0,0.0,0.0,0.0,0.0,0.0,0.0,0.0,0.0,0.0,0.0,-5.3813,-5.4946,-5.5819,-5.6265,-5.7487,-5.871,-5.9724,-6.0341,-6.0034,-5.8519,-5.9559,-6.0256,-5.998,-6.0653,-6.1397,-6.1805,-6.2302,-6.326,-6.4824,-6.4705,-6.495,-6.5949,-6.5862,-6.5609,-6.5609,-6.5609,-6.5475,-6.5125,-6.5064,-6.4746,-6.4046,-6.3288,-6.2568,-6.2273,-6.1923,-6.171,-6.1761,-6.1754,-6.1336,-6.0247,-5.9966,-6.0068,-5.9902,-5.9955,-6.0121,-6.0406,-5.9902,-5.9405,-5.9387,-5.9124,-5.8905,-5.9274,-5.9335,-5.9317,-5.9388,-5.9894,-6.0072,-5.9591,-6.0019,-6.023,-5.2823,-5.3668,-5.3551,-5.3583,-5.3642,-5.3028,-5.2963,-5.3194,0.0,0.0,0.0,-5.317,-5.2617,-5.2072,-5.2546,-5.2494,-5.2144,-5.3158,-5.3584,-5.3548,-5.2536,-5.2219,-5.2478,-5.1441,-5.1228,-5.1797,-5.1754,-5.1835,-5.2054,-5.2042,-5.2188,-5.2526,-5.2889,-5.3511,-5.4322,-5.4679,-5.4168,-5.3042,-5.298,-5.3346,-5.406,-5.3621,-5.3455,-5.3506,-5.3547,-5.3032,-5.1918,-5.372,-5.4258,-5.3144,-5.4296,-5.4704,-5.4091,-5.4648,-5.5001,-5.5076,-5.6432,-5.7416,-5.7732,-5.9491,-6.0747,-6.1155,-6.2225,-6.2218,-6.0847,-6.1405,-6.171,-6.169,-6.2341,-6.2777,-6.2851,-6.3506,-6.4033,-6.416,-6.4178,-6.4233,-6.4396,-6.4396,-6.4468,-6.4396,-6.4468,-6.4396,-6.445,-6.4468,-6.4106,-6.3418,-6.3179,-6.2763,-6.1543,-6.1362,-6.1413,-6.1413,-6.1605,-6.1343,-6.0591,-6.0424,-6.0564,-6.1027,-6.0729,-6.0572,-6.0659,-5.9941,-5.9196,-5.908,-5.8394,-5.8349,-5.8667,-5.8869,-5.8762,-5.8762,-5.969,-6.0178,-5.9018,-5.9201,-5.9522,-5.3034,-5.4218,-5.3815,-5.3635,-5.3549,-5.3653,-5.3626,-5.3441,-5.3243,-5.3362,-5.3744,-5.3033,-5.2713,-5.257,-5.2037,-5.2072,-5.2588,-5.2765,-5.287,0.0,-5.2641,-5.2302,-5.1779,-5.1554,-5.1856,-5.2493,-5.2426,-5.2725,-5.3334,-5.3402,-5.3459,-5.3499,-5.36,-5.3753,-5.3884,-5.3923,-5.3886,-5.3639,-5.3678,-5.4028,-5.4806,-5.4125,-5.4051,-5.4645,-5.3459,-5.3014,-5.346,-5.3813,-5.4203,-5.4648,-5.4871,-5.4946,-5.4853,-5.4946,-5.5001,-5.5057,-5.593,-5.7082,-5.8401,-5.9011,-6.0155,-6.2132,-6.222,-6.2159,-6.219,-6.2303,-6.2237,-6.2023,-6.2095,-6.2131,-6.2149,-6.2331,-6.2712,-6.3255,-6.3363,-6.3617,-6.4215,-6.4305,-6.4287,-6.4269,-6.4396,-6.4341,-6.4251,-6.4287,-6.3943,-6.3345,-6.2947,-6.2783,-6.2073,-6.1978,-6.1989,-6.2042,-6.248,-6.2522,-6.1777,-6.171,-6.1654,-6.1822,-6.1674,-6.1292,-6.0918,-6.0429,-5.9941,-5.9529,-5.915,-5.9132,-5.9311,-5.9438,-5.9203,-5.9096,-5.9417,-5.9291,-5.832,-5.8358,-5.87,-5.3307,-5.4278,-5.4512,-5.4374,-5.4022,-5.352,-5.3101,-5.2911,-5.2745,-5.2974,-5.3374,-5.2792,-5.2533,-5.2497,-5.2174,-5.2192,-5.2551,-5.2839,-5.2997,-5.2933,-5.2678,-5.2498,-5.2444,-5.2155,-5.2354,-5.2943,-5.2977,-5.317,-5.3567,-5.3684,-5.3734,-5.3754,-5.3756,-5.3813,-5.3813,-5.3813,-5.3813,-5.3813,-5.3813,-5.398,-5.4333,-5.3998,-5.3998,-5.4333,-5.3608,-5.3423,-5.3794,-5.4221,-5.463,-5.4983,-5.5466,-5.5503,-5.5057,-5.5001,-5.4816,-5.4426,-5.515,-5.5912,-5.6636,-5.8237,-6.0304,-6.2862,-6.2953,-6.3031,-6.3379,-6.294,-6.2563,-6.2394,-6.2132,-6.2023,-6.2023,-6.2023,-6.2168,-6.2512,-6.2549,-6.2712,-6.3019,-6.311,-6.3092,-6.311,-6.311,-6.311,-6.311,-6.311,-6.2802,-6.2078,-6.1915,-6.1879,-6.1987,-6.2055,-6.2062,-6.2101,-6.2346,-6.2349,-6.2078,-6.2023,-6.2023,-6.2023,-6.1643,-6.1263,-6.0774,-6.0231,-5.9434,-5.8999,-5.8637,-5.8329,-5.8293,-5.7895,-5.7713,-5.7659,-5.7641,-5.7333,-5.6736,-5.65,-5.6772,-5.3545,-5.4451,-5.5115,-5.5115,-5.4545,-5.3205,-5.26,-5.2581,-5.2581,-5.2806,-5.3121,-5.2761,-5.2563,-5.2563,-5.2563,-5.2563,-5.2654,-5.3017,-5.3206,-5.3164,-5.2761,-5.2806,-5.3121,-5.2761,-5.2806,-5.3146,-5.3295,-5.3418,-5.3499,-5.3637,-5.3773,-5.3813,-5.3813,-5.3813,-5.3813,-5.3813,-5.3813,-5.3813,-5.3813,-5.3813,-5.3813,-5.3813,-5.3813,-5.3813,-5.3794,-5.3813,-5.3831,-5.4407,-5.4741,-5.476,-5.5373,-5.5447,-5.4797,-5.4741,-5.4463,-5.3924,-5.4388,-5.4947,-5.5528,-5.7885,-6.0412,-6.2788,-6.3031,-6.3232,-6.3632,-6.2984,-6.2572,-6.2603,-6.2314,-6.2107,-6.2184,-6.2273,-6.2273,-6.2185,-6.2132,-6.2204,-6.2023,-6.2023,-6.2023,-6.2023,-6.2023,-6.206,-6.2005,-6.186,-6.1553,-6.1045,-6.081,-6.1118,-6.1824,-6.2023,-6.1951,-6.1625,-6.1752,-6.2041,-6.2023,-6.2023,-6.2023,-6.2005,-6.1353,-6.0846,-6.0394,-5.9307,-5.8453,-5.8235,-5.7778,-5.7379,-5.7089,-5.6635,-5.6218,-5.6109,-5.6067,-5.5692,-5.5039,-5.4735,-5.4796,-5.3808,-5.5025,-5.5479,-5.5366,-5.4512,-5.3092,-5.2681,-5.3078,-5.3103,-5.3164,-5.3164,-5.3164,-5.3103,-5.3121,-5.3121,-5.3103,-5.3121,-5.3164,-5.3206,-5.3206,-5.3164,-5.3164,-5.3206,-5.3121,-5.3164,-5.3206,-5.3378,-5.344,-5.3481,-5.3697,-5.3793,-5.3813,-5.3813,-5.3813,-5.3813,-5.3813,-5.3813,-5.3813,-5.3813,-5.3813,-5.3813,-5.3813,-5.3813,-5.3813,-5.3794,-5.3813,-5.3757,-5.3868,-5.3924,-5.3924,-5.4017,-5.4017,-5.3943,-5.3924,-5.3887,-5.3813,-5.3887,-5.4671,-5.6572,-5.8476,-6.0062,-6.1141,-6.1401,-6.1799,-6.2473,-6.2109,-6.2066,-6.2417,-6.2363,-6.2298,-6.2653,-6.2951,-6.2951,-6.2613,-6.2581,-6.2479,-6.2096,-6.2023,-6.2023,-6.2023,-6.2023,-6.2023,-6.1969,-6.139,-6.0901,-6.072,-6.0538,-6.0756,-6.1444,-6.1625,-6.1154,-6.0448,-6.0955,-6.1734,-6.177,-6.1987,-6.1734,-6.177,-6.1281,-6.0484,-5.9758,-5.9084,-5.8373,-5.7824,-5.7582,-5.7304,-5.6879,-5.635,-5.6077,-5.5483,-5.5275,-5.503,-5.4282,-5.3884,-5.3836,-5.3749,-5.4327,-5.4999,-5.4878,-5.4189,-5.328,-5.3017,-5.3164,-5.3206,-5.3017,-5.2806,-5.306,-5.3206,-5.3206,-5.3206,-5.3206,-5.3206,-5.3206,-5.3206,-5.3206,-5.3206,-5.3206,-5.3206,-5.3206,-5.3206,-5.3206,-5.3336,-5.3381,-5.34,-5.3619,-5.3734,-5.3773,-5.3793,-5.3813,-5.3813,-5.3813,-5.3813,-5.3813,-5.3813,-5.3571,-5.3144,-5.3088,-5.2865,-5.2494,-5.2847,-5.3088,-5.3144,-5.3534,-5.3813,-5.3813,-5.3813,-5.3813,-5.3813,-5.3813,-5.3813,-5.3813,-5.3926,-5.4873,-5.6877,-5.7733,-5.8967,-6.0947,-6.1098,-6.1477,-6.2273,-6.1776,-6.1449,-6.1656,-6.1982,-6.217,-6.2077,-6.2579,-6.2903,-6.2695,-6.2446,-6.2238,-6.206,-6.2023,-6.2023,-6.2023,-6.2023,-6.2023,-6.1824,-6.0883,-6.0176,-6.0031,-5.976,-5.9705,-5.9905,-5.9887,-5.9398,-5.8565,-5.88,-5.9325,-5.9778,-5.9868,-6.0086,-6.0321,-5.9975,-5.9284,-5.9063,-5.8424,-5.785,-5.7553,-5.7546,-5.7503,-5.7273,-5.6215,-5.5541,-5.5122,-5.4466,-5.4068,-5.3946,-5.379,-5.3693,-5.3711,-5.3802,-5.4393,-5.4454,-5.4018,-5.3469,-5.3206,-5.3206,-5.3206,-5.2912,-5.2454,-5.2806,-5.3083,-5.3273,-5.3231,-5.3206,-5.3206,-5.3206,-5.3206,-5.3206,-5.3206,-5.323,-5.323,-5.3272,-5.3272,-5.323,-5.3336,-5.3359,-5.3418,-5.3598,-5.3714,-5.3734,-5.3774,-5.3813,-5.3813,-5.3813,-5.3813,-5.3813,-5.3813,-5.3423,-5.2735,-5.2605,-5.2234,-5.1546,-5.1974,-5.2271,-5.2289,-5.2847,-5.3144,-5.3125,-5.3144,-5.3255,-5.3478,-5.3478,-5.3609,-5.3907,-5.4351,-5.5216,-5.6729,-5.7234,-5.8372,-6.0189,-6.0605,-6.1022,-6.1458,-6.1136,-6.0638,-6.0385,-6.1162,-6.157,-6.1636,-6.2162,-6.2616,-6.264,-6.2342,-6.2132,-6.2023,-6.2023,-6.2023,-6.2023,-6.2023,-6.1806,-6.1353,-6.0538,-5.9923,-5.9343,-5.8999,-5.8728,-5.8725,-5.8722,-5.8296,-5.7242,-5.6964,-5.7188,-5.7855,-5.8254,-5.8471,-5.8544,-5.8446,-5.8019,-5.7977,-5.7467,-5.7409,-5.7253,-5.7372,-5.7455,-5.7298,-5.6308,-5.5232,-5.4859,-5.4315,-5.3775,-5.4,-5.4048,-5.4083,-5.3711,-5.3675,-5.3927,-5.4045,-5.4133,-5.3451,-5.3206,-5.3206,-5.3164,-5.2868,-5.2408,-5.2408,-5.287,-5.345,-5.3196,-5.3182,-5.3182,-5.3182,-5.3164,-5.3146,-5.3254,-5.3318,-5.3318,-5.3418,-5.3418,-5.3318,-5.3418,-5.3499,-5.3656,-5.3674,-5.3734,-5.3813,-5.3813,-5.3813,-5.3813,-5.3813,-5.3813,-5.3813,-5.3813,-5.3423,-5.2698,-5.2605,-5.2215,-5.1435,-5.1454,-5.1509,-5.1472,-5.1491,-5.1565,-5.1546,-5.1621,-5.1899,-5.2549,-5.2679,-5.3144,-5.4035,-5.51,-5.5791,-5.6177,-5.7535,-5.8653,-5.8938,-5.9639,-5.9999,-6.0226,-6.0151,-5.975,-5.8855,-5.9993,-6.0841,-6.1316,-6.1892,-6.241,-6.2634,-6.2663,-6.2376,-6.206,-6.2023,-6.2023,-6.2023,-6.2023,-6.1552,-6.0104,-6.0357,-5.9885,-5.9175,-5.9087,-5.9375,-5.9183,-5.9018,-5.8234,-5.696,-5.6235,-5.6035,-5.6988,-5.6998,-5.7157,-5.7388,-5.7085,-5.6645,-5.6401,-5.6308,-5.667,-5.6932,-5.714,-5.7237,-5.7227,-5.662,-5.5545,-5.4969,-5.4593,-5.4277,-5.4411,-5.4541,-5.4497,-5.1996,-5.2115,-5.2279,-5.257,-5.2898,-5.2717,-5.2868,-5.3164,-5.2824,-5.2408,-5.1964,-5.1897,-5.213,-5.2518,-5.2256,-5.2651,-5.339,-5.3255,-5.3042,-5.2839,-5.3115,-5.3359,-5.3459,-5.3499,-5.344,-5.3318,-5.3359,-5.34,-5.3459,-5.3499,-5.3637,-5.3716,-5.3774,-5.3813,-5.3813,-5.3813,-5.3813,-5.3813,-5.3813,-5.3423,-5.2698,-5.2605,-5.1955,-5.0692,-5.1119,-5.1119,-5.058,-5.1101,-5.1398,-5.1398,-5.1398,-5.1528,-5.1844,-5.2418,-5.3267,-5.4307,-5.4816,-5.5378,-5.6116,-5.7182,-5.8123,-5.8691,-5.943,-5.9904,-5.9904,-5.9885,-5.9524,-5.902,-5.9454,-6.0141,-6.0384,-6.119,-6.2074,-6.253,-6.2446,-6.222,-6.206,-6.2023,-6.2023,-6.2023,-6.2005,-6.1642,-6.1043,-6.0638,-6.0182,-5.944,-5.9145,-5.8868,-5.8404,-5.8153,-5.7589,-5.6225,-5.5522,-5.5241,-5.497,-5.5121,-5.533,-5.5824,-5.5926,-5.6066,-5.5987,-5.6206,-5.6574,-5.6706,-5.6893,-5.6893,-5.68,-5.6257,-5.5334,-5.4872,-5.451,-5.4356,-5.4952,-5.462,-5.4477,-5.1035,-5.121,-5.1314,-5.1551,-5.1928,-5.2108,-5.2361,-5.2608,-5.2315,-5.1866,-5.1398,-5.1347,-5.1529,-5.1825,-5.1511,-5.208,-5.3231,-5.3089,-5.29,-5.2802,-5.3217,-5.3459,-5.3558,-5.3579,-5.3521,-5.3459,-5.34,-5.3359,-5.3359,-5.3499,-5.3637,-5.3734,-5.3774,-5.3813,-5.3813,-5.3813,-5.3813,-5.3813,-5.3813,-5.3534,-5.3014,-5.2717,-5.1955,-5.0785,-5.0822,-5.058,-4.9763,-5.0283,-5.058,-5.058,-5.058,-5.0822,-5.1416,-5.2393,-5.3421,-5.4387,-5.4648,-5.4988,-5.578,-5.6777,-5.7649,-5.8256,-5.926,-5.9904,-5.9904,-5.9904,-5.947,-5.8961,-5.9051,-5.9419,-5.9721,-6.0395,-6.1327,-6.2241,-6.2308,-6.222,-6.2238,-6.236,-6.2427,-6.2479,-6.2581,-6.2328,-6.1871,-6.1357,-6.0855,-6.0366,-5.9566,-5.8862,-5.8476,-5.7884,-5.7473,-5.6367,-5.6138,-5.5669,-5.5319,-5.5245,-5.4778,-5.5096,-5.5262,-5.5426,-5.5658,-5.5973,-5.6259,-5.6425,-5.6463,-5.6481,-5.6218,-5.5691,-5.5208,-5.4657,-5.4097,-5.3734,-5.4108,-5.4358,-5.4046,-5.0893,-5.1105,-5.121,-5.1244,-5.1398,-5.1551,-5.1601,-5.1701,-5.1601,-5.1296,-5.091,-5.0803,-5.1242,-5.1663,-5.1208,-5.1564,-5.2681,-5.2669,-5.2758,-5.3157,-5.3518,-5.3674,-5.3714,-5.3736,-5.3754,-5.3656,-5.3558,-5.3481,-5.3499,-5.3616,-5.3734,-5.3774,-5.3813,-5.3813,-5.3813,-5.3813,-5.3813,-5.3813,-5.3813,-5.3775,-5.3701,-5.2995,-5.2178,-5.1323,-5.0618,-4.9837,-4.902,-4.902,-4.9132,-4.9057,-4.9057,-4.9726,-5.1338,-5.2495,-5.347,-5.4322,-5.4717,-5.489,-5.511,-5.6436,-5.7289,-5.7725,-5.8919,-5.9791,-5.9866,-5.9904,-5.9559,-5.887,-5.8832,-5.9002,-5.9593,-5.995,-6.0604,-6.1752,-6.2342,-6.2595,-6.2745,-6.3094,-6.3352,-6.3325,-6.3352,-6.3196,-6.2686,-6.2337,-6.2051,-6.1499,-6.0656,-6.0058,-5.9835,-5.906,-5.837,-5.7989,-5.7375,-5.657,-5.6115,-5.5664,-5.4987,-5.4546,-5.4605,-5.4731,-5.495,-5.5258,-5.5712,-5.5906,-5.5667,-5.5648,-5.5155,-5.4663,-5.4439,-5.3968,-5.3429,-5.3118,-5.3353,-5.3531,-5.3206,-5.0137,-5.0359,-5.0359,-5.0602,-5.0946,-5.0999,-5.1262,-5.15,-5.121,-5.0964,-5.0766,-5.0415,-5.0679,-5.1158,-5.0952,-5.1511,-5.2654,-5.2575,-5.2607,-5.2864,-5.34,-5.3732,-5.3714,-5.3774,-5.3754,-5.3695,-5.3539,-5.3558,-5.3656,-5.3656,-5.3716,-5.3774,-5.3813,-5.3813,-5.3813,-5.3813,-5.3813,-5.3813,-5.3813,-5.3813,-5.3738,-5.3014,-5.2215,-5.1416,-5.0562,-4.9726,-4.8983,-4.889,-4.889,-4.889,-4.8909,-4.9738,-5.1484,-5.2709,-5.3729,-5.4616,-5.4841,-5.4901,-5.5034,-5.5925,-5.6834,-5.7441,-5.8464,-5.9279,-5.9791,-5.9904,-5.9647,-5.9159,-5.9474,-6.0054,-6.0507,-6.1107,-6.1508,-6.1933,-6.2376,-6.2776,-6.2855,-6.3187,-6.3397,-6.3531,-6.3593,-6.3617,-6.3665,-6.3425,-6.3088,-6.2965,-6.1902,-6.1031,-6.0923,-6.0178,-5.9403,-5.8919,-5.8187,-5.7434,-5.6757,-5.6091,-5.5405,-5.4874,-5.4742,-5.4673,-5.4754,-5.4863,-5.5294,-5.5255,-5.5026,-5.4664,-5.415,-5.3701,-5.3448,-5.3264,-5.2895,-5.2742,-5.2785,-5.2594,-5.227,-4.9801,-5.0011,-4.9935,-5.0149,-5.0492,-5.0509,-5.0712,-5.0964,-5.0675,-5.0509,-5.0415,-5.0166,-5.0235,-5.0586,-5.055,-5.1192,-5.2192,-5.2234,-5.2409,-5.2795,-5.3359,-5.3714,-5.3714,-5.3793,-5.3754,-5.3695,-5.3619,-5.3637,-5.3695,-5.3734,-5.3736,-5.3813,-5.3813,-5.3813,-5.3813,-5.3813,-5.3813,-5.3813,-5.3813,-5.3813,-5.3645,-5.3014,-5.2215,-5.1416,-5.0562,-4.9726,-4.8983,-4.889,-4.889,-4.8964,-4.9219,-5.0228,-5.1734,-5.2774,-5.3811,-5.4583,-5.4822,-5.4822,-5.4805,-5.5674,-5.6368,-5.6979,-5.8032,-5.8949,-5.9526,-5.9767,-5.9681,-5.9383,-5.9591,-6.0243,-6.0901,-6.1391,-6.193,-6.254,-6.2988,-6.3344,-6.355,-6.379,-6.4075,-6.4214,-6.4292,-6.4407,-6.4497,-6.4431,-6.4101,-6.4178,-6.3028,-6.1961,-6.1773,-6.099,-6.0227,-5.9502,-5.8901,-5.8099,-5.7229,-5.6504,-5.5797,-5.5431,-5.5132,-5.5085,-5.5085,-5.514,-5.5408,-5.4828,-5.4523,-5.4084,-5.3569,-5.2831,-5.2398,-5.2289,-5.2174,-5.1754,-5.1505,-5.1601,-5.1391,-4.9742,-4.9935,-4.9784,-4.9842,-5.0051,-5.0051,-5.0109,-5.0051,-5.0051,-5.0051,-4.9993,-4.9993,-5.0011,-5.0045,-5.0166,-5.0747,-5.15,-5.1848,-5.2353,-5.3023,-5.3496,-5.3714,-5.3734,-5.3793,-5.3774,-5.3734,-5.3754,-5.3754,-5.3753,-5.3736,-5.3813,-5.3813,-5.3756,-5.3774,-5.3717,-5.3756,-5.3678,-5.3639,-5.3678,-5.3678,-5.3623,-5.2938,-5.2252,-5.1491,-5.0582,-4.9782,-4.9259,-4.9052,-4.8959,-4.9036,-4.993,-5.0904,-5.1724,-5.2793,-5.3962,-5.4623,-5.4791,-5.4648,-5.4651,-5.5343,-5.6135,-5.6407,-5.774,-5.8845,-5.93,-5.9681,-5.9767,-5.938,-5.9364,-5.9834,-6.0733,-6.1209,-6.193,-6.3277,-6.3827,-6.4232,-6.4867,-6.4901,-6.4826,-6.489,-6.515,-6.5213,-6.4997,-6.4978,-6.4932,-6.4791,-6.3626,-6.2652,-6.2213,-6.1335,-6.0599,-5.9931,-5.9262,-5.844,-5.7466,-5.6377,-5.5728,-5.5492,-5.5286,-5.5286,-5.5145,-5.5167,-5.4811,-5.4295,-5.3798,-5.3397,-5.2766,-5.1926,-5.1505,-5.1467,-5.1104,-5.0474,-5.0455,-5.0741,-5.0837,-4.9935,-5.0011,-4.9935,-4.9935,-5.0011,-5.0011,-4.9976,-4.9993,-4.9976,-4.9942,-4.9993,-5.0011,-5.0011,-5.0051,-5.0415,-5.0964,-5.1551,-5.1994,-5.2545,-5.3146,-5.3418,-5.3619,-5.3736,-5.3774,-5.3813,-5.3774,-5.3774,-5.3793,-5.3793,-5.3774,-5.3813,-5.3794,-5.3561,-5.3422,-5.3381,-5.3217,-5.3048,-5.3048,-5.3066,-5.3109,-5.3041,-5.2604,-5.2167,-5.1853,-5.0768,-5.0131,-4.9933,-4.9543,-4.9244,-4.9258,-5.0823,-5.1807,-5.2115,-5.3527,-5.4508,-5.4666,-5.4565,-5.4416,-5.4465,-5.4926,-5.5641,-5.6573,-5.7616,-5.8603,-5.9639,-5.9801,-5.9853,-5.9715,-5.9734,-6.0062,-6.0955,-6.1636,-6.2747,-6.4199,-6.4313,-6.4388,-6.4845,-6.5076,-6.4952,-6.4445,-6.4355,-6.4386,-6.4341,-6.4065,-6.3942,-6.4076,-6.3216,-6.2032,-6.186,-6.1153,-6.0179,-5.9835,-5.9243,-5.8498,-5.7581,-5.6415,-5.5689,-5.5479,-5.5358,-5.5358,-5.511,-5.4823,-5.4142,-5.3378,-5.2843,-5.2422,-5.1582,-5.0722,-5.0646,-5.0818,-5.0608,-5.0302,-5.0302,-5.0474,-5.0493,-5.0011,-4.9976,-4.9648,-4.951,-4.9459,-4.9183,-4.9045,-4.9114,-4.939,-4.9493,-4.9579,-4.989,-4.9993,-5.0051,-5.0302,-5.0928,-5.1551,-5.1915,-5.2472,-5.3164,-5.3418,-5.36,-5.3756,-5.3813,-5.3813,-5.3813,-5.3813,-5.3813,-5.3813,-5.3813,-5.3736,-5.3561,-5.34,-5.3217,-5.3091,-5.2937,-5.2806,-5.2806,-5.2806,-5.2806,-5.2751,-5.2711,-5.2438,-5.2114,-5.1194,-5.0623,-5.0062,-4.9959,-4.984,-4.9853,-5.1061,-5.2194,-5.2345,-5.3902,-5.4784,-5.468,-5.4416,-5.4228,-5.4219,-5.4708,-5.5511,-5.65,-5.7525,-5.8622,-5.9439,-5.9767,-5.9904,-5.9885,-5.9904,-6.0302,-6.1022,-6.1909,-6.3038,-6.4115,-6.4032,-6.3956,-6.45,-6.4299,-6.4019,-6.3661,-6.3558,-6.3558,-6.3656,-6.3178,-6.3216,-6.3274,-6.2567,-6.1917,-6.1535,-6.058,-5.9892,-5.9606,-5.8822,-5.7886,-5.7371,-5.6415,-5.5651,-5.5441,-5.5403,-5.5403,-5.5097,-5.4658,-5.3817,-5.2996,-5.2174,-5.1391,-5.0741,-5.0302,-5.0378,-5.0455,-5.0321,-5.0302,-5.0302,-5.0302,-5.0302,-4.9976,-4.9821,-4.9114,-4.8712,-4.8631,-4.801,-4.7889,-4.7889,-4.8441,-4.8717,-4.8821,-4.9441,-4.9528,-4.9769,-4.9746,-5.039,-5.1307,-5.153,-5.2361,-5.3023,-5.3418,-5.3619,-5.3756,-5.3813,-5.3813,-5.3813,-5.3813,-5.3736,-5.3697,-5.3697,-5.3561,-5.33,-5.3175,-5.3005,-5.2743,-5.2672,-5.2672,-5.2654,-5.2654,-5.2717,-5.285,-5.3023,-5.2957,-5.2584,-5.2153,-5.1199,-5.0535,-5.0538,-5.07,-4.9796,-5.1417,-5.2337,-5.264,-5.4065,-5.4616,-5.4416,-5.4296,-5.4158,-5.4,-5.4857,-5.5751,-5.6426,-5.7834,-5.8902,-5.9335,-5.9715,-5.9918,-5.9918,-5.9918,-6.0348,-6.1069,-6.1899,-6.2686,-6.3467,-6.313,-6.3066,-6.3421,-6.3173,-6.2803,-6.2748,-6.2777,-6.2777,-6.2758,-6.2682,-6.2586,-6.2147,-6.144,-6.079,-6.0313,-5.9568,-5.9357,-5.951,-5.844,-5.7122,-5.6759,-5.6396,-5.5823,-5.5403,-5.5403,-5.5345,-5.5097,-5.4581,-5.3722,-5.2862,-5.1868,-5.1123,-5.0531,-5.0302,-5.0302,-5.0302,-5.0302,-5.0302,-5.0302,-5.0302,-5.0302,-4.9648,-4.9045,-4.8872,-4.8493,-4.7976,-4.7786,-4.7683,-4.7665,-4.7855,-4.7958,-4.7993,-4.8165,-4.8269,-4.8286,-4.8872,-4.942,-5.0276,-5.118,-5.2278,-5.3318,-5.3459,-5.36,-5.3756,-5.3774,-5.3774,-5.3774,-5.3813,-5.3658,-5.3455,-5.3378,-5.3235,-5.2919,-5.2662,-5.2371,-5.2343,-5.2191,-5.2096,-5.2268,-5.2343,-5.2563,-5.285,-5.3133,-5.3293,-5.3179,-5.3035,-5.2491,-5.1869,-5.1924,-5.1954,-5.2067,-5.2672,-5.3327,-5.3497,-5.4284,-5.4673,-5.4416,-5.4262,-5.4123,-5.4075,-5.5043,-5.6164,-5.674,-5.8029,-5.9263,-5.9692,-5.9866,-5.9982,-5.9994,-6.0045,-6.0437,-6.1197,-6.1514,-6.2078,-6.2609,-6.2334,-6.1887,-6.2107,-6.2538,-6.2442,-6.207,-6.1898,-6.1879,-6.186,-6.1287,-6.1077,-6.0867,-6.0274,-5.9472,-5.8975,-5.8536,-5.8631,-5.8861,-5.7753,-5.6549,-5.6587,-5.6262,-5.5747,-5.5403,-5.5403,-5.5384,-5.5135,-5.4295,-5.3359,-5.2403,-5.1467,-5.0837,-5.034,-5.0302,-5.0302,-5.0302,-5.0302,-5.0302,-5.0302,-5.0302,-5.0302,-4.8683,-4.8269,-4.7924,-4.7562,-4.7182,-4.6803,-4.6631,-4.6717,-4.7062,-4.72,-4.7269,-4.751,-4.7717,-4.7786,-4.8459,-4.9139,-4.9873,-5.1272,-5.2581,-5.3341,-5.344,-5.3381,-5.3481,-5.344,-5.3381,-5.3502,-5.3381,-5.3212,-5.3085,-5.3042,-5.2875,-5.2545,-5.2297,-5.2155,-5.203,-5.1933,-5.206,-5.225,-5.2408,-5.2608,-5.2806,-5.3151,-5.3304,-5.3404,-5.3419,-5.3153,-5.234,-5.2759,-5.2968,-5.3215,-5.3764,-5.4048,-5.3897,-5.4427,-5.4623,-5.4382,-5.4296,-5.4228,-5.437,-5.5081,-5.6179,-5.7035,-5.8295,-5.9133,-5.9701,-5.9982,-5.9994,-6.0026,-6.0133,-6.0441,-6.1283,-6.1016,-6.1389,-6.183,-6.1516,-6.102,-6.1115,-6.1459,-6.1593,-6.1153,-6.1039,-6.1039,-6.079,-6.0255,-5.9873,-5.9816,-5.9243,-5.8479,-5.8268,-5.7905,-5.7829,-5.7676,-5.674,-5.6148,-5.6339,-5.611,-5.5594,-5.5403,-5.5403,-5.5403,-5.5307,-5.4142,-5.2881,-5.2136,-5.1505,-5.0722,-5.0302,-5.0302,-5.0302,-5.0302,-5.0302,-5.0302,-5.0302,-5.0302,-5.0302,-4.7648,-4.7493,-4.6872,-4.6544,-4.6337,-4.5751,-4.5527,-4.5596,-4.613,-4.6424,-4.6527,-4.7131,-4.7148,-4.7493,-4.8329,-4.9129,-5.0309,-5.1479,-5.2777,-5.3277,-5.3115,-5.3133,-5.3133,-5.2926,-5.2839,-5.3072,-5.2962,-5.2824,-5.2744,-5.269,-5.2545,-5.2232,-5.2185,-5.2155,-5.2018,-5.2126,-5.2389,-5.2527,-5.2725,-5.2937,-5.3066,-5.33,-5.3403,-5.3556,-5.3717,-5.3648,-5.3261,-5.3537,-5.3878,-5.3935,-5.4541,-5.4465,-5.4276,-5.4417,-5.4711,-5.4349,-5.4382,-5.4364,-5.4446,-5.5138,-5.6168,-5.7232,-5.799,-5.8824,-5.9444,-5.9716,-5.9855,-6.0019,-6.0175,-6.0455,-6.1181,-6.0838,-6.0791,-6.1106,-6.079,-6.0465,-6.0389,-6.0389,-6.0523,-6.0485,-6.0313,-6.0179,-5.9931,-5.9491,-5.9109,-5.867,-5.8077,-5.76,-5.7371,-5.7179,-5.7008,-5.6874,-5.6071,-5.5766,-5.5938,-5.5976,-5.546,-5.5403,-5.5403,-5.5403,-5.5326,-5.4333,-5.3225,-5.2422,-5.1716,-5.0875,-5.0321,-5.0302,-5.0302,-5.0302,-5.0302,-5.0302,-5.0302,-5.0302,-5.0302,-4.7338,-4.6769,-4.6665,-4.6234,-4.5648,-4.5475,-4.5441,-4.5441,-4.5613,-4.563,-4.5682,-4.5786,-4.5924,-4.6323,-4.7823,-4.9552,-5.1101,-5.2065,-5.2463,-5.2831,-5.2725,-5.2769,-5.2769,-5.249,-5.2381,-5.2481,-5.2563,-5.258,-5.2342,-5.2252,-5.2297,-5.2185,-5.2232,-5.2268,-5.2518,-5.2698,-5.2813,-5.2944,-5.3133,-5.3318,-5.3502,-5.3641,-5.3814,-5.4018,-5.4213,-5.4276,-5.4398,-5.4541,-5.4712,-5.4712,-5.4825,-5.4806,-5.4693,-5.4806,-5.4711,-5.45,-5.4616,-5.4648,-5.4562,-5.5365,-5.6021,-5.655,-5.7156,-5.8009,-5.8704,-5.9102,-5.9486,-5.9985,-6.0226,-6.0437,-6.0533,-6.0456,-6.0465,-6.0561,-6.0561,-6.0351,-6.0332,-6.0274,-6.0179,-6.0007,-5.9663,-5.93,-5.9052,-5.867,-5.8116,-5.7676,-5.716,-5.6645,-5.6282,-5.6091,-5.5919,-5.5785,-5.5594,-5.5498,-5.5536,-5.5556,-5.5403,-5.5403,-5.5403,-5.5403,-5.5174,-5.4543,-5.3702,-5.2977,-5.1849,-5.0741,-5.0397,-5.0321,-5.0302,-5.0302,-5.0302,-5.0302,-5.0302,-5.0302,-5.0302,-4.6069,-4.601,-4.5992,-4.5786,-4.5458,-4.5441,-4.5441,-4.5441,-4.5441,-4.5441,-4.5441,-4.5441,-4.5441,-4.589,-4.7262,-4.9415,-5.1226,-5.2101,-5.2417,-5.2635,-5.2499,-5.2389,-5.2454,-5.2119,-5.2012,-5.2,-5.2114,-5.2168,-5.1969,-5.2132,-5.2185,-5.2232,-5.2389,-5.2608,-5.2806,-5.298,-5.3091,-5.3318,-5.3481,-5.36,-5.3794,-5.387,-5.4091,-5.4214,-5.4468,-5.4629,-5.4742,-5.4871,-5.4901,-5.4882,-5.4901,-5.4901,-5.4901,-5.4871,-5.4822,-5.468,-5.4791,-5.4841,-5.4648,-5.5276,-5.5659,-5.619,-5.6588,-5.7403,-5.8306,-5.8893,-5.925,-5.9949,-6.0285,-6.0389,-6.0427,-6.037,-6.0389,-6.0389,-6.0332,-6.0102,-5.9854,-5.9759,-5.9529,-5.9338,-5.9166,-5.8803,-5.8345,-5.7848,-5.716,-5.6664,-5.6243,-5.5842,-5.5441,-5.5403,-5.5403,-5.5403,-5.5422,-5.5422,-5.5422,-5.5403,-5.5403,-5.5403,-5.5403,-5.5403,-5.5193,-5.4658,-5.4199,-5.3626,-5.2346,-5.1142,-5.0436,-5.034,-5.0321,-5.0302,-5.0302,-5.0302,-5.0302,-5.0302,-5.0302,-4.4944,-4.5264,-4.5371,-4.5441,-4.5441,-4.5441,-4.5441,-4.5441,-4.5441,-4.5441,-4.5441,-4.5441,-4.5441,-4.5873,-4.7281,-4.924,-5.1233,-5.191,-5.2371,-5.2361,-5.2221,-5.2108,-5.203,-5.1853,-5.174,-5.179,-5.179,-5.169,-5.1808,-5.203,-5.225,-5.2454,-5.2743,-5.298,-5.3109,-5.3193,-5.33,-5.3341,-5.344,-5.36,-5.3717,-5.3907,-5.4055,-5.4127,-5.4434,-5.4578,-5.4629,-5.4822,-5.4901,-5.4901,-5.4901,-5.4901,-5.4901,-5.4901,-5.4901,-5.4901,-5.4901,-5.4901,-5.492,-5.489,-5.528,-5.5754,-5.5906,-5.6777,-5.7813,-5.8494,-5.9231,-6.0055,-6.0332,-6.0389,-6.037,-6.0217,-6.0102,-6.0026,-5.9873,-5.9644,-5.9109,-5.8765,-5.8421,-5.8364,-5.8479,-5.8192,-5.7619,-5.7008,-5.632,-5.6205,-5.5823,-5.5747,-5.5403,-5.5403,-5.5403,-5.5403,-5.5403,-5.5403,-5.5403,-5.5403,-5.5403,-5.5403,-5.5403,-5.5403,-5.5193,-5.4887,-5.4467,-5.4065,-5.3359,-5.2212,-5.1295,-5.0397,-5.0321,-5.0302,-5.0302,-5.0302,-5.0302,-5.0302,-5.0302,-4.4763,-4.4835,-4.5247,-4.5441,-4.5441,-4.5441,-4.5441,-4.5441,-4.5441,-4.5441,-4.5441,-4.5441,-4.5441,-4.6048,-4.7885,-4.9483,-5.0669,-5.1706,-5.2108,-5.1951,-5.1871,-5.1822,-5.1772,-5.174,-5.169,-5.169,-5.169,-5.169,-5.1772,-5.203,-5.2361,-5.2654,-5.2962,-5.33,-5.3381,-5.3277,-5.33,-5.3277,-5.3066,-5.3109,-5.3381,-5.3621,-5.3833,-5.4089,-5.4401,-5.4578,-5.4629,-5.4773,-5.4901,-5.4901,-5.4901,-5.4901,-5.4901,-5.4901,-5.4901,-5.4901,-5.4901,-5.4901,-5.4901,-5.4901,-5.492,-5.5204,-5.5185,-5.5621,-5.6744,-5.8068,-5.909,-6.0169,-6.0265,-6.016,-5.995,-5.9625,-5.9376,-5.909,-5.8842,-5.8498,-5.8058,-5.7982,-5.7619,-5.7141,-5.7179,-5.7065,-5.6702,-5.6091,-5.5536,-5.5498,-5.5479,-5.5422,-5.5403,-5.5403,-5.5403,-5.5403,-5.5403,-5.5403,-5.5403,-5.5403,-5.5403,-5.5403,-5.5403,-5.5403,-5.5269,-5.5059,-5.4811,-5.4371,-5.376,-5.3168,-5.2212,-5.1353,-5.0646,-5.0378,-5.0493,-5.0417,-5.0302,-5.0302,-5.0302,-4.4708,-4.4763,-4.5177,-4.5441,-4.5441,-4.5441,-4.5441,-4.5441,-4.5441,-4.5441,-4.5441,-4.5441,-4.5872,-4.6793,-4.8461,-4.9646,-5.069,-5.1736,-5.203,-5.179,-5.169,-5.169,-5.169,-5.169,-5.169,-5.169,-5.169,-5.169,-5.1822,-5.203,-5.2297,-5.2499,-5.2831,-5.3023,-5.33,-5.3109,-5.3023,-5.298,-5.2893,-5.3023,-5.3359,-5.3524,-5.3738,-5.4072,-5.4416,-5.4528,-5.4629,-5.4773,-5.4901,-5.4901,-5.4901,-5.4901,-5.4901,-5.4901,-5.4901,-5.4901,-5.4901,-5.4901,-5.4901,-5.4901,-5.4901,-5.4901,-5.4958,-5.5386,-5.628,-5.7357,-5.8282,-5.8749,-5.8901,-5.9014,-5.9052,-5.8651,-5.8517,-5.8268,-5.7925,-5.7542,-5.7256,-5.7141,-5.6893,-5.6358,-5.5957,-5.6033,-5.6091,-5.5785,-5.5441,-5.5441,-5.5441,-5.5422,-5.5403,-5.5403,-5.5403,-5.5403,-5.5403,-5.5403,-5.5403,-5.5403,-5.5403,-5.5403,-5.5403,-5.5403,-5.5403,-5.5231,-5.5021,-5.4753,-5.4295,-5.3664,-5.2957,-5.2289,-5.1544,-5.1104,-5.0722,-5.0608,-5.0493,-5.0302,-5.0302,-4.4708,-4.4763,-4.5177,-4.5441,-4.5441,-4.5441,-4.5441,-4.5441,-4.5441,-4.5441,-4.5441,-4.5458,-4.6113,-4.7207,-4.8257,-4.9356,-5.0242,-5.1522,-5.1817,-5.1772,-5.169,-5.169,-5.169,-5.169,-5.169,-5.169,-5.169,-5.169,-5.1772,-5.1951,-5.206,-5.2185,-5.2654,-5.2806,-5.2806,-5.2698,-5.2608,-5.249,-5.2563,-5.2704,-5.2904,-5.3114,-5.3347,-5.3717,-5.4067,-5.439,-5.4565,-5.4791,-5.4901,-5.4901,-5.4901,-5.4901,-5.4901,-5.4901,-5.4901,-5.4901,-5.4901,-5.4901,-5.4901,-5.4901,-5.4901,-5.4901,-5.5007,-5.5321,-5.6177,-5.6987,-5.7568,-5.7872,-5.8004,-5.802,-5.7867,-5.7791,-5.7581,-5.7466,-5.7256,-5.6836,-5.6492,-5.6415,-5.632,-5.5957,-5.5651,-5.5556,-5.5575,-5.5498,-5.5403,-5.5403,-5.5403,-5.5403,-5.5403,-5.5403,-5.5403,-5.5403,-5.5403,-5.5403,-5.5403,-5.5403,-5.5403,-5.5403,-5.5403,-5.5403,-5.5403,-5.5403,-5.5288,-5.5002,-5.4715,-5.4276,-5.3645,-5.3053,-5.2422,-5.1697,-5.1085,-5.0856,-5.0684,-5.0455,-5.0302,-4.4708,-4.4763,-4.5177,-4.5441,-4.5441,-4.5441,-4.5441,-4.5441,-4.5441,-4.5441,-4.5441,-4.5458,-4.5544,-4.6203,-4.7771,-4.8815,-4.9011,-5.0848,-5.1547,-5.174,-5.169,-5.169,-5.169,-5.169,-5.169,-5.169,-5.169,-5.169,-5.169,-5.174,-5.1951,-5.2203,-5.2426,-5.2672,-5.2627,-5.2379,-5.2286,-5.2209,-5.2286,-5.2109,-5.2163,-5.2254,-5.2586,-5.2808,-5.323,-5.3773,-5.4382,-5.4648,-5.4761,-5.4761,-5.4711,-5.4791,-5.4761,-5.4791,-5.4791,-5.4901,-5.4901,-5.4901,-5.4901,-5.4901,-5.4901,-5.4931,-5.5017,-5.5303,-5.5997,-5.634,-5.6881,-5.7319,-5.7344,-5.7562,-5.7447,-5.7256,-5.6778,-5.6606,-5.6434,-5.6148,-5.5861,-5.5766,-5.5651,-5.5479,-5.5403,-5.5403,-5.5403,-5.5403,-5.5403,-5.5403,-5.5403,-5.5403,-5.5403,-5.5403,-5.5403,-5.5403,-5.5403,-5.5403,-5.5403,-5.5403,-5.5403,-5.5403,-5.5403,-5.5403,-5.5403,-5.5403,-5.5403,-5.5326,-5.5059,-5.4696,-5.4371,-5.3855,-5.3168,-5.2098,-5.1467,-5.1295,-5.0818,-5.0397,-5.0302,-4.5123,-4.5123,-4.5318,-4.5441,-4.5441,-4.5441,-4.5441,-4.5441,-4.5441,-4.5441,-4.5441,-4.5441,-4.5788,-4.6604,-4.7805,-4.8992,-4.9657,-5.0987,-5.1515,-5.169,-5.169,-5.169,-5.169,-5.169,-5.169,-5.1672,-5.1672,-5.169,-5.169,-5.169,-5.174,-5.1969,-5.2144,-5.2066,-5.2018,-5.2096,-5.2144,-5.2379,-5.2289,-5.2064,-5.2128,-5.2093,-5.2215,-5.2022,-5.2996,-5.3268,-5.3515,-5.4157,-5.4274,-5.4262,-5.4228,-5.4349,-5.4533,-5.4533,-5.468,-5.4841,-5.4871,-5.4901,-5.4901,-5.4901,-5.4901,-5.492,-5.4979,-5.5199,-5.5627,-5.5663,-5.5859,-5.6172,-5.6427,-5.6587,-5.6301,-5.6071,-5.5861,-5.5766,-5.5651,-5.546,-5.5403,-5.5403,-5.5403,-5.5403,-5.5403,-5.5403,-5.5403,-5.5403,-5.5403,-5.5403,-5.5403,-5.5403,-5.5403,-5.5403,-5.5403,-5.5403,-5.5403,-5.5403,-5.5403,-5.5403,-5.5403,-5.5403,-5.5403,-5.5403,-5.5403,-5.5403,-5.5403,-5.5403,-5.5403,-5.5097,-5.483,-5.4639,-5.3779,-5.2384,-5.1868,-5.1792,-5.1181,-5.0378,-5.0302,-4.5441,-4.5441,-4.5441,-4.5441,-4.5441,-4.5441,-4.5441,-4.5441,-4.5441,-4.5441,-4.5441,-4.5458,-4.5788,-4.6691,-4.7734,-4.8711,-4.9568,-5.067,-5.1319,-5.1601,-5.169,-5.169,-5.169,-5.1654,-5.1565,-5.1494,-5.1619,-5.1654,-5.1459,-5.1597,-5.1804,-5.1853,-5.1853,-5.1853,-5.179,-5.1871,-5.2173,-5.2499,-5.2714,-5.2131,-5.1999,-5.1973,-5.1973,-5.1719,-5.2437,-5.3042,-5.3302,-5.3899,-5.396,-5.3888,-5.3814,-5.3888,-5.4069,-5.4262,-5.4449,-5.4648,-5.4822,-5.4901,-5.4901,-5.4901,-5.4901,-5.4901,-5.496,-5.5028,-5.5075,-5.5157,-5.5458,-5.5492,-5.5498,-5.5403,-5.5403,-5.5498,-5.5536,-5.5556,-5.5536,-5.5403,-5.5403,-5.5403,-5.5403,-5.5403,-5.5403,-5.5403,-5.5403,-5.5403,-5.5403,-5.5403,-5.5403,-5.5403,-5.5403,-5.5403,-5.5403,-5.5403,-5.5403,-5.5403,-5.5403,-5.5403,-5.5403,-5.5403,-5.5403,-5.5403,-5.5403,-5.5403,-5.5403,-5.5403,-5.5403,-5.5403,-5.525,-5.4982,-5.3836,-5.2442,-5.1945,-5.1372,-5.1047,-5.0302,-5.0302,-4.5441,-4.5441,-4.5441,-4.5441,-4.5441,-4.5441,-4.5441,-4.5441,-4.5441,-4.5441,-4.5441,-4.5441,-4.5441,-4.5927,-4.7054,-4.8098,-4.9041,-5.0119,-5.1012,-5.1565,-5.169,-5.169,-5.1654,-5.1565,-5.1226,-5.0887,-5.1083,-5.1303,-5.1135,-5.1597,-5.1897,-5.206,-5.206,-5.2078,-5.1772,-5.203,-5.2203,-5.2325,-5.2969,-5.2312,-5.1651,-5.1695,-5.1817,-5.1407,-5.1937,-5.2666,-5.2641,-5.346,-5.3513,-5.3267,-5.3413,-5.3567,-5.3796,-5.4069,-5.4262,-5.4468,-5.4761,-5.4871,-5.4901,-5.4901,-5.4901,-5.4901,-5.499,-5.5028,-5.5094,-5.5149,-5.5248,-5.5313,-5.5358,-5.5403,-5.5403,-5.5403,-5.5403,-5.5403,-5.5403,-5.5403,-5.5403,-5.5403,-5.5403,-5.5403,-5.5403,-5.5403,-5.5403,-5.5403,-5.5403,-5.5403,-5.5403,-5.5403,-5.5403,-5.5403,-5.5403,-5.5403,-5.5403,-5.5403,-5.5403,-5.5403,-5.5403,-5.5403,-5.5403,-5.5403,-5.5403,-5.5403,-5.5403,-5.5403,-5.5403,-5.5403,-5.5365,-5.5288,-5.3874,-5.2461,-5.1181,-5.055,-5.034,-5.0302,-5.0302,-4.5441,-4.5441,-4.5441,-4.5441,-4.5441,-4.5441,-4.5441,-4.5441,-4.5441,-4.5441,-4.5441,-4.5441,-4.5511,-4.5996,-4.6809,-4.7885,-4.8947,-4.9941,-5.0923,-5.1619,-5.1654,-5.169,-5.1565,-5.1155,-5.0762,-5.0637,-5.0816,-5.0937,-5.0743,-5.1477,-5.1976,-5.2203,-5.2123,-5.2417,-5.2635,-5.2769,-5.2787,-5.3157,-5.3249,-5.2865,-5.2139,-5.2176,-5.1854,-5.0711,-5.167,-5.1954,-5.1429,-5.2386,-5.2784,-5.2417,-5.254,-5.3042,-5.34,-5.3738,-5.4081,-5.4444,-5.4871,-5.4901,-5.4901,-5.4901,-5.4901,-5.4931,-5.5,-5.5057,-5.5057,-5.5113,-5.5195,-5.5248,-5.5294,-5.5339,-5.5358,-5.5403,-5.5403,-5.5403,-5.5403,-5.5403,-5.5403,-5.5403,-5.5403,-5.5403,-5.5403,-5.5403,-5.5403,-5.5403,-5.5403,-5.5403,-5.5403,-5.5403,-5.5403,-5.5403,-5.5403,-5.5403,-5.5403,-5.5403,-5.5403,-5.5403,-5.5403,-5.5403,-5.5403,-5.5403,-5.5403,-5.5403,-5.5403,-5.5403,-5.5403,-5.5384,-5.5116,-5.4696,-5.3722,-5.248,-5.12,-5.0378,-5.0302,-5.0302,-5.0302,-4.5441,-4.5441,-4.5441,-4.5441,-4.5441,-4.5441,-4.5441,-4.5441,-4.5441,-4.5441,-4.5441,-4.5423,-4.5459,-4.5857,-4.6597,-4.7729,-4.8844,-4.9688,-5.0834,-5.1494,-5.1351,-5.144,-5.128,-5.0655,-5.0138,-5.0138,-5.0352,-5.0472,-5.036,-5.1479,-5.1826,-5.1759,-5.1852,-5.2126,-5.2498,-5.2749,-5.3005,-5.3341,-5.3388,-5.3232,-5.2828,-5.2617,-5.2132,-5.1338,-5.1304,-5.1547,-5.0714,-5.0945,-5.1816,-5.1406,-5.1602,-5.2205,-5.2693,-5.3049,-5.3447,-5.4018,-5.4727,-5.4795,-5.4901,-5.4931,-5.4931,-5.4901,-5.5028,-5.5066,-5.5066,-5.5121,-5.5195,-5.5267,-5.5248,-5.5294,-5.5358,-5.5403,-5.5403,-5.5403,-5.5403,-5.5403,-5.5403,-5.5403,-5.5403,-5.5403,-5.5403,-5.5403,-5.5403,-5.5403,-5.5403,-5.5403,-5.5403,-5.5403,-5.5403,-5.5403,-5.5403,-5.5403,-5.5403,-5.5403,-5.5403,-5.5403,-5.5403,-5.5403,-5.5403,-5.5403,-5.5403,-5.5403,-5.5403,-5.5403,-5.5403,-5.5231,-5.4658,-5.4008,-5.3148,-5.2231,-5.1162,-5.0588,-5.0359,-5.0302,-5.0302,-4.5353,-4.5371,-4.5441,-4.5441,-4.5441,-4.5441,-4.5441,-4.5441,-4.5441,-4.5441,-4.5441,-4.5441,-4.5476,-4.5563,-4.604,-4.7184,-4.8531,-4.9195,-5.0374,-5.1173,-5.1191,-5.1298,-5.0923,-5.0174,-4.9567,-4.9603,-4.9799,-4.9984,-5.0,-5.0861,-5.1239,-5.13,-5.1329,-5.1806,-5.2261,-5.2608,-5.2987,-5.3381,-5.3662,-5.3516,-5.3252,-5.3219,-5.2566,-5.1868,-5.1579,-5.1176,-5.0593,-5.057,-5.0657,-5.0607,-5.0747,-5.1023,-5.1287,-5.1619,-5.2296,-5.3099,-5.4212,-5.4606,-5.4731,-5.4752,-5.4941,-5.4912,-5.4971,-5.5066,-5.5121,-5.513,-5.5203,-5.5267,-5.5294,-5.5339,-5.5403,-5.5403,-5.5403,-5.5403,-5.5403,-5.5403,-5.5403,-5.5403,-5.5403,-5.5403,-5.5403,-5.5403,-5.5403,-5.5403,-5.5403,-5.5403,-5.5403,-5.5403,-5.5403,-5.5403,-5.5403,-5.5403,-5.5403,-5.5403,-5.5403,-5.5403,-5.5403,-5.5403,-5.5403,-5.5403,-5.5403,-5.5403,-5.5403,-5.5403,-5.5403,-5.5097,-5.4486,-5.3645,-5.269,-5.1773,-5.099,-5.0588,-5.0302,-5.0302,-5.0302,-4.5247,-4.53,-4.5371,-4.5441,-4.5441,-4.5441,-4.5441,-4.5441,-4.5441,-4.5441,-4.5441,-4.5441,-4.5459,-4.5684,-4.6073,-4.7304,-4.8364,-4.9355,-5.0356,-5.0905,-5.1066,-5.103,-5.0566,-4.9763,-4.9067,-4.8942,-4.9121,-4.9401,-4.9113,-4.9966,-5.0976,-5.1355,-5.0877,-5.1456,-5.1944,-5.2427,-5.2865,-5.337,-5.3702,-5.3813,-5.3805,-5.386,-5.2986,-5.2121,-5.2012,-5.1264,-4.9991,-5.0339,-5.0451,-5.0232,-5.075,-5.1157,-5.16,-5.1753,-5.2113,-5.2583,-5.3451,-5.4048,-5.4124,-5.4609,-5.496,-5.4971,-5.5,-5.5,-5.5038,-5.5102,-5.5176,-5.5248,-5.5267,-5.5241,-5.5241,-5.526,-5.5233,-5.5206,-5.5233,-5.5286,-5.5305,-5.5358,-5.5358,-5.5403,-5.5403,-5.5403,-5.5403,-5.5403,-5.5403,-5.5403,-5.5377,-5.5377,-5.5377,-5.5377,-5.5403,-5.5403,-5.5403,-5.5403,-5.5403,-5.5403,-5.5403,-5.5403,-5.5403,-5.5403,-5.5403,-5.5403,-5.5403,-5.5403,-5.5403,-5.4925,-5.4276,-5.3397,-5.2537,-5.1716,-5.0951,-5.0588,-5.0302,-5.0302,-5.0302,-4.523,-4.53,-4.5371,-4.5441,-4.5441,-4.5441,-4.5441,-4.5441,-4.5441,-4.5441,-4.5441,-4.5441,-4.5546,-4.5803,-4.6157,-4.7002,-4.8378,-4.8745,-4.9638,-5.0709,-5.0709,-5.0513,-4.9995,-4.9192,-4.8425,-4.8336,-4.8568,-4.8853,-4.8733,-4.9113,-5.0082,-5.001,-4.9991,-5.0525,-5.085,-5.1076,-5.1743,-5.2592,-5.3349,-5.3941,-5.4134,-5.411,-5.3015,-5.2161,-5.2236,-5.0777,-4.9294,-5.0079,-4.9998,-4.9865,-5.0441,-5.0761,-5.1215,-5.1452,-5.166,-5.218,-5.3149,-5.3661,-5.3916,-5.4533,-5.4828,-5.5019,-5.5057,-5.5094,-5.5094,-5.5149,-5.5203,-5.5248,-5.5149,-5.5047,-5.5066,-5.5057,-5.5,-5.4941,-5.5057,-5.5159,-5.5233,-5.5332,-5.5358,-5.5377,-5.5403,-5.5403,-5.5403,-5.5403,-5.5332,-5.5214,-5.5187,-5.526,-5.526,-5.5305,-5.5358,-5.5403,-5.5403,-5.5403,-5.5403,-5.5403,-5.5403,-5.5403,-5.5403,-5.5403,-5.5403,-5.5365,-5.5307,-5.5345,-5.5403,-5.4677,-5.3741,-5.3263,-5.2499,-5.1601,-5.086,-5.0578,-5.0371,-5.039,-5.0367,-4.5247,-4.5353,-4.5353,-4.5441,-4.5441,-4.5441,-4.5441,-4.5441,-4.5441,-4.5441,-4.5441,-4.5441,-4.5563,-4.5786,-4.6122,-4.6825,-4.7842,-4.833,-4.9067,-5.0352,-4.9513,-4.9335,-4.9228,-4.8318,-4.7907,-4.8015,-4.8247,-4.8532,-4.896,-4.9019,-4.8637,-4.8222,-4.8429,-4.8954,-4.9532,-4.991,-5.0628,-5.1422,-5.2455,-5.3255,-5.3776,-5.3579,-5.2868,-5.1876,-5.1155,-5.0196,-4.9295,-4.9038,-4.9126,-4.9493,-4.9784,-5.0101,-5.0481,-5.0918,-5.1192,-5.1718,-5.2627,-5.3205,-5.3698,-5.4353,-5.4886,-5.5057,-5.5121,-5.5075,-5.5075,-5.5047,-5.5102,-5.5066,-5.4962,-5.4776,-5.4735,-5.4673,-5.461,-5.4673,-5.4814,-5.4903,-5.5009,-5.5187,-5.5377,-5.5403,-5.5403,-5.5358,-5.5187,-5.5168,-5.5113,-5.499,-5.499,-5.5085,-5.5233,-5.5279,-5.5332,-5.5403,-5.5403,-5.5403,-5.5403,-5.5403,-5.5403,-5.5403,-5.5403,-5.5403,-5.5403,-5.5326,-5.5212,-5.4868,-5.4409,-5.3874,-5.3148,-5.2676,-5.2069,-5.1113,-5.0566,-5.0492,-5.0457,-5.0435,-5.0435,-4.514,-4.5247,-4.5371,-4.5441,-4.5441,-4.5441,-4.5441,-4.5441,-4.5441,-4.5441,-4.5441,-4.5423,-4.5546,-4.5786,-4.6055,-4.6706,-4.7563,-4.7927,-4.8699,-4.9299,-4.8925,-4.8586,-4.88,-4.8104,-4.7622,-4.7551,-4.78,-4.8293,-4.8318,-4.805,-4.7907,-4.8122,-4.8122,-4.8304,-4.8844,-4.9256,-4.9631,-5.0303,-5.0966,-5.1934,-5.2491,-5.2632,-5.2237,-5.1603,-5.0902,-5.0468,-4.9833,-4.9721,-4.983,-5.0076,-5.0183,-5.0245,-5.0278,-5.0441,-5.0399,-5.0594,-5.1887,-5.2618,-5.3139,-5.3946,-5.4686,-5.4952,-5.5009,-5.4943,-5.4914,-5.4914,-5.4836,-5.4776,-5.4647,-5.4471,-5.4322,-5.4221,-5.4153,-5.4322,-5.456,-5.4685,-5.4825,-5.5085,-5.5358,-5.5403,-5.5403,-5.526,-5.5066,-5.499,-5.4884,-5.4855,-5.4855,-5.4962,-5.5233,-5.5351,-5.5332,-5.5403,-5.5403,-5.5403,-5.5403,-5.5403,-5.5403,-5.5403,-5.5403,-5.5403,-5.5365,-5.483,-5.4314,-5.3683,-5.3148,-5.29,-5.2619,-5.2088,-5.1404,-5.0684,-5.0457,-5.05,-5.0521,-5.054,-5.05,-4.4507,-4.4354,-4.4733,-4.5113,-4.5389,-4.5441,-4.5441,-4.5441,-4.5441,-4.5441,-4.5441,-4.5423,-4.5546,-4.5786,-4.5988,-4.6442,-4.7214,-4.7388,-4.801,-4.8503,-4.8532,-4.8282,-4.805,-4.7836,-4.7426,-4.7247,-4.7783,-4.8115,-4.7711,-4.78,-4.7872,-4.7747,-4.7729,-4.7907,-4.8336,-4.8347,-4.8668,-4.9177,-4.957,-5.0156,-5.098,-5.1355,-5.167,-5.1263,-5.0789,-5.0372,-5.0191,-5.0012,-5.0089,-5.0193,-5.0313,-5.0339,-5.0425,-5.0675,-5.0525,-5.0646,-5.1364,-5.2276,-5.2532,-5.3224,-5.4238,-5.4324,-5.4633,-5.4478,-5.4377,-5.4326,-5.4161,-5.4025,-5.359,-5.3361,-5.3253,-5.3181,-5.3051,-5.3088,-5.3981,-5.461,-5.4922,-5.526,-5.5403,-5.5403,-5.5403,-5.5377,-5.5233,-5.5233,-5.5113,-5.4884,-5.4884,-5.4884,-5.5159,-5.5377,-5.5377,-5.5403,-5.5403,-5.5403,-5.5403,-5.5403,-5.5403,-5.5403,-5.5403,-5.5059,-5.4772,-5.4008,-5.3339,-5.2862,-5.258,-5.2485,-5.2146,-5.1676,-5.128,-5.0711,-5.0579,-5.0562,-5.0582,-5.0603,-5.0603,-4.3683,-4.332,-4.4043,-4.4647,-4.5251,-4.5336,-4.5441,-4.5441,-4.5441,-4.5441,-4.5441,-4.5441,-4.5546,-4.5684,-4.5887,-4.6186,-4.6548,-4.6962,-4.7447,-4.7629,-4.7408,-4.7551,-4.7586,-4.739,-4.714,-4.7212,-4.7604,-4.7461,-4.714,-4.739,-4.7444,-4.7069,-4.6998,-4.7033,-4.6998,-4.7061,-4.7491,-4.7977,-4.8327,-4.8569,-4.9374,-5.0334,-5.0733,-5.0685,-5.0344,-4.9909,-4.9879,-4.9887,-4.9993,-5.0169,-5.0313,-5.0336,-5.0562,-5.0827,-5.0736,-5.084,-5.1452,-5.1811,-5.1868,-5.2397,-5.2937,-5.3264,-5.3762,-5.3887,-5.3671,-5.3452,-5.3286,-5.3068,-5.2642,-5.2308,-5.2194,-5.2135,-5.2014,-5.222,-5.3327,-5.449,-5.4914,-5.5313,-5.5403,-5.5403,-5.5403,-5.5403,-5.5332,-5.5332,-5.5233,-5.5009,-5.4943,-5.499,-5.5085,-5.526,-5.5403,-5.5403,-5.5403,-5.5403,-5.5403,-5.5403,-5.5403,-5.5403,-5.5326,-5.4772,-5.4123,-5.3263,-5.2614,-5.2289,-5.2064,-5.182,-5.1691,-5.1335,-5.0979,-5.0678,-5.0661,-5.0623,-5.0643,-5.0663,-5.0663,-4.3167,-4.3301,-4.4026,-4.4371,-4.4578,-4.5165,-4.5441,-4.5441,-4.5441,-4.5441,-4.5441,-4.5441,-4.5476,-4.5511,-4.5938,-4.6235,-4.6332,-4.6637,-4.6888,-4.7087,-4.7087,-4.7158,-4.7194,-4.7176,-4.7033,-4.7122,-4.7229,-4.7087,-4.6998,-4.7158,-4.7194,-4.6998,-4.6998,-4.6998,-4.6998,-4.7025,-4.716,-4.7432,-4.7733,-4.8098,-4.8458,-4.9224,-4.9795,-4.9834,-4.9749,-4.9741,-4.9778,-4.973,-4.991,-5.0106,-5.0225,-5.0183,-5.0397,-5.071,-5.074,-5.0571,-5.1249,-5.1356,-5.1429,-5.1536,-5.1784,-5.1978,-5.2348,-5.2543,-5.2323,-5.2047,-5.1974,-5.2024,-5.159,-5.1185,-5.109,-5.1127,-5.1081,-5.1689,-5.2602,-5.3846,-5.4674,-5.5111,-5.5403,-5.5403,-5.5403,-5.526,-5.5066,-5.5066,-5.5085,-5.4895,-5.4762,-5.4857,-5.5195,-5.5313,-5.5307,-5.5345,-5.5326,-5.5403,-5.5403,-5.5403,-5.5403,-5.5403,-5.5116,-5.4352,-5.3454,-5.2422,-5.183,-5.1529,-5.1189,-5.0887,-5.0798,-5.1015,-5.0888,-5.0641,-5.0663,-5.0683,-5.0683,-5.0683,-5.0683]}]]